Time,TemperatureF,DewpointF,PressureIn,WindDirection,WindDirectionDegrees,WindSpeedMPH,WindSpeedGustMPH,Humidity,HourlyPrecipIn,Conditions,Clouds,dailyrainin,SoftwareType,DateUTC
2013-06-11 00:00:00,70.8,70.2,31.01,SSW,195,5.8,6.3,98,0.04,,,0.00,VWS V14.01,2013-06-11 04:00:00,
2013-06-11 00:01:00,70.8,70.2,31.01,SSE,162,5.8,5.8,98,0.04,,,0.00,VWS V14.01,2013-06-11 04:01:00,
2013-06-11 00:02:00,70.8,70.2,31.01,SSE,158,3.6,5.8,98,0.04,,,0.00,VWS V14.01,2013-06-11 04:02:00,
2013-06-11 00:03:00,70.8,70.2,31.01,South,169,5.8,5.8,98,0.04,,,0.00,VWS V14.01,2013-06-11 04:03:00,
2013-06-11 00:04:00,70.8,70.2,31.01,South,169,5.8,5.8,98,0.04,,,0.00,VWS V14.01,2013-06-11 04:04:00,
2013-06-11 00:05:00,70.8,70.2,31.01,WSW,238,3.1,5.8,98,0.04,,,0.00,VWS V14.01,2013-06-11 04:05:00,
2013-06-11 00:06:00,71.0,70.7,31.01,WSW,238,3.1,3.1,99,0.04,,,0.00,VWS V14.01,2013-06-11 04:06:00,
2013-06-11 00:07:00,71.0,70.7,31.01,WSW,238,3.1,3.1,99,0.04,,,0.00,VWS V14.01,2013-06-11 04:07:00,
2013-06-11 00:08:00,71.0,70.7,31.01,SSW,213,2.2,8.1,99,0.04,,,0.00,VWS V14.01,2013-06-11 04:08:00,
2013-06-11 00:09:00,71.0,70.7,31.01,SW,214,2.2,2.2,99,0.04,,,0.00,VWS V14.01,2013-06-11 04:09:00,
2013-06-11 00:10:00,71.0,70.7,31.01,SW,235,4.9,4.9,99,0.04,,,0.00,VWS V14.01,2013-06-11 04:10:00,
2013-06-11 00:11:00,71.0,70.7,31.01,SW,220,3.1,4.9,99,0.04,,,0.00,VWS V14.01,2013-06-11 04:11:00,
2013-06-11 00:12:00,71.0,70.7,31.01,SSW,198,3.6,3.6,99,0.04,,,0.00,VWS V14.01,2013-06-11 04:12:00,
2013-06-11 00:13:00,71.0,70.7,31.01,South,186,3.1,3.6,99,0.04,,,0.00,VWS V14.01,2013-06-11 04:13:00,
2013-06-11 00:14:00,71.0,70.7,31.01,South,176,2.2,3.1,99,0.04,,,0.00,VWS V14.01,2013-06-11 04:14:00,
2013-06-11 00:15:00,71.0,70.7,31.01,South,186,3.6,3.6,99,0.04,,,0.00,VWS V14.01,2013-06-11 04:15:00,
2013-06-11 00:16:00,71.0,70.7,31.01,WNW,283,3.6,3.6,99,0.04,,,0.00,VWS V14.01,2013-06-11 04:16:00,
2013-06-11 00:17:00,71.2,70.9,31.01,South,187,6.3,6.3,99,0.04,,,0.00,VWS V14.01,2013-06-11 04:17:00,
2013-06-11 00:18:00,71.2,70.9,31.01,South,187,6.3,6.3,99,0.04,,,0.00,VWS V14.01,2013-06-11 04:18:00,
2013-06-11 00:19:00,71.2,70.9,31.01,South,171,6.7,6.7,99,0.04,,,0.00,VWS V14.01,2013-06-11 04:19:00,
2013-06-11 00:20:00,71.2,70.9,31.01,SSE,161,3.1,4.0,99,0.04,,,0.00,VWS V14.01,2013-06-11 04:20:00,
2013-06-11 00:21:00,71.2,70.9,31.01,SSE,153,3.1,3.1,99,0.04,,,0.00,VWS V14.01,2013-06-11 04:21:00,
2013-06-11 00:22:00,71.2,70.9,31.01,SSW,196,2.7,4.0,99,0.04,,,0.00,VWS V14.01,2013-06-11 04:22:00,
2013-06-11 00:23:00,71.2,70.9,31.01,SSW,196,2.7,2.7,99,0.04,,,0.00,VWS V14.01,2013-06-11 04:23:00,
2013-06-11 00:24:00,71.2,70.9,31.01,SSW,197,4.0,4.0,99,0.04,,,0.00,VWS V14.01,2013-06-11 04:24:00,
2013-06-11 00:25:00,71.2,70.9,31.01,WSW,253,0.0,4.0,99,0.04,,,0.00,VWS V14.01,2013-06-11 04:25:00,
2013-06-11 00:26:00,71.3,71.1,31.01,SSE,161,4.0,8.1,99,0.04,,,0.00,VWS V14.01,2013-06-11 04:26:00,
2013-06-11 00:27:00,71.3,71.1,31.01,SSW,195,2.2,4.0,99,0.04,,,0.00,VWS V14.01,2013-06-11 04:27:00,
2013-06-11 00:28:00,71.3,71.1,31.01,SSE,151,3.6,3.6,99,0.04,,,0.00,VWS V14.01,2013-06-11 04:28:00,
2013-06-11 00:29:00,71.3,71.1,31.01,SSE,156,0.0,4.9,99,0.04,,,0.00,VWS V14.01,2013-06-11 04:29:00,
2013-06-11 00:30:00,71.3,71.1,31.01,SSE,153,3.6,3.6,99,0.04,,,0.00,VWS V14.01,2013-06-11 04:30:00,
2013-06-11 00:31:00,71.3,71.1,31.01,SW,229,8.3,8.3,99,0.04,,,0.00,VWS V14.01,2013-06-11 04:31:00,
2013-06-11 00:32:00,71.3,71.1,31.01,SSW,195,4.9,8.3,99,0.04,,,0.00,VWS V14.01,2013-06-11 04:32:00,
2013-06-11 00:33:00,71.3,71.1,31.01,SSW,195,4.9,4.9,99,0.04,,,0.00,VWS V14.01,2013-06-11 04:33:00,
2013-06-11 00:34:00,71.3,71.1,31.01,South,177,3.6,3.6,99,0.04,,,0.00,VWS V14.01,2013-06-11 04:34:00,
2013-06-11 00:35:00,71.3,71.1,31.01,SW,217,2.7,3.6,99,0.04,,,0.00,VWS V14.01,2013-06-11 04:35:00,
2013-06-11 00:36:00,71.3,71.1,31.01,SSW,213,4.0,4.0,99,0.04,,,0.00,VWS V14.01,2013-06-11 04:36:00,
2013-06-11 00:37:00,71.3,71.1,31.01,South,180,0.0,4.0,99,0.04,,,0.00,VWS V14.01,2013-06-11 04:37:00,
2013-06-11 00:38:00,71.3,71.1,31.01,SSE,161,6.3,6.3,99,0.00,,,0.00,VWS V14.01,2013-06-11 04:38:00,
2013-06-11 00:39:00,71.3,71.1,31.01,SSW,193,4.0,6.3,99,0.00,,,0.00,VWS V14.01,2013-06-11 04:39:00,
2013-06-11 00:40:00,71.3,71.1,31.01,SSW,213,3.1,6.3,99,0.00,,,0.00,VWS V14.01,2013-06-11 04:40:00,
2013-06-11 00:41:00,71.3,71.1,31.01,South,191,3.6,3.6,99,0.00,,,0.00,VWS V14.01,2013-06-11 04:41:00,
2013-06-11 00:42:00,71.3,71.1,31.01,South,182,5.8,5.8,99,0.00,,,0.00,VWS V14.01,2013-06-11 04:42:00,
2013-06-11 00:43:00,71.3,70.8,31.01,SSE,154,6.3,6.3,98,0.00,,,0.00,VWS V14.01,2013-06-11 04:43:00,
2013-06-11 00:44:00,71.3,70.8,31.01,SW,236,4.5,4.5,98,0.00,,,0.00,VWS V14.01,2013-06-11 04:44:00,
2013-06-11 00:45:00,71.3,70.8,31.01,South,169,5.4,5.4,98,0.00,,,0.00,VWS V14.01,2013-06-11 04:45:00,
2013-06-11 00:46:00,71.3,70.8,31.01,South,169,5.4,5.4,98,0.00,,,0.00,VWS V14.01,2013-06-11 04:46:00,
2013-06-11 00:47:00,71.3,70.8,31.01,SW,221,0.0,5.4,98,0.00,,,0.00,VWS V14.01,2013-06-11 04:47:00,
2013-06-11 00:48:00,71.3,70.8,31.01,WSW,237,0.0,0.0,98,0.00,,,0.00,VWS V14.01,2013-06-11 04:48:00,
2013-06-11 00:49:00,71.3,70.8,31.01,South,181,3.1,3.1,98,0.00,,,0.00,VWS V14.01,2013-06-11 04:49:00,
2013-06-11 00:50:00,71.3,70.8,31.01,SW,216,2.7,3.1,98,0.00,,,0.00,VWS V14.01,2013-06-11 04:50:00,
2013-06-11 00:51:00,71.3,70.8,31.01,SSW,200,2.7,6.3,98,0.00,,,0.00,VWS V14.01,2013-06-11 04:51:00,
2013-06-11 00:52:00,71.3,70.8,31.01,SE,138,3.1,3.1,98,0.00,,,0.00,VWS V14.01,2013-06-11 04:52:00,
2013-06-11 00:53:00,71.3,70.8,31.01,SW,219,3.1,3.1,98,0.00,,,0.00,VWS V14.01,2013-06-11 04:53:00,
2013-06-11 00:54:00,71.3,70.8,31.01,SSW,198,3.1,3.1,98,0.00,,,0.00,VWS V14.01,2013-06-11 04:54:00,
2013-06-11 00:55:00,71.3,70.8,31.01,South,183,5.4,5.4,98,0.00,,,0.00,VWS V14.01,2013-06-11 04:55:00,
2013-06-11 00:56:00,71.3,70.8,31.01,SSE,155,3.1,5.4,98,0.00,,,0.00,VWS V14.01,2013-06-11 04:56:00,
2013-06-11 00:57:00,71.3,70.8,31.01,SW,236,4.0,4.0,98,0.00,,,0.00,VWS V14.01,2013-06-11 04:57:00,
2013-06-11 00:58:00,71.3,70.8,31.01,SW,233,0.0,4.0,98,0.00,,,0.00,VWS V14.01,2013-06-11 04:58:00,
2013-06-11 00:59:00,71.3,70.4,31.01,South,171,0.0,0.0,97,0.00,,,0.00,VWS V14.01,2013-06-11 04:59:00,
2013-06-11 01:00:00,71.3,70.4,31.01,South,171,0.0,0.0,97,0.00,,,0.00,VWS V14.01,2013-06-11 05:00:00,
2013-06-11 01:01:00,71.3,70.4,31.01,South,171,0.0,0.0,97,0.00,,,0.00,VWS V14.01,2013-06-11 05:01:00,
2013-06-11 01:02:00,71.3,70.4,31.01,SW,232,2.2,2.7,97,0.00,,,0.00,VWS V14.01,2013-06-11 05:02:00,
2013-06-11 01:03:00,71.3,70.4,31.01,SSW,196,2.7,4.0,97,0.00,,,0.00,VWS V14.01,2013-06-11 05:03:00,
2013-06-11 01:04:00,71.3,70.4,31.01,SSE,167,2.2,2.7,97,0.00,,,0.00,VWS V14.01,2013-06-11 05:04:00,
2013-06-11 01:05:00,71.3,70.4,31.01,SSW,211,0.0,2.7,97,0.00,,,0.00,VWS V14.01,2013-06-11 05:05:00,
2013-06-11 01:06:00,71.3,70.4,31.01,South,183,0.0,0.0,97,0.00,,,0.00,VWS V14.01,2013-06-11 05:06:00,
2013-06-11 01:07:00,71.3,70.4,31.01,South,183,0.0,0.0,97,0.00,,,0.00,VWS V14.01,2013-06-11 05:07:00,
2013-06-11 01:08:00,71.3,70.4,31.01,SSE,151,0.0,0.0,97,0.00,,,0.00,VWS V14.01,2013-06-11 05:08:00,
2013-06-11 01:09:00,71.3,70.4,31.01,South,174,3.1,3.1,97,0.00,,,0.00,VWS V14.01,2013-06-11 05:09:00,
2013-06-11 01:10:00,71.3,70.4,31.01,SSE,154,3.6,3.6,97,0.00,,,0.00,VWS V14.01,2013-06-11 05:10:00,
2013-06-11 01:11:00,71.3,70.4,31.01,South,170,2.7,3.6,97,0.00,,,0.00,VWS V14.01,2013-06-11 05:11:00,
2013-06-11 01:12:00,71.3,70.4,31.01,SSE,166,0.0,2.7,97,0.00,,,0.00,VWS V14.01,2013-06-11 05:12:00,
2013-06-11 01:13:00,71.3,70.4,31.01,SSW,207,0.0,0.0,97,0.00,,,0.00,VWS V14.01,2013-06-11 05:13:00,
2013-06-11 01:14:00,71.3,70.4,31.01,SSW,207,0.0,0.0,97,0.00,,,0.00,VWS V14.01,2013-06-11 05:14:00,
2013-06-11 01:15:00,71.3,70.4,31.01,South,187,0.0,3.1,97,0.00,,,0.00,VWS V14.01,2013-06-11 05:15:00,
2013-06-11 01:16:00,71.3,70.4,31.01,South,187,0.0,0.0,97,0.00,,,0.00,VWS V14.01,2013-06-11 05:16:00,
2013-06-11 01:17:00,71.3,70.4,31.01,South,187,0.0,0.0,97,0.00,,,0.00,VWS V14.01,2013-06-11 05:17:00,
2013-06-11 01:18:00,71.3,70.4,31.01,SE,146,0.0,0.0,97,0.00,,,0.00,VWS V14.01,2013-06-11 05:18:00,
2013-06-11 01:19:00,71.2,70.3,31.01,SW,218,2.7,2.7,97,0.00,,,0.00,VWS V14.01,2013-06-11 05:19:00,
2013-06-11 01:20:00,71.2,70.3,31.01,SW,218,2.7,2.7,97,0.00,,,0.00,VWS V14.01,2013-06-11 05:20:00,
2013-06-11 01:21:00,71.2,70.3,31.01,SSE,153,5.4,5.4,97,0.00,,,0.00,VWS V14.01,2013-06-11 05:21:00,
2013-06-11 01:22:00,71.2,70.3,31.01,SSE,163,2.2,5.4,97,0.00,,,0.00,VWS V14.01,2013-06-11 05:22:00,
2013-06-11 01:23:00,71.2,70.3,31.01,SW,220,2.2,2.7,97,0.00,,,0.00,VWS V14.01,2013-06-11 05:23:00,
2013-06-11 01:24:00,71.2,70.3,31.01,SW,220,2.2,2.2,97,0.00,,,0.00,VWS V14.01,2013-06-11 05:24:00,
2013-06-11 01:25:00,71.2,70.3,31.01,SW,220,2.2,2.2,97,0.00,,,0.00,VWS V14.01,2013-06-11 05:25:00,
2013-06-11 01:26:00,71.2,70.3,31.01,South,184,0.0,2.7,97,0.00,,,0.00,VWS V14.01,2013-06-11 05:26:00,
2013-06-11 01:27:00,71.2,70.3,31.01,South,186,3.1,3.1,97,0.00,,,0.00,VWS V14.01,2013-06-11 05:27:00,
2013-06-11 01:28:00,71.2,70.3,31.01,South,186,3.1,3.1,97,0.00,,,0.00,VWS V14.01,2013-06-11 05:28:00,
2013-06-11 01:29:00,71.2,70.3,31.01,WSW,244,2.7,3.1,97,0.00,,,0.00,VWS V14.01,2013-06-11 05:29:00,
2013-06-11 01:30:00,71.2,70.3,31.01,WSW,244,2.7,2.7,97,0.00,,,0.00,VWS V14.01,2013-06-11 05:30:00,
2013-06-11 01:31:00,71.2,70.3,31.01,SSW,204,4.9,4.9,97,0.00,,,0.00,VWS V14.01,2013-06-11 05:31:00,
2013-06-11 01:32:00,71.2,70.3,31.01,SSW,204,0.0,4.9,97,0.00,,,0.00,VWS V14.01,2013-06-11 05:32:00,
2013-06-11 01:33:00,71.2,70.3,31.01,WSW,240,3.6,4.5,97,0.00,,,0.00,VWS V14.01,2013-06-11 05:33:00,
2013-06-11 01:34:00,71.2,70.3,31.01,WSW,240,3.6,3.6,97,0.00,,,0.00,VWS V14.01,2013-06-11 05:34:00,
2013-06-11 01:35:00,71.2,70.3,31.01,South,181,3.6,3.6,97,0.00,,,0.00,VWS V14.01,2013-06-11 05:35:00,
2013-06-11 01:36:00,71.2,70.3,31.01,SSW,209,3.1,4.9,97,0.00,,,0.00,VWS V14.01,2013-06-11 05:36:00,
2013-06-11 01:37:00,71.2,70.3,31.01,SSW,209,3.1,3.1,97,0.00,,,0.00,VWS V14.01,2013-06-11 05:37:00,
2013-06-11 01:38:00,71.2,70.3,31.01,South,180,2.2,3.1,97,0.00,,,0.00,VWS V14.01,2013-06-11 05:38:00,
2013-06-11 01:39:00,71.2,70.3,31.01,South,180,2.2,2.2,97,0.00,,,0.00,VWS V14.01,2013-06-11 05:39:00,
2013-06-11 01:40:00,71.2,70.3,31.01,South,183,5.8,5.8,97,0.00,,,0.00,VWS V14.01,2013-06-11 05:40:00,
2013-06-11 01:41:00,71.2,70.3,31.01,South,186,2.2,5.8,97,0.00,,,0.00,VWS V14.01,2013-06-11 05:41:00,
2013-06-11 01:42:00,71.2,70.3,31.01,South,186,2.2,2.2,97,0.00,,,0.00,VWS V14.01,2013-06-11 05:42:00,
2013-06-11 01:43:00,71.2,70.3,31.01,SW,224,0.0,2.2,97,0.00,,,0.00,VWS V14.01,2013-06-11 05:43:00,
2013-06-11 01:44:00,71.2,70.3,31.01,SSE,159,2.7,3.1,97,0.00,,,0.00,VWS V14.01,2013-06-11 05:44:00,
2013-06-11 01:45:00,71.2,70.3,31.01,SSW,207,3.6,3.6,97,0.00,,,0.00,VWS V14.01,2013-06-11 05:45:00,
2013-06-11 01:46:00,71.2,70.3,31.01,South,176,0.0,3.6,97,0.00,,,0.00,VWS V14.01,2013-06-11 05:46:00,
2013-06-11 01:47:00,71.2,70.3,31.01,South,176,0.0,0.0,97,0.00,,,0.00,VWS V14.01,2013-06-11 05:47:00,
2013-06-11 01:48:00,71.2,70.3,31.01,SSW,201,2.7,2.7,97,0.00,,,0.00,VWS V14.01,2013-06-11 05:48:00,
2013-06-11 01:49:00,71.0,70.1,31.01,South,169,5.4,5.4,97,0.00,,,0.00,VWS V14.01,2013-06-11 05:49:00,
2013-06-11 01:50:00,71.0,70.1,31.01,South,169,5.4,5.4,97,0.00,,,0.00,VWS V14.01,2013-06-11 05:50:00,
2013-06-11 01:51:00,71.0,70.1,31.01,SSE,166,6.3,6.3,97,0.00,,,0.00,VWS V14.01,2013-06-11 05:51:00,
2013-06-11 01:52:00,71.0,70.1,31.01,SSW,192,3.6,6.3,97,0.00,,,0.00,VWS V14.01,2013-06-11 05:52:00,
2013-06-11 01:53:00,71.0,70.1,31.01,SSW,192,0.0,3.6,97,0.00,,,0.00,VWS V14.01,2013-06-11 05:53:00,
2013-06-11 01:54:00,71.0,70.1,31.01,SSW,192,0.0,0.0,97,0.00,,,0.00,VWS V14.01,2013-06-11 05:54:00,
2013-06-11 01:55:00,71.0,70.1,31.01,South,191,3.1,3.1,97,0.00,,,0.00,VWS V14.01,2013-06-11 05:55:00,
2013-06-11 01:56:00,71.0,70.1,31.01,SSE,150,5.8,5.8,97,0.00,,,0.00,VWS V14.01,2013-06-11 05:56:00,
2013-06-11 01:57:00,71.0,70.1,31.01,South,182,5.8,5.8,97,0.00,,,0.00,VWS V14.01,2013-06-11 05:57:00,
2013-06-11 01:58:00,71.0,70.1,31.01,SSW,196,4.0,5.8,97,0.00,,,0.00,VWS V14.01,2013-06-11 05:58:00,
2013-06-11 01:59:00,71.0,70.1,31.01,SSW,196,4.0,4.0,97,0.00,,,0.00,VWS V14.01,2013-06-11 05:59:00,
2013-06-11 02:00:00,71.0,70.1,31.01,SW,222,2.7,5.8,97,0.00,,,0.00,VWS V14.01,2013-06-11 06:00:00,
2013-06-11 02:01:00,71.0,70.1,31.01,SW,222,2.7,5.8,97,0.00,,,0.00,VWS V14.01,2013-06-11 06:01:00,
2013-06-11 02:02:00,71.0,70.1,31.01,SW,215,0.0,2.7,97,0.00,,,0.00,VWS V14.01,2013-06-11 06:02:00,
2013-06-11 02:03:00,71.0,70.1,31.01,SW,215,0.0,0.0,97,0.00,,,0.00,VWS V14.01,2013-06-11 06:03:00,
2013-06-11 02:04:00,71.0,70.1,31.01,South,176,4.0,4.0,97,0.00,,,0.00,VWS V14.01,2013-06-11 06:04:00,
2013-06-11 02:05:00,71.0,70.1,31.01,South,187,3.1,4.0,97,0.00,,,0.00,VWS V14.01,2013-06-11 06:05:00,
2013-06-11 02:06:00,71.0,70.1,31.01,South,187,3.1,4.0,97,0.00,,,0.00,VWS V14.01,2013-06-11 06:06:00,
2013-06-11 02:07:00,71.0,70.1,31.01,SW,226,2.2,5.8,97,0.00,,,0.00,VWS V14.01,2013-06-11 06:07:00,
2013-06-11 02:08:00,71.0,70.1,31.01,SW,226,2.2,2.2,97,0.00,,,0.00,VWS V14.01,2013-06-11 06:08:00,
2013-06-11 02:09:00,71.0,70.1,31.01,SW,219,2.7,2.7,97,0.00,,,0.00,VWS V14.01,2013-06-11 06:09:00,
2013-06-11 02:10:00,71.0,70.1,31.01,SSE,159,2.2,2.7,97,0.00,,,0.00,VWS V14.01,2013-06-11 06:10:00,
2013-06-11 02:11:00,71.0,70.1,31.01,SE,142,2.7,3.1,97,0.00,,,0.00,VWS V14.01,2013-06-11 06:11:00,
2013-06-11 02:12:00,71.0,70.1,31.01,SE,142,2.7,2.7,97,0.00,,,0.00,VWS V14.01,2013-06-11 06:12:00,
2013-06-11 02:13:00,71.0,70.1,31.01,SSW,206,0.0,2.7,97,0.00,,,0.00,VWS V14.01,2013-06-11 06:13:00,
2013-06-11 02:14:00,71.2,70.3,31.01,WSW,246,0.0,0.0,97,0.00,,,0.00,VWS V14.01,2013-06-11 06:14:00,
2013-06-11 02:15:00,71.2,70.3,31.01,SW,223,0.0,0.0,97,0.00,,,0.00,VWS V14.01,2013-06-11 06:15:00,
2013-06-11 02:16:00,71.2,70.3,31.01,SW,223,0.0,0.0,97,0.00,,,0.00,VWS V14.01,2013-06-11 06:16:00,
2013-06-11 02:17:00,71.2,70.3,31.01,SW,223,0.0,0.0,97,0.00,,,0.00,VWS V14.01,2013-06-11 06:17:00,
2013-06-11 02:18:00,71.2,70.3,31.01,SSE,151,3.6,3.6,97,0.00,,,0.00,VWS V14.01,2013-06-11 06:18:00,
2013-06-11 02:19:00,71.2,70.3,31.01,SSE,152,2.2,3.6,97,0.00,,,0.00,VWS V14.01,2013-06-11 06:19:00,
2013-06-11 02:20:00,71.2,70.3,31.01,WSW,242,0.0,0.0,97,0.00,,,0.00,VWS V14.01,2013-06-11 06:20:00,
2013-06-11 02:21:00,71.2,70.3,31.01,WSW,240,0.0,0.0,97,0.00,,,0.00,VWS V14.01,2013-06-11 06:21:00,
2013-06-11 02:22:00,71.2,70.3,31.01,SSW,209,0.0,0.0,97,0.00,,,0.00,VWS V14.01,2013-06-11 06:22:00,
2013-06-11 02:23:00,71.2,70.3,31.01,South,179,0.0,3.1,97,0.00,,,0.00,VWS V14.01,2013-06-11 06:23:00,
2013-06-11 02:24:00,71.2,70.3,31.01,SW,231,3.1,3.1,97,0.00,,,0.00,VWS V14.01,2013-06-11 06:24:00,
2013-06-11 02:25:00,71.2,70.3,31.01,South,187,2.7,2.7,97,0.00,,,0.00,VWS V14.01,2013-06-11 06:25:00,
2013-06-11 02:26:00,71.2,70.3,31.01,South,185,4.9,4.9,97,0.00,,,0.00,VWS V14.01,2013-06-11 06:26:00,
2013-06-11 02:27:00,71.2,70.3,31.01,South,185,4.9,4.9,97,0.00,,,0.00,VWS V14.01,2013-06-11 06:27:00,
2013-06-11 02:28:00,71.2,70.3,31.01,South,186,2.7,4.9,97,0.00,,,0.00,VWS V14.01,2013-06-11 06:28:00,
2013-06-11 02:29:00,71.2,70.3,31.01,SSW,198,0.0,2.7,97,0.00,,,0.00,VWS V14.01,2013-06-11 06:29:00,
2013-06-11 02:30:00,71.2,70.3,31.01,SW,216,0.0,0.0,97,0.00,,,0.00,VWS V14.01,2013-06-11 06:30:00,
2013-06-11 02:31:00,71.2,70.3,31.01,SW,216,0.0,0.0,97,0.00,,,0.00,VWS V14.01,2013-06-11 06:31:00,
2013-06-11 02:32:00,71.2,70.3,31.01,WSW,238,2.7,2.7,97,0.00,,,0.00,VWS V14.01,2013-06-11 06:32:00,
2013-06-11 02:33:00,71.2,70.3,31.01,WSW,238,0.0,2.7,97,0.00,,,0.00,VWS V14.01,2013-06-11 06:33:00,
2013-06-11 02:34:00,71.2,70.3,31.01,WSW,238,0.0,0.0,97,0.00,,,0.00,VWS V14.01,2013-06-11 06:34:00,
2013-06-11 02:35:00,71.2,70.3,31.01,SW,234,0.0,0.0,97,0.00,,,0.00,VWS V14.01,2013-06-11 06:35:00,
2013-06-11 02:36:00,71.2,70.3,31.01,SW,234,0.0,0.0,97,0.00,,,0.00,VWS V14.01,2013-06-11 06:36:00,
2013-06-11 02:37:00,71.2,70.3,31.01,SSE,161,0.0,3.1,97,0.00,,,0.00,VWS V14.01,2013-06-11 06:37:00,
2013-06-11 02:38:00,71.2,70.3,31.01,SSE,161,0.0,0.0,97,0.00,,,0.00,VWS V14.01,2013-06-11 06:38:00,
2013-06-11 02:39:00,71.2,70.3,31.01,WSW,243,2.2,2.2,97,0.00,,,0.00,VWS V14.01,2013-06-11 06:39:00,
2013-06-11 02:40:00,71.2,70.3,31.01,WSW,238,4.0,4.0,97,0.00,,,0.00,VWS V14.01,2013-06-11 06:40:00,
2013-06-11 02:41:00,71.2,70.3,31.01,WSW,238,4.0,4.0,97,0.00,,,0.00,VWS V14.01,2013-06-11 06:41:00,
2013-06-11 02:42:00,71.2,70.3,31.01,WSW,253,0.0,0.0,97,0.00,,,0.00,VWS V14.01,2013-06-11 06:42:00,
2013-06-11 02:43:00,71.2,70.3,31.01,WSW,253,0.0,0.0,97,0.00,,,0.00,VWS V14.01,2013-06-11 06:43:00,
2013-06-11 02:44:00,71.2,70.3,31.01,WSW,253,0.0,0.0,97,0.00,,,0.00,VWS V14.01,2013-06-11 06:44:00,
2013-06-11 02:45:00,71.2,70.3,31.01,WSW,253,0.0,0.0,97,0.00,,,0.00,VWS V14.01,2013-06-11 06:45:00,
2013-06-11 02:46:00,71.2,70.3,31.01,WSW,253,0.0,0.0,97,0.00,,,0.00,VWS V14.01,2013-06-11 06:46:00,
2013-06-11 02:47:00,71.2,70.3,31.01,SSW,195,0.0,0.0,97,0.00,,,0.00,VWS V14.01,2013-06-11 06:47:00,
2013-06-11 02:48:00,71.2,70.3,31.01,SW,225,0.0,0.0,97,0.00,,,0.00,VWS V14.01,2013-06-11 06:48:00,
2013-06-11 02:49:00,71.0,70.1,31.01,SW,229,3.1,3.1,97,0.00,,,0.00,VWS V14.01,2013-06-11 06:49:00,
2013-06-11 02:50:00,71.0,70.1,31.01,SW,231,3.6,3.6,97,0.00,,,0.00,VWS V14.01,2013-06-11 06:50:00,
2013-06-11 02:51:00,71.0,70.1,31.01,SW,231,3.6,3.6,97,0.00,,,0.00,VWS V14.01,2013-06-11 06:51:00,
2013-06-11 02:52:00,71.0,70.1,31.01,SW,232,0.0,3.6,97,0.00,,,0.00,VWS V14.01,2013-06-11 06:52:00,
2013-06-11 02:53:00,71.0,70.1,31.01,South,185,0.0,0.0,97,0.00,,,0.00,VWS V14.01,2013-06-11 06:53:00,
2013-06-11 02:54:00,71.0,70.1,31.01,SSW,205,0.0,0.0,97,0.00,,,0.00,VWS V14.01,2013-06-11 06:54:00,
2013-06-11 02:55:00,71.0,70.1,31.01,SSW,205,0.0,0.0,97,0.00,,,0.00,VWS V14.01,2013-06-11 06:55:00,
2013-06-11 02:56:00,71.0,70.1,31.01,SSW,201,0.0,0.0,97,0.00,,,0.00,VWS V14.01,2013-06-11 06:56:00,
2013-06-11 02:57:00,71.0,70.1,31.01,South,180,0.0,0.0,97,0.00,,,0.00,VWS V14.01,2013-06-11 06:57:00,
2013-06-11 02:58:00,71.0,70.1,31.01,South,180,0.0,0.0,97,0.00,,,0.00,VWS V14.01,2013-06-11 06:58:00,
2013-06-11 02:59:00,71.0,70.1,31.01,SW,218,0.0,0.0,97,0.00,,,0.00,VWS V14.01,2013-06-11 06:59:00,
2013-06-11 03:00:00,71.0,70.1,31.01,SW,218,0.0,0.0,97,0.00,,,0.00,VWS V14.01,2013-06-11 07:00:00,
2013-06-11 03:01:00,70.8,69.9,31.01,SW,218,0.0,0.0,97,0.00,,,0.00,VWS V14.01,2013-06-11 07:01:00,
2013-06-11 03:02:00,70.8,69.9,31.01,SW,218,0.0,0.0,97,0.00,,,0.00,VWS V14.01,2013-06-11 07:02:00,
2013-06-11 03:03:00,70.8,69.9,31.01,SSE,164,0.0,0.0,97,0.00,,,0.00,VWS V14.01,2013-06-11 07:03:00,
2013-06-11 03:04:00,70.8,69.6,31.01,SSE,164,0.0,0.0,96,0.00,,,0.00,VWS V14.01,2013-06-11 07:04:00,
2013-06-11 03:05:00,70.8,69.6,31.01,SSE,164,0.0,0.0,96,0.00,,,0.00,VWS V14.01,2013-06-11 07:05:00,
2013-06-11 03:06:00,70.8,69.6,31.01,WSW,239,0.0,0.0,96,0.00,,,0.00,VWS V14.01,2013-06-11 07:06:00,
2013-06-11 03:07:00,70.8,69.6,31.01,SW,236,3.6,3.6,96,0.00,,,0.00,VWS V14.01,2013-06-11 07:07:00,
2013-06-11 03:08:00,70.8,69.6,31.01,WSW,245,2.7,3.6,96,0.00,,,0.00,VWS V14.01,2013-06-11 07:08:00,
2013-06-11 03:09:00,70.8,69.6,31.01,WSW,245,0.0,2.7,96,0.00,,,0.00,VWS V14.01,2013-06-11 07:09:00,
2013-06-11 03:10:00,70.8,69.6,31.01,South,182,2.7,2.7,96,0.00,,,0.00,VWS V14.01,2013-06-11 07:10:00,
2013-06-11 03:11:00,70.8,69.6,31.01,SSW,209,0.0,2.7,96,0.00,,,0.00,VWS V14.01,2013-06-11 07:11:00,
2013-06-11 03:12:00,70.8,69.6,31.01,SSW,209,0.0,0.0,96,0.00,,,0.00,VWS V14.01,2013-06-11 07:12:00,
2013-06-11 03:13:00,70.8,69.6,31.01,SSW,209,0.0,0.0,96,0.00,,,0.00,VWS V14.01,2013-06-11 07:13:00,
2013-06-11 03:14:00,70.8,69.6,31.01,SSW,209,0.0,0.0,96,0.00,,,0.00,VWS V14.01,2013-06-11 07:14:00,
2013-06-11 03:15:00,70.8,69.6,31.01,SE,137,0.0,0.0,96,0.00,,,0.00,VWS V14.01,2013-06-11 07:15:00,
2013-06-11 03:16:00,70.8,69.6,31.01,SE,137,0.0,0.0,96,0.00,,,0.00,VWS V14.01,2013-06-11 07:16:00,
2013-06-11 03:17:00,70.8,69.6,31.01,South,182,0.0,0.0,96,0.00,,,0.00,VWS V14.01,2013-06-11 07:17:00,
2013-06-11 03:18:00,70.8,69.6,31.01,SW,229,0.0,0.0,96,0.00,,,0.00,VWS V14.01,2013-06-11 07:18:00,
2013-06-11 03:19:00,70.6,69.7,31.01,SW,229,0.0,0.0,97,0.00,,,0.00,VWS V14.01,2013-06-11 07:19:00,
2013-06-11 03:20:00,70.6,69.7,31.01,WSW,238,0.0,0.0,97,0.00,,,0.00,VWS V14.01,2013-06-11 07:20:00,
2013-06-11 03:21:00,70.6,69.7,31.01,WSW,249,0.0,0.0,97,0.00,,,0.00,VWS V14.01,2013-06-11 07:21:00,
2013-06-11 03:22:00,70.6,69.4,31.01,WSW,249,0.0,0.0,96,0.00,,,0.00,VWS V14.01,2013-06-11 07:22:00,
2013-06-11 03:23:00,70.6,69.4,31.01,WSW,249,0.0,0.0,96,0.00,,,0.00,VWS V14.01,2013-06-11 07:23:00,
2013-06-11 03:24:00,70.6,69.4,31.01,WSW,242,0.0,0.0,96,0.00,,,0.00,VWS V14.01,2013-06-11 07:24:00,
2013-06-11 03:25:00,70.6,69.4,31.01,WSW,240,0.0,0.0,96,0.00,,,0.00,VWS V14.01,2013-06-11 07:25:00,
2013-06-11 03:26:00,70.6,69.4,31.01,WSW,240,0.0,0.0,96,0.00,,,0.00,VWS V14.01,2013-06-11 07:26:00,
2013-06-11 03:27:00,70.6,69.4,31.01,WSW,240,0.0,0.0,96,0.00,,,0.00,VWS V14.01,2013-06-11 07:27:00,
2013-06-11 03:28:00,70.6,69.4,31.01,SE,131,0.0,0.0,96,0.00,,,0.00,VWS V14.01,2013-06-11 07:28:00,
2013-06-11 03:29:00,70.6,69.4,31.01,SE,131,0.0,0.0,96,0.00,,,0.00,VWS V14.01,2013-06-11 07:29:00,
2013-06-11 03:30:00,70.6,69.4,31.01,East,93,0.0,0.0,96,0.00,,,0.00,VWS V14.01,2013-06-11 07:30:00,
2013-06-11 03:31:00,70.6,69.4,31.01,East,93,0.0,0.0,96,0.00,,,0.00,VWS V14.01,2013-06-11 07:31:00,
2013-06-11 03:32:00,70.6,69.4,31.01,SW,226,0.0,0.0,96,0.00,,,0.00,VWS V14.01,2013-06-11 07:32:00,
2013-06-11 03:33:00,70.6,69.4,31.01,SW,226,0.0,0.0,96,0.00,,,0.00,VWS V14.01,2013-06-11 07:33:00,
2013-06-11 03:34:00,70.6,69.4,31.01,SW,226,0.0,0.0,96,0.00,,,0.00,VWS V14.01,2013-06-11 07:34:00,
2013-06-11 03:35:00,70.6,69.4,31.01,South,186,0.0,2.2,96,0.00,,,0.00,VWS V14.01,2013-06-11 07:35:00,
2013-06-11 03:36:00,70.6,69.4,31.01,South,186,0.0,0.0,96,0.00,,,0.00,VWS V14.01,2013-06-11 07:36:00,
2013-06-11 03:37:00,70.6,69.4,31.01,South,186,0.0,0.0,96,0.00,,,0.00,VWS V14.01,2013-06-11 07:37:00,
2013-06-11 03:38:00,70.6,69.4,31.01,SSW,193,0.0,0.0,96,0.00,,,0.00,VWS V14.01,2013-06-11 07:38:00,
2013-06-11 03:39:00,70.6,69.4,31.01,SW,230,0.0,0.0,96,0.00,,,0.00,VWS V14.01,2013-06-11 07:39:00,
2013-06-11 03:40:00,70.6,69.4,31.01,SW,230,0.0,0.0,96,0.00,,,0.00,VWS V14.01,2013-06-11 07:40:00,
2013-06-11 03:41:00,70.6,69.4,31.01,SW,232,2.2,2.2,96,0.00,,,0.00,VWS V14.01,2013-06-11 07:41:00,
2013-06-11 03:42:00,70.6,69.4,31.01,SW,217,0.0,2.2,96,0.00,,,0.00,VWS V14.01,2013-06-11 07:42:00,
2013-06-11 03:43:00,70.6,69.4,31.01,SW,217,0.0,0.0,96,0.00,,,0.00,VWS V14.01,2013-06-11 07:43:00,
2013-06-11 03:44:00,70.6,69.4,31.01,SW,217,0.0,0.0,96,0.00,,,0.00,VWS V14.01,2013-06-11 07:44:00,
2013-06-11 03:45:00,70.6,69.4,31.01,SW,222,3.1,3.1,96,0.00,,,0.00,VWS V14.01,2013-06-11 07:45:00,
2013-06-11 03:46:00,70.6,69.4,31.01,WSW,246,5.8,5.8,96,0.00,,,0.00,VWS V14.01,2013-06-11 07:46:00,
2013-06-11 03:47:00,70.6,69.4,31.01,WSW,250,2.7,5.8,96,0.00,,,0.00,VWS V14.01,2013-06-11 07:47:00,
2013-06-11 03:48:00,70.6,69.4,31.01,SSW,192,3.1,3.1,96,0.00,,,0.00,VWS V14.01,2013-06-11 07:48:00,
2013-06-11 03:49:00,70.6,69.4,31.01,SW,233,3.1,3.1,96,0.00,,,0.00,VWS V14.01,2013-06-11 07:49:00,
2013-06-11 03:50:00,70.6,69.4,31.01,SW,233,3.1,3.1,96,0.00,,,0.00,VWS V14.01,2013-06-11 07:50:00,
2013-06-11 03:51:00,70.6,69.4,31.01,SW,233,0.0,3.1,96,0.00,,,0.00,VWS V14.01,2013-06-11 07:51:00,
2013-06-11 03:52:00,70.6,69.4,31.01,South,187,3.1,3.1,96,0.00,,,0.00,VWS V14.01,2013-06-11 07:52:00,
2013-06-11 03:53:00,70.6,69.4,31.01,SSW,210,0.0,3.1,96,0.00,,,0.00,VWS V14.01,2013-06-11 07:53:00,
2013-06-11 03:54:00,70.6,69.4,31.01,WSW,254,2.7,2.7,96,0.00,,,0.00,VWS V14.01,2013-06-11 07:54:00,
2013-06-11 03:55:00,70.6,69.4,31.01,SSW,208,4.0,4.0,96,0.00,,,0.00,VWS V14.01,2013-06-11 07:55:00,
2013-06-11 03:56:00,70.6,69.4,31.01,West,268,0.0,4.0,96,0.00,,,0.00,VWS V14.01,2013-06-11 07:56:00,
2013-06-11 03:57:00,70.6,69.4,31.01,West,264,0.0,0.0,96,0.00,,,0.00,VWS V14.01,2013-06-11 07:57:00,
2013-06-11 03:58:00,70.6,69.4,31.01,SW,233,0.0,0.0,96,0.00,,,0.00,VWS V14.01,2013-06-11 07:58:00,
2013-06-11 03:59:00,70.6,69.4,31.01,SW,228,3.6,4.5,96,0.00,,,0.00,VWS V14.01,2013-06-11 07:59:00,
2013-06-11 04:00:00,70.6,69.4,31.01,South,180,0.0,3.6,96,0.00,,,0.00,VWS V14.01,2013-06-11 08:00:00,
2013-06-11 04:01:00,70.6,69.4,31.01,South,180,0.0,0.0,96,0.00,,,0.00,VWS V14.01,2013-06-11 08:01:00,
2013-06-11 04:02:00,70.6,69.4,31.01,SW,214,0.0,0.0,96,0.00,,,0.00,VWS V14.01,2013-06-11 08:02:00,
2013-06-11 04:03:00,70.6,69.4,31.01,SW,215,0.0,0.0,96,0.00,,,0.00,VWS V14.01,2013-06-11 08:03:00,
2013-06-11 04:04:00,70.6,69.4,31.01,SW,215,0.0,0.0,96,0.00,,,0.00,VWS V14.01,2013-06-11 08:04:00,
2013-06-11 04:05:00,70.6,69.4,31.01,West,277,0.0,0.0,96,0.00,,,0.00,VWS V14.01,2013-06-11 08:05:00,
2013-06-11 04:06:00,70.6,69.4,31.01,West,280,0.0,0.0,96,0.00,,,0.00,VWS V14.01,2013-06-11 08:06:00,
2013-06-11 04:07:00,70.6,69.4,31.01,West,280,0.0,0.0,96,0.00,,,0.00,VWS V14.01,2013-06-11 08:07:00,
2013-06-11 04:08:00,70.6,69.4,31.01,SW,229,2.2,2.2,96,0.00,,,0.00,VWS V14.01,2013-06-11 08:08:00,
2013-06-11 04:09:00,70.6,69.4,31.01,SSW,207,0.0,2.2,96,0.00,,,0.00,VWS V14.01,2013-06-11 08:09:00,
2013-06-11 04:10:00,70.6,69.4,31.01,SW,227,2.2,2.2,96,0.00,,,0.00,VWS V14.01,2013-06-11 08:10:00,
2013-06-11 04:11:00,70.6,69.4,31.01,ENE,70,0.0,2.2,96,0.00,,,0.00,VWS V14.01,2013-06-11 08:11:00,
2013-06-11 04:12:00,70.6,69.4,31.01,ENE,70,0.0,0.0,96,0.00,,,0.00,VWS V14.01,2013-06-11 08:12:00,
2013-06-11 04:13:00,70.6,69.4,31.01,West,275,0.0,4.9,96,0.00,,,0.00,VWS V14.01,2013-06-11 08:13:00,
2013-06-11 04:14:00,70.4,69.2,31.01,West,275,0.0,0.0,96,0.00,,,0.00,VWS V14.01,2013-06-11 08:14:00,
2013-06-11 04:15:00,70.4,69.2,31.01,SW,221,4.0,4.0,96,0.00,,,0.00,VWS V14.01,2013-06-11 08:15:00,
2013-06-11 04:16:00,70.4,69.2,31.01,SE,138,2.2,4.0,96,0.00,,,0.00,VWS V14.01,2013-06-11 08:16:00,
2013-06-11 04:17:00,70.4,69.2,31.01,SW,223,0.0,2.2,96,0.00,,,0.00,VWS V14.01,2013-06-11 08:17:00,
2013-06-11 04:18:00,70.4,69.2,31.01,SW,223,0.0,0.0,96,0.00,,,0.00,VWS V14.01,2013-06-11 08:18:00,
2013-06-11 04:19:00,70.4,69.2,31.01,SW,223,0.0,0.0,96,0.00,,,0.00,VWS V14.01,2013-06-11 08:19:00,
2013-06-11 04:20:00,70.4,69.2,31.01,SSW,196,0.0,0.0,96,0.00,,,0.00,VWS V14.01,2013-06-11 08:20:00,
2013-06-11 04:21:00,70.4,69.2,31.01,SSW,196,0.0,0.0,96,0.00,,,0.00,VWS V14.01,2013-06-11 08:21:00,
2013-06-11 04:22:00,70.4,69.2,31.01,SW,231,0.0,0.0,96,0.00,,,0.00,VWS V14.01,2013-06-11 08:22:00,
2013-06-11 04:23:00,70.4,69.2,31.01,SW,231,0.0,0.0,96,0.00,,,0.00,VWS V14.01,2013-06-11 08:23:00,
2013-06-11 04:24:00,70.3,68.8,31.01,WNW,291,0.0,0.0,95,0.00,,,0.00,VWS V14.01,2013-06-11 08:24:00,
2013-06-11 04:25:00,70.3,68.8,31.01,WNW,291,0.0,0.0,95,0.00,,,0.00,VWS V14.01,2013-06-11 08:25:00,
2013-06-11 04:26:00,70.3,68.8,31.01,WNW,291,0.0,0.0,95,0.00,,,0.00,VWS V14.01,2013-06-11 08:26:00,
2013-06-11 04:27:00,70.3,68.8,31.01,SW,225,0.0,4.0,95,0.00,,,0.00,VWS V14.01,2013-06-11 08:27:00,
2013-06-11 04:28:00,70.3,68.8,31.01,SW,225,0.0,0.0,95,0.00,,,0.00,VWS V14.01,2013-06-11 08:28:00,
2013-06-11 04:29:00,70.3,68.8,31.01,SW,225,0.0,0.0,95,0.00,,,0.00,VWS V14.01,2013-06-11 08:29:00,
2013-06-11 04:30:00,70.1,68.6,31.01,SW,225,0.0,0.0,95,0.00,,,0.00,VWS V14.01,2013-06-11 08:30:00,
2013-06-11 04:31:00,70.1,68.6,31.01,South,190,0.0,0.0,95,0.00,,,0.00,VWS V14.01,2013-06-11 08:31:00,
2013-06-11 04:32:00,70.1,68.6,31.01,South,190,0.0,0.0,95,0.00,,,0.00,VWS V14.01,2013-06-11 08:32:00,
2013-06-11 04:33:00,70.1,68.6,31.01,ENE,74,0.0,0.0,95,0.00,,,0.00,VWS V14.01,2013-06-11 08:33:00,
2013-06-11 04:34:00,70.1,68.6,31.01,ENE,74,0.0,0.0,95,0.00,,,0.00,VWS V14.01,2013-06-11 08:34:00,
2013-06-11 04:35:00,70.1,68.6,31.01,SSW,211,3.6,3.6,95,0.00,,,0.00,VWS V14.01,2013-06-11 08:35:00,
2013-06-11 04:36:00,69.9,68.4,31.01,SW,216,3.1,3.6,95,0.00,,,0.00,VWS V14.01,2013-06-11 08:36:00,
2013-06-11 04:37:00,69.9,68.4,31.01,SW,216,0.0,3.1,95,0.00,,,0.00,VWS V14.01,2013-06-11 08:37:00,
2013-06-11 04:38:00,69.9,68.4,31.01,SW,216,0.0,0.0,95,0.00,,,0.00,VWS V14.01,2013-06-11 08:38:00,
2013-06-11 04:39:00,69.9,68.4,31.01,SW,216,0.0,0.0,95,0.00,,,0.00,VWS V14.01,2013-06-11 08:39:00,
2013-06-11 04:40:00,69.9,68.4,31.01,SW,216,0.0,0.0,95,0.00,,,0.00,VWS V14.01,2013-06-11 08:40:00,
2013-06-11 04:41:00,69.9,68.4,31.01,SW,236,0.0,0.0,95,0.00,,,0.00,VWS V14.01,2013-06-11 08:41:00,
2013-06-11 04:42:00,69.9,68.4,31.01,SW,236,0.0,0.0,95,0.00,,,0.00,VWS V14.01,2013-06-11 08:42:00,
2013-06-11 04:43:00,69.9,68.4,31.01,SW,236,0.0,0.0,95,0.00,,,0.00,VWS V14.01,2013-06-11 08:43:00,
2013-06-11 04:44:00,69.9,68.4,31.01,SW,236,0.0,0.0,95,0.00,,,0.00,VWS V14.01,2013-06-11 08:44:00,
2013-06-11 04:45:00,69.7,67.9,31.01,SW,236,0.0,0.0,94,0.00,,,0.00,VWS V14.01,2013-06-11 08:45:00,
2013-06-11 04:46:00,69.7,67.9,31.01,SW,236,0.0,0.0,94,0.00,,,0.00,VWS V14.01,2013-06-11 08:46:00,
2013-06-11 04:47:00,69.7,67.9,31.01,SW,236,0.0,0.0,94,0.00,,,0.00,VWS V14.01,2013-06-11 08:47:00,
2013-06-11 04:48:00,69.7,67.9,31.01,SW,236,0.0,0.0,94,0.00,,,0.00,VWS V14.01,2013-06-11 08:48:00,
2013-06-11 04:49:00,69.7,67.9,31.01,SW,236,0.0,0.0,94,0.00,,,0.00,VWS V14.01,2013-06-11 08:49:00,
2013-06-11 04:50:00,69.7,67.9,31.01,WSW,257,3.1,3.1,94,0.00,,,0.00,VWS V14.01,2013-06-11 08:50:00,
2013-06-11 04:51:00,69.7,67.9,31.01,WSW,247,0.0,3.1,94,0.00,,,0.00,VWS V14.01,2013-06-11 08:51:00,
2013-06-11 04:52:00,69.7,67.9,31.01,WSW,247,0.0,0.0,94,0.00,,,0.00,VWS V14.01,2013-06-11 08:52:00,
2013-06-11 04:53:00,69.7,67.9,31.01,WSW,247,0.0,0.0,94,0.00,,,0.00,VWS V14.01,2013-06-11 08:53:00,
2013-06-11 04:54:00,69.7,67.9,31.01,WSW,247,0.0,0.0,94,0.00,,,0.00,VWS V14.01,2013-06-11 08:54:00,
2013-06-11 04:55:00,69.5,67.7,31.01,WSW,247,0.0,0.0,94,0.00,,,0.00,VWS V14.01,2013-06-11 08:55:00,
2013-06-11 04:56:00,69.5,67.7,31.01,WSW,247,0.0,0.0,94,0.00,,,0.00,VWS V14.01,2013-06-11 08:56:00,
2013-06-11 04:57:00,69.5,67.7,31.01,WSW,247,0.0,0.0,94,0.00,,,0.00,VWS V14.01,2013-06-11 08:57:00,
2013-06-11 04:58:00,69.5,67.7,31.01,WSW,247,0.0,0.0,94,0.00,,,0.00,VWS V14.01,2013-06-11 08:58:00,
2013-06-11 04:59:00,69.5,67.7,31.01,WSW,247,0.0,0.0,94,0.00,,,0.00,VWS V14.01,2013-06-11 08:59:00,
2013-06-11 05:00:00,69.5,67.7,31.01,WSW,247,0.0,0.0,94,0.00,,,0.00,VWS V14.01,2013-06-11 09:00:00,
2013-06-11 05:01:00,69.5,67.7,31.01,WSW,247,0.0,0.0,94,0.00,,,0.00,VWS V14.01,2013-06-11 09:01:00,
2013-06-11 05:02:00,69.4,67.6,31.01,WSW,247,0.0,0.0,94,0.00,,,0.00,VWS V14.01,2013-06-11 09:02:00,
2013-06-11 05:03:00,69.4,67.6,31.01,WSW,247,0.0,0.0,94,0.00,,,0.00,VWS V14.01,2013-06-11 09:03:00,
2013-06-11 05:04:00,69.4,67.6,31.01,WSW,247,0.0,0.0,94,0.00,,,0.00,VWS V14.01,2013-06-11 09:04:00,
2013-06-11 05:05:00,69.4,67.6,31.01,WSW,247,0.0,0.0,94,0.00,,,0.00,VWS V14.01,2013-06-11 09:05:00,
2013-06-11 05:06:00,69.4,67.6,31.01,WSW,247,0.0,0.0,94,0.00,,,0.00,VWS V14.01,2013-06-11 09:06:00,
2013-06-11 05:07:00,69.4,67.6,31.01,WSW,247,0.0,0.0,94,0.00,,,0.00,VWS V14.01,2013-06-11 09:07:00,
2013-06-11 05:08:00,69.4,67.6,31.01,WSW,247,0.0,0.0,94,0.00,,,0.00,VWS V14.01,2013-06-11 09:08:00,
2013-06-11 05:09:00,69.4,67.6,31.01,WSW,247,0.0,0.0,94,0.00,,,0.00,VWS V14.01,2013-06-11 09:09:00,
2013-06-11 05:10:00,69.4,67.6,31.01,WSW,247,0.0,0.0,94,0.00,,,0.00,VWS V14.01,2013-06-11 09:10:00,
2013-06-11 05:11:00,69.4,67.6,31.01,WSW,247,0.0,0.0,94,0.00,,,0.00,VWS V14.01,2013-06-11 09:11:00,
2013-06-11 05:12:00,69.4,67.6,31.01,WSW,247,0.0,0.0,94,0.00,,,0.00,VWS V14.01,2013-06-11 09:12:00,
2013-06-11 05:13:00,69.2,67.4,31.01,WSW,247,0.0,0.0,94,0.00,,,0.00,VWS V14.01,2013-06-11 09:13:00,
2013-06-11 05:14:00,69.2,67.4,31.01,WSW,247,0.0,0.0,94,0.00,,,0.00,VWS V14.01,2013-06-11 09:14:00,
2013-06-11 05:15:00,69.2,67.4,31.01,WSW,247,0.0,0.0,94,0.00,,,0.00,VWS V14.01,2013-06-11 09:15:00,
2013-06-11 05:16:00,69.2,67.4,31.01,WSW,247,0.0,0.0,94,0.00,,,0.00,VWS V14.01,2013-06-11 09:16:00,
2013-06-11 05:17:00,69.2,67.4,31.01,WSW,247,0.0,0.0,94,0.00,,,0.00,VWS V14.01,2013-06-11 09:17:00,
2013-06-11 05:18:00,69.2,67.4,31.01,WSW,247,0.0,0.0,94,0.00,,,0.00,VWS V14.01,2013-06-11 09:18:00,
2013-06-11 05:19:00,69.2,67.4,31.01,WSW,247,0.0,0.0,94,0.00,,,0.00,VWS V14.01,2013-06-11 09:19:00,
2013-06-11 05:20:00,69.2,67.4,31.01,WSW,247,0.0,0.0,94,0.00,,,0.00,VWS V14.01,2013-06-11 09:20:00,
2013-06-11 05:21:00,69.2,67.4,31.01,WSW,247,0.0,0.0,94,0.00,,,0.00,VWS V14.01,2013-06-11 09:21:00,
2013-06-11 05:22:00,69.2,67.4,31.01,WSW,247,0.0,0.0,94,0.00,,,0.00,VWS V14.01,2013-06-11 09:22:00,
2013-06-11 05:23:00,69.2,67.4,31.01,WSW,247,0.0,0.0,94,0.00,,,0.00,VWS V14.01,2013-06-11 09:23:00,
2013-06-11 05:24:00,69.2,67.4,31.01,WSW,247,0.0,0.0,94,0.00,,,0.00,VWS V14.01,2013-06-11 09:24:00,
2013-06-11 05:25:00,69.2,67.4,31.01,WSW,247,0.0,0.0,94,0.00,,,0.00,VWS V14.01,2013-06-11 09:25:00,
2013-06-11 05:26:00,69.2,67.4,31.01,WSW,247,0.0,0.0,94,0.00,,,0.00,VWS V14.01,2013-06-11 09:26:00,
2013-06-11 05:27:00,69.2,67.4,31.01,WSW,247,0.0,0.0,94,0.00,,,0.00,VWS V14.01,2013-06-11 09:27:00,
2013-06-11 05:28:00,69.0,67.2,31.01,WSW,247,0.0,0.0,94,0.00,,,0.00,VWS V14.01,2013-06-11 09:28:00,
2013-06-11 05:29:00,69.0,67.2,31.01,WSW,247,0.0,0.0,94,0.00,,,0.00,VWS V14.01,2013-06-11 09:29:00,
2013-06-11 05:30:00,69.0,67.2,31.01,WSW,247,0.0,0.0,94,0.00,,,0.00,VWS V14.01,2013-06-11 09:30:00,
2013-06-11 05:31:00,69.0,67.2,31.01,WSW,247,0.0,0.0,94,0.00,,,0.00,VWS V14.01,2013-06-11 09:31:00,
2013-06-11 05:32:00,69.0,67.2,31.01,WSW,247,0.0,0.0,94,0.00,,,0.00,VWS V14.01,2013-06-11 09:32:00,
2013-06-11 05:33:00,69.0,67.2,31.01,WSW,247,0.0,0.0,94,0.00,,,0.00,VWS V14.01,2013-06-11 09:33:00,
2013-06-11 05:34:00,69.0,67.2,31.01,WSW,247,0.0,0.0,94,0.00,,,0.00,VWS V14.01,2013-06-11 09:34:00,
2013-06-11 05:35:00,69.0,67.2,31.01,WSW,247,0.0,0.0,94,0.00,,,0.00,VWS V14.01,2013-06-11 09:35:00,
2013-06-11 05:36:00,69.0,67.2,31.01,WSW,247,0.0,0.0,94,0.00,,,0.00,VWS V14.01,2013-06-11 09:36:00,
2013-06-11 05:37:00,69.0,67.2,31.01,WSW,247,0.0,0.0,94,0.00,,,0.00,VWS V14.01,2013-06-11 09:37:00,
2013-06-11 05:38:00,69.0,67.2,31.01,WSW,247,0.0,0.0,94,0.00,,,0.00,VWS V14.01,2013-06-11 09:38:00,
2013-06-11 05:39:00,69.0,67.2,31.01,WSW,247,0.0,0.0,94,0.00,,,0.00,VWS V14.01,2013-06-11 09:39:00,
2013-06-11 05:40:00,69.0,67.2,31.01,WSW,247,0.0,0.0,94,0.00,,,0.00,VWS V14.01,2013-06-11 09:40:00,
2013-06-11 05:41:00,69.0,67.2,31.01,WSW,247,0.0,0.0,94,0.00,,,0.00,VWS V14.01,2013-06-11 09:41:00,
2013-06-11 05:42:00,69.0,67.2,31.01,WSW,247,0.0,0.0,94,0.00,,,0.00,VWS V14.01,2013-06-11 09:42:00,
2013-06-11 05:43:00,69.0,67.2,31.01,WSW,247,0.0,0.0,94,0.00,,,0.00,VWS V14.01,2013-06-11 09:43:00,
2013-06-11 05:44:00,69.0,67.2,31.01,WSW,247,0.0,0.0,94,0.00,,,0.00,VWS V14.01,2013-06-11 09:44:00,
2013-06-11 05:45:00,68.8,67.3,31.01,WSW,247,0.0,0.0,95,0.00,,,0.00,VWS V14.01,2013-06-11 09:45:00,
2013-06-11 05:46:00,68.8,67.3,31.01,WSW,247,0.0,0.0,95,0.00,,,0.00,VWS V14.01,2013-06-11 09:46:00,
2013-06-11 05:47:00,68.8,67.3,31.01,WSW,247,0.0,0.0,95,0.00,,,0.00,VWS V14.01,2013-06-11 09:47:00,
2013-06-11 05:48:00,68.8,67.3,31.01,WSW,247,0.0,0.0,95,0.00,,,0.00,VWS V14.01,2013-06-11 09:48:00,
2013-06-11 05:49:00,68.8,67.3,31.01,WSW,247,0.0,0.0,95,0.00,,,0.00,VWS V14.01,2013-06-11 09:49:00,
2013-06-11 05:50:00,68.8,67.3,31.01,WSW,247,0.0,0.0,95,0.00,,,0.00,VWS V14.01,2013-06-11 09:50:00,
2013-06-11 05:51:00,68.8,67.3,31.01,WSW,247,0.0,0.0,95,0.00,,,0.00,VWS V14.01,2013-06-11 09:51:00,
2013-06-11 05:52:00,68.8,67.3,31.01,WSW,247,0.0,0.0,95,0.00,,,0.00,VWS V14.01,2013-06-11 09:52:00,
2013-06-11 05:53:00,68.8,67.3,31.01,WSW,247,0.0,0.0,95,0.00,,,0.00,VWS V14.01,2013-06-11 09:53:00,
2013-06-11 05:54:00,68.8,67.3,31.01,WSW,247,0.0,0.0,95,0.00,,,0.00,VWS V14.01,2013-06-11 09:54:00,
2013-06-11 05:55:00,68.8,67.3,31.01,WSW,247,0.0,0.0,95,0.00,,,0.00,VWS V14.01,2013-06-11 09:55:00,
2013-06-11 05:56:00,68.8,67.3,31.01,WSW,247,0.0,0.0,95,0.00,,,0.00,VWS V14.01,2013-06-11 09:56:00,
2013-06-11 05:57:00,68.8,67.3,31.01,WSW,247,0.0,0.0,95,0.00,,,0.00,VWS V14.01,2013-06-11 09:57:00,
2013-06-11 05:58:00,68.8,67.3,31.01,WSW,247,0.0,0.0,95,0.00,,,0.00,VWS V14.01,2013-06-11 09:58:00,
2013-06-11 05:59:00,68.8,67.3,31.01,WSW,247,0.0,0.0,95,0.00,,,0.00,VWS V14.01,2013-06-11 09:59:00,
2013-06-11 06:00:00,68.8,67.3,31.01,WSW,247,0.0,0.0,95,0.00,,,0.00,VWS V14.01,2013-06-11 10:00:00,
2013-06-11 06:01:00,68.8,67.3,31.01,WSW,247,0.0,0.0,95,0.00,,,0.00,VWS V14.01,2013-06-11 10:01:00,
2013-06-11 06:02:00,68.8,67.3,31.01,WSW,247,0.0,0.0,95,0.00,,,0.00,VWS V14.01,2013-06-11 10:02:00,
2013-06-11 06:03:00,68.8,67.3,31.01,WSW,247,0.0,0.0,95,0.00,,,0.00,VWS V14.01,2013-06-11 10:03:00,
2013-06-11 06:04:00,68.8,67.3,31.01,WSW,247,0.0,0.0,95,0.00,,,0.00,VWS V14.01,2013-06-11 10:04:00,
2013-06-11 06:05:00,68.8,67.3,31.01,WSW,247,0.0,0.0,95,0.00,,,0.00,VWS V14.01,2013-06-11 10:05:00,
2013-06-11 06:06:00,68.8,67.3,31.01,WSW,247,0.0,0.0,95,0.00,,,0.00,VWS V14.01,2013-06-11 10:06:00,
2013-06-11 06:07:00,68.8,67.3,31.01,WSW,247,0.0,0.0,95,0.00,,,0.00,VWS V14.01,2013-06-11 10:07:00,
2013-06-11 06:08:00,68.6,67.2,31.01,WSW,247,0.0,0.0,95,0.00,,,0.00,VWS V14.01,2013-06-11 10:08:00,
2013-06-11 06:09:00,68.6,67.2,31.01,WSW,247,0.0,0.0,95,0.00,,,0.00,VWS V14.01,2013-06-11 10:09:00,
2013-06-11 06:10:00,68.6,67.2,31.01,WSW,247,0.0,0.0,95,0.00,,,0.00,VWS V14.01,2013-06-11 10:10:00,
2013-06-11 06:11:00,68.6,67.2,31.01,WSW,247,0.0,0.0,95,0.00,,,0.00,VWS V14.01,2013-06-11 10:11:00,
2013-06-11 06:12:00,68.6,67.2,31.01,WSW,247,0.0,0.0,95,0.00,,,0.00,VWS V14.01,2013-06-11 10:12:00,
2013-06-11 06:13:00,68.6,67.2,31.01,WSW,247,0.0,0.0,95,0.00,,,0.00,VWS V14.01,2013-06-11 10:13:00,
2013-06-11 06:14:00,68.6,67.2,31.01,WSW,247,0.0,0.0,95,0.00,,,0.00,VWS V14.01,2013-06-11 10:14:00,
2013-06-11 06:15:00,68.6,67.2,31.01,WSW,247,0.0,0.0,95,0.00,,,0.00,VWS V14.01,2013-06-11 10:15:00,
2013-06-11 06:16:00,68.6,67.2,31.01,WSW,247,0.0,0.0,95,0.00,,,0.00,VWS V14.01,2013-06-11 10:16:00,
2013-06-11 06:17:00,68.6,67.2,31.01,WSW,247,0.0,0.0,95,0.00,,,0.00,VWS V14.01,2013-06-11 10:17:00,
2013-06-11 06:18:00,68.6,67.2,31.01,WSW,247,0.0,0.0,95,0.00,,,0.00,VWS V14.01,2013-06-11 10:18:00,
2013-06-11 06:19:00,68.6,67.2,31.01,WSW,247,0.0,0.0,95,0.00,,,0.00,VWS V14.01,2013-06-11 10:19:00,
2013-06-11 06:20:00,68.6,67.2,31.01,WSW,247,0.0,0.0,95,0.00,,,0.00,VWS V14.01,2013-06-11 10:20:00,
2013-06-11 06:21:00,68.6,67.2,31.01,WSW,247,0.0,0.0,95,0.00,,,0.00,VWS V14.01,2013-06-11 10:21:00,
2013-06-11 06:22:00,68.6,67.2,31.01,WSW,247,0.0,0.0,95,0.00,,,0.00,VWS V14.01,2013-06-11 10:22:00,
2013-06-11 06:23:00,68.6,67.2,31.01,WSW,247,0.0,0.0,95,0.00,,,0.00,VWS V14.01,2013-06-11 10:23:00,
2013-06-11 06:24:00,68.6,67.2,31.01,WSW,247,0.0,0.0,95,0.00,,,0.00,VWS V14.01,2013-06-11 10:24:00,
2013-06-11 06:25:00,68.6,67.2,31.01,WSW,247,0.0,0.0,95,0.00,,,0.00,VWS V14.01,2013-06-11 10:25:00,
2013-06-11 06:26:00,68.6,67.2,31.01,WSW,247,0.0,0.0,95,0.00,,,0.00,VWS V14.01,2013-06-11 10:26:00,
2013-06-11 06:27:00,68.6,67.2,31.01,WSW,247,0.0,0.0,95,0.00,,,0.00,VWS V14.01,2013-06-11 10:27:00,
2013-06-11 06:28:00,68.6,67.2,31.01,WSW,247,0.0,0.0,95,0.00,,,0.00,VWS V14.01,2013-06-11 10:28:00,
2013-06-11 06:29:00,68.8,67.3,31.01,WSW,247,0.0,0.0,95,0.00,,,0.00,VWS V14.01,2013-06-11 10:29:00,
2013-06-11 06:30:00,68.8,67.3,31.01,WSW,247,0.0,0.0,95,0.00,,,0.00,VWS V14.01,2013-06-11 10:30:00,
2013-06-11 06:31:00,68.8,67.3,31.01,WSW,247,0.0,0.0,95,0.00,,,0.00,VWS V14.01,2013-06-11 10:31:00,
2013-06-11 06:32:00,68.8,67.3,31.01,WSW,247,0.0,0.0,95,0.00,,,0.00,VWS V14.01,2013-06-11 10:32:00,
2013-06-11 06:33:00,68.8,67.3,31.01,WSW,247,0.0,0.0,95,0.00,,,0.00,VWS V14.01,2013-06-11 10:33:00,
2013-06-11 06:34:00,68.8,67.3,31.01,WSW,247,0.0,0.0,95,0.00,,,0.00,VWS V14.01,2013-06-11 10:34:00,
2013-06-11 06:35:00,68.8,67.3,31.01,WSW,247,0.0,0.0,95,0.00,,,0.00,VWS V14.01,2013-06-11 10:35:00,
2013-06-11 06:36:00,68.8,67.3,31.01,WSW,247,0.0,0.0,95,0.00,,,0.00,VWS V14.01,2013-06-11 10:36:00,
2013-06-11 06:37:00,68.8,67.3,31.01,WSW,247,0.0,0.0,95,0.00,,,0.00,VWS V14.01,2013-06-11 10:37:00,
2013-06-11 06:38:00,69.0,67.5,31.01,WSW,247,0.0,0.0,95,0.00,,,0.00,VWS V14.01,2013-06-11 10:38:00,
2013-06-11 06:39:00,69.0,67.5,31.01,WSW,247,0.0,0.0,95,0.00,,,0.00,VWS V14.01,2013-06-11 10:39:00,
2013-06-11 06:40:00,69.0,67.5,31.01,WSW,247,0.0,0.0,95,0.00,,,0.00,VWS V14.01,2013-06-11 10:40:00,
2013-06-11 06:41:00,69.0,67.5,31.01,WSW,247,0.0,0.0,95,0.00,,,0.00,VWS V14.01,2013-06-11 10:41:00,
2013-06-11 06:42:00,69.0,67.5,31.01,WSW,247,0.0,0.0,95,0.00,,,0.00,VWS V14.01,2013-06-11 10:42:00,
2013-06-11 06:43:00,69.2,67.7,31.01,WSW,247,0.0,0.0,95,0.00,,,0.00,VWS V14.01,2013-06-11 10:43:00,
2013-06-11 06:44:00,69.2,67.7,31.01,South,185,0.0,0.0,95,0.00,,,0.00,VWS V14.01,2013-06-11 10:44:00,
2013-06-11 06:45:00,69.2,67.7,31.01,South,189,0.0,0.0,95,0.00,,,0.00,VWS V14.01,2013-06-11 10:45:00,
2013-06-11 06:46:00,69.2,67.7,31.01,South,189,0.0,0.0,95,0.00,,,0.00,VWS V14.01,2013-06-11 10:46:00,
2013-06-11 06:47:00,69.2,67.7,31.01,South,189,0.0,0.0,95,0.00,,,0.00,VWS V14.01,2013-06-11 10:47:00,
2013-06-11 06:48:00,69.2,67.7,31.01,South,189,0.0,0.0,95,0.00,,,0.00,VWS V14.01,2013-06-11 10:48:00,
2013-06-11 06:49:00,69.2,67.7,31.01,South,189,0.0,0.0,95,0.00,,,0.00,VWS V14.01,2013-06-11 10:49:00,
2013-06-11 06:50:00,69.2,67.7,31.01,SW,229,0.0,0.0,95,0.00,,,0.00,VWS V14.01,2013-06-11 10:50:00,
2013-06-11 06:51:00,69.2,67.7,31.01,SW,229,0.0,0.0,95,0.00,,,0.00,VWS V14.01,2013-06-11 10:51:00,
2013-06-11 06:52:00,69.2,67.7,31.01,SW,229,0.0,0.0,95,0.00,,,0.00,VWS V14.01,2013-06-11 10:52:00,
2013-06-11 06:53:00,69.4,68.2,31.01,SW,229,0.0,0.0,96,0.00,,,0.00,VWS V14.01,2013-06-11 10:53:00,
2013-06-11 06:54:00,69.4,68.2,31.01,WSW,252,0.0,3.6,96,0.00,,,0.00,VWS V14.01,2013-06-11 10:54:00,
2013-06-11 06:55:00,69.4,68.2,31.01,WSW,252,0.0,0.0,96,0.00,,,0.00,VWS V14.01,2013-06-11 10:55:00,
2013-06-11 06:56:00,69.4,68.2,31.01,South,178,2.2,2.2,96,0.00,,,0.00,VWS V14.01,2013-06-11 10:56:00,
2013-06-11 06:57:00,69.4,68.2,31.01,South,178,2.2,2.2,96,0.00,,,0.00,VWS V14.01,2013-06-11 10:57:00,
2013-06-11 06:58:00,69.4,68.2,31.01,SW,228,0.0,2.2,96,0.00,,,0.00,VWS V14.01,2013-06-11 10:58:00,
2013-06-11 06:59:00,69.4,68.2,31.01,SW,228,0.0,0.0,96,0.00,,,0.00,VWS V14.01,2013-06-11 10:59:00,
2013-06-11 07:00:00,69.4,68.2,31.01,SW,228,0.0,0.0,96,0.00,,,0.00,VWS V14.01,2013-06-11 11:00:00,
2013-06-11 07:01:00,69.4,68.2,31.01,SW,228,0.0,0.0,96,0.00,,,0.00,VWS V14.01,2013-06-11 11:01:00,
2013-06-11 07:02:00,69.5,68.3,31.01,SW,228,0.0,0.0,96,0.00,,,0.00,VWS V14.01,2013-06-11 11:02:00,
2013-06-11 07:03:00,69.5,68.3,31.01,SW,228,0.0,0.0,96,0.00,,,0.00,VWS V14.01,2013-06-11 11:03:00,
2013-06-11 07:04:00,69.5,68.3,31.01,South,188,0.0,0.0,96,0.00,,,0.00,VWS V14.01,2013-06-11 11:04:00,
2013-06-11 07:05:00,69.5,68.3,31.01,SW,227,0.0,0.0,96,0.00,,,0.00,VWS V14.01,2013-06-11 11:05:00,
2013-06-11 07:06:00,69.5,68.3,31.01,SW,231,4.0,4.0,96,0.00,,,0.00,VWS V14.01,2013-06-11 11:06:00,
2013-06-11 07:07:00,69.5,68.3,31.01,SSW,194,4.0,4.0,96,0.00,,,0.00,VWS V14.01,2013-06-11 11:07:00,
2013-06-11 07:08:00,69.5,68.3,31.01,WSW,246,0.0,4.0,96,0.00,,,0.00,VWS V14.01,2013-06-11 11:08:00,
2013-06-11 07:09:00,69.5,68.3,31.01,SW,223,3.1,3.1,96,0.00,,,0.00,VWS V14.01,2013-06-11 11:09:00,
2013-06-11 07:10:00,69.5,68.3,31.01,SW,223,3.1,3.1,96,0.00,,,0.00,VWS V14.01,2013-06-11 11:10:00,
2013-06-11 07:11:00,69.5,68.3,31.01,SW,223,3.1,3.1,96,0.00,,,0.00,VWS V14.01,2013-06-11 11:11:00,
2013-06-11 07:12:00,69.5,68.3,31.01,SW,232,0.0,3.1,96,0.00,,,0.00,VWS V14.01,2013-06-11 11:12:00,
2013-06-11 07:13:00,69.5,68.3,31.01,SW,232,0.0,0.0,96,0.00,,,0.00,VWS V14.01,2013-06-11 11:13:00,
2013-06-11 07:14:00,69.5,68.3,31.01,SW,232,0.0,0.0,96,0.00,,,0.00,VWS V14.01,2013-06-11 11:14:00,
2013-06-11 07:15:00,69.5,68.3,31.01,West,260,0.0,0.0,96,0.00,,,0.00,VWS V14.01,2013-06-11 11:15:00,
2013-06-11 07:16:00,69.5,68.3,31.01,SSW,201,0.0,0.0,96,0.00,,,0.00,VWS V14.01,2013-06-11 11:16:00,
2013-06-11 07:17:00,69.5,68.3,31.01,SSW,201,0.0,0.0,96,0.00,,,0.00,VWS V14.01,2013-06-11 11:17:00,
2013-06-11 07:18:00,69.5,68.3,31.01,SSW,201,0.0,0.0,96,0.00,,,0.00,VWS V14.01,2013-06-11 11:18:00,
2013-06-11 07:19:00,69.7,68.5,31.01,SW,236,4.0,4.0,96,0.00,,,0.00,VWS V14.01,2013-06-11 11:19:00,
2013-06-11 07:20:00,69.7,68.5,31.01,SW,229,3.1,4.0,96,0.00,,,0.00,VWS V14.01,2013-06-11 11:20:00,
2013-06-11 07:21:00,69.7,68.5,31.01,South,189,0.0,3.1,96,0.00,,,0.00,VWS V14.01,2013-06-11 11:21:00,
2013-06-11 07:22:00,69.7,68.5,31.01,SW,230,0.0,0.0,96,0.00,,,0.00,VWS V14.01,2013-06-11 11:22:00,
2013-06-11 07:23:00,69.7,68.5,31.01,SW,230,0.0,0.0,96,0.00,,,0.00,VWS V14.01,2013-06-11 11:23:00,
2013-06-11 07:24:00,69.7,68.5,31.01,SW,230,0.0,0.0,96,0.00,,,0.00,VWS V14.01,2013-06-11 11:24:00,
2013-06-11 07:25:00,69.7,68.5,31.01,SW,236,0.0,0.0,96,0.00,,,0.00,VWS V14.01,2013-06-11 11:25:00,
2013-06-11 07:26:00,69.7,68.5,31.01,SW,236,0.0,0.0,96,0.00,,,0.00,VWS V14.01,2013-06-11 11:26:00,
2013-06-11 07:27:00,69.7,68.5,31.01,SW,236,0.0,0.0,96,0.00,,,0.00,VWS V14.01,2013-06-11 11:27:00,
2013-06-11 07:28:00,69.7,68.5,31.01,SW,231,0.0,0.0,96,0.00,,,0.00,VWS V14.01,2013-06-11 11:28:00,
2013-06-11 07:29:00,69.7,68.5,31.01,NW,309,0.0,0.0,96,0.00,,,0.00,VWS V14.01,2013-06-11 11:29:00,
2013-06-11 07:30:00,69.7,68.5,31.01,SW,233,0.0,0.0,96,0.00,,,0.00,VWS V14.01,2013-06-11 11:30:00,
2013-06-11 07:31:00,69.9,68.7,31.01,SW,233,0.0,0.0,96,0.00,,,0.00,VWS V14.01,2013-06-11 11:31:00,
2013-06-11 07:32:00,69.9,68.7,31.01,SW,233,0.0,0.0,96,0.00,,,0.00,VWS V14.01,2013-06-11 11:32:00,
2013-06-11 07:33:00,69.9,68.7,31.01,NNW,338,0.0,0.0,96,0.00,,,0.00,VWS V14.01,2013-06-11 11:33:00,
2013-06-11 07:34:00,69.9,68.7,31.01,NNW,338,0.0,0.0,96,0.00,,,0.00,VWS V14.01,2013-06-11 11:34:00,
2013-06-11 07:35:00,69.9,68.7,31.01,NNW,338,0.0,0.0,96,0.00,,,0.00,VWS V14.01,2013-06-11 11:35:00,
2013-06-11 07:36:00,70.1,68.9,31.01,SE,136,3.1,3.1,96,0.00,,,0.00,VWS V14.01,2013-06-11 11:36:00,
2013-06-11 07:37:00,70.1,68.9,31.01,South,172,4.0,4.0,96,0.00,,,0.00,VWS V14.01,2013-06-11 11:37:00,
2013-06-11 07:38:00,70.1,68.9,31.01,South,172,4.0,4.0,96,0.00,,,0.00,VWS V14.01,2013-06-11 11:38:00,
2013-06-11 07:39:00,70.1,68.9,31.01,SW,214,0.0,4.0,96,0.00,,,0.00,VWS V14.01,2013-06-11 11:39:00,
2013-06-11 07:40:00,70.1,68.9,31.01,SW,214,0.0,0.0,96,0.00,,,0.00,VWS V14.01,2013-06-11 11:40:00,
2013-06-11 07:41:00,70.1,68.9,31.01,SW,214,0.0,0.0,96,0.00,,,0.00,VWS V14.01,2013-06-11 11:41:00,
2013-06-11 07:42:00,70.1,68.9,31.01,SW,214,0.0,0.0,96,0.00,,,0.00,VWS V14.01,2013-06-11 11:42:00,
2013-06-11 07:43:00,70.1,68.9,31.01,SSW,204,0.0,0.0,96,0.00,,,0.00,VWS V14.01,2013-06-11 11:43:00,
2013-06-11 07:44:00,70.1,68.9,31.01,SSE,166,0.0,0.0,96,0.00,,,0.00,VWS V14.01,2013-06-11 11:44:00,
2013-06-11 07:45:00,70.1,68.9,31.01,SSE,166,0.0,0.0,96,0.00,,,0.00,VWS V14.01,2013-06-11 11:45:00,
2013-06-11 07:46:00,70.3,69.1,31.01,SSE,166,0.0,0.0,96,0.00,,,0.00,VWS V14.01,2013-06-11 11:46:00,
2013-06-11 07:47:00,70.3,69.1,31.01,NNW,329,0.0,0.0,96,0.00,,,0.00,VWS V14.01,2013-06-11 11:47:00,
2013-06-11 07:48:00,70.3,69.1,31.01,West,262,0.0,2.7,96,0.00,,,0.00,VWS V14.01,2013-06-11 11:48:00,
2013-06-11 07:49:00,70.3,69.1,31.01,SSW,192,0.0,0.0,96,0.00,,,0.00,VWS V14.01,2013-06-11 11:49:00,
2013-06-11 07:50:00,70.3,69.1,31.01,NW,316,0.0,0.0,96,0.00,,,0.00,VWS V14.01,2013-06-11 11:50:00,
2013-06-11 07:51:00,70.3,69.1,31.01,NW,316,0.0,0.0,96,0.00,,,0.00,VWS V14.01,2013-06-11 11:51:00,
2013-06-11 07:52:00,70.4,68.9,31.01,ESE,118,2.2,2.2,95,0.00,,,0.00,VWS V14.01,2013-06-11 11:52:00,
2013-06-11 07:53:00,70.6,69.1,31.01,WSW,247,2.2,2.2,95,0.00,,,0.00,VWS V14.01,2013-06-11 11:53:00,
2013-06-11 07:54:00,70.6,69.1,31.01,South,188,0.0,2.2,95,0.00,,,0.00,VWS V14.01,2013-06-11 11:54:00,
2013-06-11 07:55:00,70.6,69.1,31.01,South,188,0.0,0.0,95,0.00,,,0.00,VWS V14.01,2013-06-11 11:55:00,
2013-06-11 07:56:00,70.8,69.3,31.01,South,188,0.0,0.0,95,0.00,,,0.00,VWS V14.01,2013-06-11 11:56:00,
2013-06-11 07:57:00,70.8,69.3,31.01,WSW,246,4.0,4.0,95,0.00,,,0.00,VWS V14.01,2013-06-11 11:57:00,
2013-06-11 07:58:00,70.8,69.3,31.01,SSE,161,0.0,4.0,95,0.00,,,0.00,VWS V14.01,2013-06-11 11:58:00,
2013-06-11 07:59:00,70.8,69.3,31.01,SSW,201,2.7,3.6,95,0.00,,,0.00,VWS V14.01,2013-06-11 11:59:00,
2013-06-11 08:00:00,71.2,69.3,31.01,SSW,213,0.0,2.7,94,0.00,,,0.00,VWS V14.01,2013-06-11 12:00:00,
2013-06-11 08:01:00,71.2,69.3,31.01,SW,218,0.0,0.0,94,0.00,,,0.00,VWS V14.01,2013-06-11 12:01:00,
2013-06-11 08:02:00,71.2,69.3,31.01,SW,218,0.0,0.0,94,0.00,,,0.00,VWS V14.01,2013-06-11 12:02:00,
2013-06-11 08:03:00,71.2,69.3,31.01,SW,218,0.0,0.0,94,0.00,,,0.00,VWS V14.01,2013-06-11 12:03:00,
2013-06-11 08:04:00,71.3,69.5,31.01,WSW,244,0.0,0.0,94,0.00,,,0.00,VWS V14.01,2013-06-11 12:04:00,
2013-06-11 08:05:00,71.3,69.5,31.01,SSW,210,0.0,0.0,94,0.00,,,0.00,VWS V14.01,2013-06-11 12:05:00,
2013-06-11 08:06:00,71.3,69.5,31.01,SSW,210,0.0,0.0,94,0.00,,,0.00,VWS V14.01,2013-06-11 12:06:00,
2013-06-11 08:07:00,71.3,69.2,31.01,SSW,210,0.0,0.0,93,0.00,,,0.00,VWS V14.01,2013-06-11 12:07:00,
2013-06-11 08:08:00,71.5,69.1,31.01,SW,219,0.0,0.0,92,0.00,,,0.00,VWS V14.01,2013-06-11 12:08:00,
2013-06-11 08:09:00,71.5,69.1,31.01,SW,219,0.0,0.0,92,0.00,,,0.00,VWS V14.01,2013-06-11 12:09:00,
2013-06-11 08:10:00,71.5,68.4,31.01,SW,221,2.7,3.6,90,0.00,,,0.00,VWS V14.01,2013-06-11 12:10:00,
2013-06-11 08:11:00,71.5,68.4,31.01,SW,225,0.0,2.7,90,0.00,,,0.00,VWS V14.01,2013-06-11 12:11:00,
2013-06-11 08:12:00,71.7,68.3,31.01,SW,227,0.0,0.0,89,0.00,,,0.00,VWS V14.01,2013-06-11 12:12:00,
2013-06-11 08:13:00,71.7,68.3,31.01,SW,223,2.2,2.2,89,0.00,,,0.00,VWS V14.01,2013-06-11 12:13:00,
2013-06-11 08:14:00,71.3,66.6,31.01,SW,229,5.4,5.4,85,0.00,,,0.00,VWS V14.01,2013-06-11 12:14:00,
2013-06-11 08:15:00,71.3,66.6,31.01,SW,231,0.0,5.4,85,0.00,,,0.00,VWS V14.01,2013-06-11 12:15:00,
2013-06-11 08:16:00,71.7,65.9,31.01,SW,231,0.0,0.0,82,0.00,,,0.00,VWS V14.01,2013-06-11 12:16:00,
2013-06-11 08:17:00,71.7,65.9,31.01,South,173,3.1,3.1,82,0.00,,,0.00,VWS V14.01,2013-06-11 12:17:00,
2013-06-11 08:18:00,72.1,65.9,31.01,SW,228,0.0,3.1,81,0.00,,,0.00,VWS V14.01,2013-06-11 12:18:00,
2013-06-11 08:19:00,72.1,65.9,31.01,WNW,289,3.6,3.6,81,0.00,,,0.00,VWS V14.01,2013-06-11 12:19:00,
2013-06-11 08:20:00,72.1,65.9,31.01,WNW,290,0.0,3.6,81,0.00,,,0.00,VWS V14.01,2013-06-11 12:20:00,
2013-06-11 08:21:00,72.2,66.1,31.01,West,276,0.0,0.0,81,0.00,,,0.00,VWS V14.01,2013-06-11 12:21:00,
2013-06-11 08:22:00,72.4,66.3,31.01,SW,215,0.0,0.0,81,0.00,,,0.00,VWS V14.01,2013-06-11 12:22:00,
2013-06-11 08:23:00,72.4,66.3,31.01,SW,215,0.0,0.0,81,0.00,,,0.00,VWS V14.01,2013-06-11 12:23:00,
2013-06-11 08:24:00,72.6,66.4,31.01,SW,215,0.0,0.0,81,0.00,,,0.00,VWS V14.01,2013-06-11 12:24:00,
2013-06-11 08:25:00,72.6,66.4,31.01,SSE,153,0.0,0.0,81,0.00,,,0.00,VWS V14.01,2013-06-11 12:25:00,
2013-06-11 08:26:00,72.6,66.4,31.01,SSW,194,0.0,4.0,81,0.00,,,0.00,VWS V14.01,2013-06-11 12:26:00,
2013-06-11 08:27:00,72.6,66.4,31.01,SSW,194,0.0,0.0,81,0.00,,,0.00,VWS V14.01,2013-06-11 12:27:00,
2013-06-11 08:28:00,73.0,66.4,31.01,SSW,194,0.0,0.0,80,0.00,,,0.00,VWS V14.01,2013-06-11 12:28:00,
2013-06-11 08:29:00,73.1,65.5,31.01,SW,231,0.0,0.0,77,0.00,,,0.00,VWS V14.01,2013-06-11 12:29:00,
2013-06-11 08:30:00,73.1,65.5,31.01,SW,231,0.0,0.0,77,0.00,,,0.00,VWS V14.01,2013-06-11 12:30:00,
2013-06-11 08:31:00,73.3,65.7,31.01,SW,219,0.0,0.0,77,0.00,,,0.00,VWS V14.01,2013-06-11 12:31:00,
2013-06-11 08:32:00,73.3,65.7,31.01,NW,316,3.1,3.1,77,0.00,,,0.00,VWS V14.01,2013-06-11 12:32:00,
2013-06-11 08:33:00,73.7,66.8,31.01,WNW,288,3.1,3.1,79,0.00,,,0.00,VWS V14.01,2013-06-11 12:33:00,
2013-06-11 08:34:00,73.7,66.8,31.01,WNW,289,4.9,4.9,79,0.00,,,0.00,VWS V14.01,2013-06-11 12:34:00,
2013-06-11 08:35:00,73.7,66.8,31.01,WNW,289,4.9,4.9,79,0.00,,,0.00,VWS V14.01,2013-06-11 12:35:00,
2013-06-11 08:36:00,73.7,66.0,31.01,WNW,296,0.0,4.9,77,0.00,,,0.00,VWS V14.01,2013-06-11 12:36:00,
2013-06-11 08:37:00,73.9,66.2,31.01,WNW,296,0.0,0.0,77,0.00,,,0.00,VWS V14.01,2013-06-11 12:37:00,
2013-06-11 08:38:00,73.9,66.2,31.01,WNW,296,0.0,0.0,77,0.00,,,0.00,VWS V14.01,2013-06-11 12:38:00,
2013-06-11 08:39:00,73.9,66.2,31.01,North,353,0.0,0.0,77,0.00,,,0.00,VWS V14.01,2013-06-11 12:39:00,
2013-06-11 08:40:00,73.7,64.5,31.01,WNW,303,0.0,0.0,73,0.00,,,0.00,VWS V14.01,2013-06-11 12:40:00,
2013-06-11 08:41:00,73.7,64.5,31.01,SSE,155,0.0,0.0,73,0.00,,,0.00,VWS V14.01,2013-06-11 12:41:00,
2013-06-11 08:42:00,74.2,64.2,31.01,SSE,155,0.0,0.0,71,0.00,,,0.00,VWS V14.01,2013-06-11 12:42:00,
2013-06-11 08:43:00,74.2,64.2,31.01,SW,224,0.0,2.7,71,0.00,,,0.00,VWS V14.01,2013-06-11 12:43:00,
2013-06-11 08:44:00,74.4,63.6,31.01,SW,224,0.0,0.0,69,0.00,,,0.00,VWS V14.01,2013-06-11 12:44:00,
2013-06-11 08:45:00,74.8,64.3,31.01,SW,224,0.0,0.0,70,0.00,,,0.00,VWS V14.01,2013-06-11 12:45:00,
2013-06-11 08:46:00,74.8,64.3,31.01,West,273,0.0,0.0,70,0.00,,,0.00,VWS V14.01,2013-06-11 12:46:00,
2013-06-11 08:47:00,74.8,64.3,31.01,SW,230,0.0,0.0,70,0.00,,,0.00,VWS V14.01,2013-06-11 12:47:00,
2013-06-11 08:48:00,74.8,64.3,31.01,SW,230,0.0,0.0,70,0.00,,,0.00,VWS V14.01,2013-06-11 12:48:00,
2013-06-11 08:49:00,75.1,64.7,31.01,SW,230,0.0,0.0,70,0.00,,,0.00,VWS V14.01,2013-06-11 12:49:00,
2013-06-11 08:50:00,75.1,64.7,31.01,NNW,332,2.7,3.1,70,0.00,,,0.00,VWS V14.01,2013-06-11 12:50:00,
2013-06-11 08:51:00,75.7,63.9,31.01,NNW,332,2.7,2.7,67,0.00,,,0.00,VWS V14.01,2013-06-11 12:51:00,
2013-06-11 08:52:00,75.7,63.9,31.01,SW,229,5.4,5.4,67,0.00,,,0.00,VWS V14.01,2013-06-11 12:52:00,
2013-06-11 08:53:00,75.8,62.8,31.01,SW,233,2.2,5.4,64,0.00,,,0.00,VWS V14.01,2013-06-11 12:53:00,
2013-06-11 08:54:00,75.8,62.8,31.01,WNW,285,0.0,2.2,64,0.00,,,0.00,VWS V14.01,2013-06-11 12:54:00,
2013-06-11 08:55:00,75.8,60.5,31.01,WNW,285,0.0,0.0,59,0.00,,,0.00,VWS V14.01,2013-06-11 12:55:00,
2013-06-11 08:56:00,75.8,60.5,31.01,WNW,285,0.0,0.0,59,0.00,,,0.00,VWS V14.01,2013-06-11 12:56:00,
2013-06-11 08:57:00,75.8,60.5,31.01,West,268,0.0,0.0,59,0.00,,,0.00,VWS V14.01,2013-06-11 12:57:00,
2013-06-11 08:58:00,76.0,61.2,31.01,West,268,0.0,0.0,60,0.00,,,0.00,VWS V14.01,2013-06-11 12:58:00,
2013-06-11 08:59:00,76.0,61.6,31.01,NW,323,3.1,3.1,61,0.00,,,0.00,VWS V14.01,2013-06-11 12:59:00,
2013-06-11 09:00:00,76.0,61.2,31.01,SW,218,0.0,3.1,60,0.00,,,0.00,VWS V14.01,2013-06-11 13:00:00,
2013-06-11 09:01:00,76.2,61.3,31.01,WSW,252,0.0,0.0,60,0.00,,,0.00,VWS V14.01,2013-06-11 13:01:00,
2013-06-11 09:02:00,76.2,61.3,31.01,WSW,252,0.0,0.0,60,0.00,,,0.00,VWS V14.01,2013-06-11 13:02:00,
2013-06-11 09:03:00,76.2,61.3,31.01,WSW,252,0.0,0.0,60,0.00,,,0.00,VWS V14.01,2013-06-11 13:03:00,
2013-06-11 09:04:00,76.4,61.5,31.01,NW,322,0.0,3.1,60,0.00,,,0.00,VWS V14.01,2013-06-11 13:04:00,
2013-06-11 09:05:00,76.4,61.5,31.01,SW,236,0.0,0.0,60,0.00,,,0.00,VWS V14.01,2013-06-11 13:05:00,
2013-06-11 09:06:00,76.6,61.2,31.01,SW,236,0.0,0.0,59,0.00,,,0.00,VWS V14.01,2013-06-11 13:06:00,
2013-06-11 09:07:00,76.6,61.2,31.01,WNW,293,2.7,3.1,59,0.00,,,0.00,VWS V14.01,2013-06-11 13:07:00,
2013-06-11 09:08:00,76.9,61.5,31.01,SW,235,0.0,4.9,59,0.00,,,0.00,VWS V14.01,2013-06-11 13:08:00,
2013-06-11 09:09:00,76.9,61.5,31.01,NNW,341,4.9,4.9,59,0.00,,,0.00,VWS V14.01,2013-06-11 13:09:00,
2013-06-11 09:10:00,76.9,61.5,31.01,WNW,290,0.0,4.9,59,0.00,,,0.00,VWS V14.01,2013-06-11 13:10:00,
2013-06-11 09:11:00,76.9,60.0,31.01,SW,231,3.6,3.6,56,0.00,,,0.00,VWS V14.01,2013-06-11 13:11:00,
2013-06-11 09:12:00,76.9,60.0,31.01,ESE,121,0.0,3.6,56,0.00,,,0.00,VWS V14.01,2013-06-11 13:12:00,
2013-06-11 09:13:00,76.9,60.0,31.01,ESE,121,0.0,0.0,56,0.00,,,0.00,VWS V14.01,2013-06-11 13:13:00,
2013-06-11 09:14:00,77.5,61.0,31.01,WNW,289,0.0,0.0,57,0.00,,,0.00,VWS V14.01,2013-06-11 13:14:00,
2013-06-11 09:15:00,77.5,61.0,31.01,SW,233,0.0,0.0,57,0.00,,,0.00,VWS V14.01,2013-06-11 13:15:00,
2013-06-11 09:16:00,77.5,61.0,31.01,South,169,3.1,3.1,57,0.00,,,0.00,VWS V14.01,2013-06-11 13:16:00,
2013-06-11 09:17:00,77.5,61.0,31.01,South,169,3.1,3.1,57,0.00,,,0.00,VWS V14.01,2013-06-11 13:17:00,
2013-06-11 09:18:00,77.5,61.0,31.01,SSW,205,6.3,6.3,57,0.00,,,0.00,VWS V14.01,2013-06-11 13:18:00,
2013-06-11 09:19:00,77.8,59.9,31.01,SSW,205,6.3,6.3,54,0.00,,,0.00,VWS V14.01,2013-06-11 13:19:00,
2013-06-11 09:20:00,77.8,59.9,31.01,SSE,167,0.0,6.3,54,0.00,,,0.00,VWS V14.01,2013-06-11 13:20:00,
2013-06-11 09:21:00,77.8,59.9,31.01,NW,317,0.0,0.0,54,0.00,,,0.00,VWS V14.01,2013-06-11 13:21:00,
2013-06-11 09:22:00,77.6,59.7,31.01,West,277,0.0,0.0,54,0.00,,,0.00,VWS V14.01,2013-06-11 13:22:00,
2013-06-11 09:23:00,77.6,59.7,31.01,NW,306,0.0,0.0,54,0.00,,,0.00,VWS V14.01,2013-06-11 13:23:00,
2013-06-11 09:24:00,77.6,59.7,31.01,NW,306,0.0,0.0,54,0.00,,,0.00,VWS V14.01,2013-06-11 13:24:00,
2013-06-11 09:25:00,77.5,59.0,31.01,SSW,210,4.0,4.0,53,0.00,,,0.00,VWS V14.01,2013-06-11 13:25:00,
2013-06-11 09:26:00,77.5,59.0,31.01,SSW,212,0.0,4.0,53,0.00,,,0.00,VWS V14.01,2013-06-11 13:26:00,
2013-06-11 09:27:00,77.5,59.0,31.01,WNW,302,0.0,0.0,53,0.00,,,0.00,VWS V14.01,2013-06-11 13:27:00,
2013-06-11 09:28:00,77.3,59.4,31.01,NNW,331,4.0,4.0,54,0.00,,,0.00,VWS V14.01,2013-06-11 13:28:00,
2013-06-11 09:29:00,77.3,59.4,31.01,SSW,213,0.0,4.0,54,0.00,,,0.00,VWS V14.01,2013-06-11 13:29:00,
2013-06-11 09:30:00,77.1,58.7,31.01,SSW,213,0.0,0.0,53,0.00,,,0.00,VWS V14.01,2013-06-11 13:30:00,
2013-06-11 09:31:00,77.1,58.7,31.01,SW,219,0.0,0.0,53,0.00,,,0.00,VWS V14.01,2013-06-11 13:31:00,
2013-06-11 09:32:00,77.1,59.2,31.01,SW,234,0.0,2.2,54,0.00,,,0.00,VWS V14.01,2013-06-11 13:32:00,
2013-06-11 09:33:00,77.1,59.2,31.01,SW,232,0.0,0.0,54,0.00,,,0.00,VWS V14.01,2013-06-11 13:33:00,
2013-06-11 09:34:00,77.1,59.2,31.01,NNW,330,0.0,0.0,54,0.00,,,0.00,VWS V14.01,2013-06-11 13:34:00,
2013-06-11 09:35:00,77.3,58.8,31.01,West,265,0.0,0.0,53,0.00,,,0.00,VWS V14.01,2013-06-11 13:35:00,
2013-06-11 09:36:00,77.3,58.8,31.01,NW,322,3.6,3.6,53,0.00,,,0.00,VWS V14.01,2013-06-11 13:36:00,
2013-06-11 09:37:00,77.3,59.4,31.01,NW,322,3.6,3.6,54,0.00,,,0.00,VWS V14.01,2013-06-11 13:37:00,
2013-06-11 09:38:00,77.3,59.4,31.01,WSW,249,2.7,3.6,54,0.00,,,0.00,VWS V14.01,2013-06-11 13:38:00,
2013-06-11 09:39:00,77.3,59.4,31.01,SW,226,2.7,2.7,54,0.00,,,0.00,VWS V14.01,2013-06-11 13:39:00,
2013-06-11 09:40:00,77.5,59.0,31.01,SW,226,2.7,2.7,53,0.00,,,0.00,VWS V14.01,2013-06-11 13:40:00,
2013-06-11 09:41:00,77.5,59.0,31.01,South,169,4.0,4.0,53,0.00,,,0.00,VWS V14.01,2013-06-11 13:41:00,
2013-06-11 09:42:00,77.5,59.0,31.01,NW,323,0.0,4.0,53,0.00,,,0.00,VWS V14.01,2013-06-11 13:42:00,
2013-06-11 09:43:00,77.8,58.3,31.01,WSW,239,3.6,3.6,51,0.00,,,0.00,VWS V14.01,2013-06-11 13:43:00,
2013-06-11 09:44:00,77.8,58.3,31.01,WSW,239,3.6,3.6,51,0.00,,,0.00,VWS V14.01,2013-06-11 13:44:00,
2013-06-11 09:45:00,78.0,59.0,31.01,WSW,239,3.6,3.6,52,0.00,,,0.00,VWS V14.01,2013-06-11 13:45:00,
2013-06-11 09:46:00,78.0,59.0,31.01,WSW,239,0.0,3.6,52,0.00,,,0.00,VWS V14.01,2013-06-11 13:46:00,
2013-06-11 09:47:00,78.2,59.1,31.01,WSW,239,0.0,0.0,52,0.00,,,0.00,VWS V14.01,2013-06-11 13:47:00,
2013-06-11 09:48:00,78.2,59.1,31.01,South,177,3.1,3.1,52,0.00,,,0.00,VWS V14.01,2013-06-11 13:48:00,
2013-06-11 09:49:00,78.2,59.1,31.01,WSW,239,0.0,3.1,52,0.00,,,0.00,VWS V14.01,2013-06-11 13:49:00,
2013-06-11 09:50:00,78.2,59.1,31.01,WSW,239,0.0,0.0,52,0.00,,,0.00,VWS V14.01,2013-06-11 13:50:00,
2013-06-11 09:51:00,78.5,58.9,31.01,West,260,2.2,2.2,51,0.00,,,0.00,VWS V14.01,2013-06-11 13:51:00,
2013-06-11 09:52:00,78.5,58.9,31.01,North,349,3.1,3.1,51,0.00,,,0.00,VWS V14.01,2013-06-11 13:52:00,
2013-06-11 09:53:00,78.5,58.9,31.01,NW,323,0.0,3.1,51,0.00,,,0.00,VWS V14.01,2013-06-11 13:53:00,
2013-06-11 09:54:00,78.2,57.5,31.01,NNW,340,0.0,0.0,49,0.00,,,0.00,VWS V14.01,2013-06-11 13:54:00,
2013-06-11 09:55:00,78.2,57.5,31.01,NNW,340,0.0,0.0,49,0.00,,,0.00,VWS V14.01,2013-06-11 13:55:00,
2013-06-11 09:56:00,78.0,57.9,31.01,West,262,0.0,0.0,50,0.00,,,0.00,VWS V14.01,2013-06-11 13:56:00,
2013-06-11 09:57:00,78.0,57.9,31.01,NNW,329,0.0,0.0,50,0.00,,,0.00,VWS V14.01,2013-06-11 13:57:00,
2013-06-11 09:58:00,77.6,58.1,31.01,NNW,329,0.0,0.0,51,0.00,,,0.00,VWS V14.01,2013-06-11 13:58:00,
2013-06-11 09:59:00,77.5,57.9,31.01,WSW,237,4.9,4.9,51,0.00,,,0.00,VWS V14.01,2013-06-11 13:59:00,
2013-06-11 10:00:00,77.5,57.9,31.01,South,178,4.0,4.9,51,0.00,,,0.00,VWS V14.01,2013-06-11 14:00:00,
2013-06-11 10:01:00,77.3,57.8,31.01,WNW,287,3.6,4.0,51,0.00,,,0.00,VWS V14.01,2013-06-11 14:01:00,
2013-06-11 10:02:00,77.3,57.8,31.01,SW,234,0.0,3.6,51,0.00,,,0.00,VWS V14.01,2013-06-11 14:02:00,
2013-06-11 10:03:00,77.5,58.5,31.01,WSW,240,0.0,0.0,52,0.00,,,0.00,VWS V14.01,2013-06-11 14:03:00,
2013-06-11 10:04:00,77.5,58.5,31.01,WSW,238,0.0,0.0,52,0.00,,,0.00,VWS V14.01,2013-06-11 14:04:00,
2013-06-11 10:05:00,77.5,58.5,31.01,WNW,286,0.0,0.0,52,0.00,,,0.00,VWS V14.01,2013-06-11 14:05:00,
2013-06-11 10:06:00,78.0,57.9,31.01,WNW,286,0.0,0.0,50,0.00,,,0.00,VWS V14.01,2013-06-11 14:06:00,
2013-06-11 10:07:00,78.2,58.0,31.01,West,260,4.0,4.0,50,0.00,,,0.00,VWS V14.01,2013-06-11 14:07:00,
2013-06-11 10:08:00,78.2,58.0,31.01,West,260,4.0,4.0,50,0.00,,,0.00,VWS V14.01,2013-06-11 14:08:00,
2013-06-11 10:09:00,78.2,57.5,31.01,NNW,333,0.0,4.0,49,0.00,,,0.00,VWS V14.01,2013-06-11 14:09:00,
2013-06-11 10:10:00,78.2,57.5,31.01,North,353,0.0,0.0,49,0.00,,,0.00,VWS V14.01,2013-06-11 14:10:00,
2013-06-11 10:11:00,78.0,56.2,31.01,North,353,5.4,5.4,47,0.00,,,0.00,VWS V14.01,2013-06-11 14:11:00,
2013-06-11 10:12:00,78.0,56.7,31.01,North,353,5.4,5.4,48,0.00,,,0.00,VWS V14.01,2013-06-11 14:12:00,
2013-06-11 10:13:00,78.0,56.7,31.01,North,353,5.4,5.4,48,0.00,,,0.00,VWS V14.01,2013-06-11 14:13:00,
2013-06-11 10:14:00,78.0,56.7,31.01,SW,219,0.0,5.4,48,0.00,,,0.00,VWS V14.01,2013-06-11 14:14:00,
2013-06-11 10:15:00,77.8,57.7,31.01,SW,219,0.0,0.0,50,0.00,,,0.00,VWS V14.01,2013-06-11 14:15:00,
2013-06-11 10:16:00,77.8,57.7,31.01,SSW,205,5.4,5.4,50,0.00,,,0.00,VWS V14.01,2013-06-11 14:16:00,
2013-06-11 10:17:00,77.8,57.7,31.01,NW,325,4.0,5.4,50,0.00,,,0.00,VWS V14.01,2013-06-11 14:17:00,
2013-06-11 10:18:00,77.8,57.7,31.01,NW,325,0.0,4.0,50,0.00,,,0.00,VWS V14.01,2013-06-11 14:18:00,
2013-06-11 10:19:00,77.8,57.7,31.01,NNW,332,0.0,0.0,50,0.00,,,0.00,VWS V14.01,2013-06-11 14:19:00,
2013-06-11 10:20:00,78.7,58.5,31.01,NNW,332,0.0,0.0,50,0.00,,,0.00,VWS V14.01,2013-06-11 14:20:00,
2013-06-11 10:21:00,78.7,58.5,31.01,WSW,237,3.1,3.1,50,0.00,,,0.00,VWS V14.01,2013-06-11 14:21:00,
2013-06-11 10:22:00,78.7,56.8,31.01,SSW,193,0.0,3.1,47,0.00,,,0.00,VWS V14.01,2013-06-11 14:22:00,
2013-06-11 10:23:00,78.7,56.8,31.01,SW,235,0.0,0.0,47,0.00,,,0.00,VWS V14.01,2013-06-11 14:23:00,
2013-06-11 10:24:00,78.7,57.4,31.01,SSE,154,0.0,0.0,48,0.00,,,0.00,VWS V14.01,2013-06-11 14:24:00,
2013-06-11 10:25:00,78.7,57.4,31.01,SSE,154,0.0,0.0,48,0.00,,,0.00,VWS V14.01,2013-06-11 14:25:00,
2013-06-11 10:26:00,78.7,57.4,31.01,SSE,154,0.0,0.0,48,0.00,,,0.00,VWS V14.01,2013-06-11 14:26:00,
2013-06-11 10:27:00,78.4,57.6,31.01,SSE,154,0.0,0.0,49,0.00,,,0.00,VWS V14.01,2013-06-11 14:27:00,
2013-06-11 10:28:00,78.4,57.1,31.01,NNW,327,0.0,2.2,48,0.00,,,0.00,VWS V14.01,2013-06-11 14:28:00,
2013-06-11 10:29:00,78.4,57.1,31.01,NNW,327,0.0,0.0,48,0.00,,,0.00,VWS V14.01,2013-06-11 14:29:00,
2013-06-11 10:30:00,78.4,57.1,31.01,NNW,327,0.0,0.0,48,0.00,,,0.00,VWS V14.01,2013-06-11 14:30:00,
2013-06-11 10:31:00,78.4,57.1,31.01,North,0,2.2,2.2,48,0.00,,,0.00,VWS V14.01,2013-06-11 14:31:00,
2013-06-11 10:32:00,78.4,58.2,31.01,South,176,0.0,2.2,50,0.00,,,0.00,VWS V14.01,2013-06-11 14:32:00,
2013-06-11 10:33:00,78.4,58.2,31.01,NW,306,0.0,2.7,50,0.00,,,0.00,VWS V14.01,2013-06-11 14:33:00,
2013-06-11 10:34:00,78.4,58.2,31.01,NW,306,0.0,0.0,50,0.00,,,0.00,VWS V14.01,2013-06-11 14:34:00,
2013-06-11 10:35:00,78.2,57.5,31.01,NE,42,0.0,0.0,49,0.00,,,0.00,VWS V14.01,2013-06-11 14:35:00,
2013-06-11 10:36:00,78.2,57.5,31.01,NE,42,0.0,0.0,49,0.00,,,0.00,VWS V14.01,2013-06-11 14:36:00,
2013-06-11 10:37:00,78.2,57.5,31.01,NE,42,0.0,0.0,49,0.00,,,0.00,VWS V14.01,2013-06-11 14:37:00,
2013-06-11 10:38:00,78.2,57.5,31.01,West,281,0.0,0.0,49,0.00,,,0.00,VWS V14.01,2013-06-11 14:38:00,
2013-06-11 10:39:00,78.4,57.6,31.01,SSE,147,0.0,0.0,49,0.00,,,0.00,VWS V14.01,2013-06-11 14:39:00,
2013-06-11 10:40:00,78.4,57.6,31.01,NNW,341,0.0,0.0,49,0.00,,,0.00,VWS V14.01,2013-06-11 14:40:00,
2013-06-11 10:41:00,78.4,57.6,31.01,SW,225,0.0,0.0,49,0.00,,,0.00,VWS V14.01,2013-06-11 14:41:00,
2013-06-11 10:42:00,78.4,57.6,31.01,South,187,0.0,0.0,49,0.00,,,0.00,VWS V14.01,2013-06-11 14:42:00,
2013-06-11 10:43:00,78.9,58.7,31.01,South,187,0.0,0.0,50,0.00,,,0.00,VWS V14.01,2013-06-11 14:43:00,
2013-06-11 10:44:00,79.3,58.5,31.01,SSE,151,0.0,0.0,49,0.00,,,0.00,VWS V14.01,2013-06-11 14:44:00,
2013-06-11 10:45:00,79.3,58.5,31.01,SSE,151,0.0,0.0,49,0.00,,,0.00,VWS V14.01,2013-06-11 14:45:00,
2013-06-11 10:46:00,79.8,59.0,31.01,NNW,327,0.0,0.0,49,0.00,,,0.00,VWS V14.01,2013-06-11 14:46:00,
2013-06-11 10:47:00,80.2,58.7,31.01,NW,326,0.0,0.0,48,0.00,,,0.00,VWS V14.01,2013-06-11 14:47:00,
2013-06-11 10:48:00,80.2,58.1,31.01,NW,326,0.0,0.0,47,0.00,,,0.00,VWS V14.01,2013-06-11 14:48:00,
2013-06-11 10:49:00,80.5,57.9,31.01,SSW,194,0.0,0.0,46,0.00,,,0.00,VWS V14.01,2013-06-11 14:49:00,
2013-06-11 10:50:00,80.5,57.9,31.01,SSW,194,0.0,0.0,46,0.00,,,0.00,VWS V14.01,2013-06-11 14:50:00,
2013-06-11 10:51:00,80.5,57.9,31.01,WSW,246,0.0,0.0,46,0.00,,,0.00,VWS V14.01,2013-06-11 14:51:00,
2013-06-11 10:52:00,80.3,56.5,31.01,West,265,2.2,2.2,44,0.00,,,0.00,VWS V14.01,2013-06-11 14:52:00,
2013-06-11 10:53:00,80.3,56.5,31.01,NNW,341,5.8,5.8,44,0.00,,,0.00,VWS V14.01,2013-06-11 14:53:00,
2013-06-11 10:54:00,80.2,56.3,31.01,SSW,213,0.0,5.8,44,0.00,,,0.00,VWS V14.01,2013-06-11 14:54:00,
2013-06-11 10:55:00,80.2,56.3,31.01,SW,233,0.0,0.0,44,0.00,,,0.00,VWS V14.01,2013-06-11 14:55:00,
2013-06-11 10:56:00,80.2,56.3,31.01,NW,310,3.1,3.1,44,0.00,,,0.00,VWS V14.01,2013-06-11 14:56:00,
2013-06-11 10:57:00,79.8,57.2,31.01,SW,234,2.7,3.1,46,0.00,,,0.00,VWS V14.01,2013-06-11 14:57:00,
2013-06-11 10:58:00,79.8,57.2,31.01,SW,234,2.7,2.7,46,0.00,,,0.00,VWS V14.01,2013-06-11 14:58:00,
2013-06-11 10:59:00,79.8,57.2,31.01,SW,234,0.0,2.7,46,0.00,,,0.00,VWS V14.01,2013-06-11 14:59:00,
2013-06-11 11:00:00,79.8,57.2,31.01,NW,319,0.0,0.0,46,0.00,,,0.00,VWS V14.01,2013-06-11 15:00:00,
2013-06-11 11:01:00,79.8,57.2,31.01,SW,233,0.0,0.0,46,0.00,,,0.00,VWS V14.01,2013-06-11 15:01:00,
2013-06-11 11:02:00,80.5,57.9,31.01,SW,233,0.0,0.0,46,0.00,,,0.00,VWS V14.01,2013-06-11 15:02:00,
2013-06-11 11:03:00,80.7,58.0,31.01,WSW,237,2.7,2.7,46,0.00,,,0.00,VWS V14.01,2013-06-11 15:03:00,
2013-06-11 11:04:00,80.9,57.0,31.01,WSW,237,2.7,2.7,44,0.00,,,0.00,VWS V14.01,2013-06-11 15:04:00,
2013-06-11 11:05:00,81.2,57.3,31.01,WSW,237,2.7,2.7,44,0.00,,,0.00,VWS V14.01,2013-06-11 15:05:00,
2013-06-11 11:06:00,81.2,57.3,31.01,West,280,6.3,6.3,44,0.00,,,0.00,VWS V14.01,2013-06-11 15:06:00,
2013-06-11 11:07:00,81.2,57.3,31.01,NNW,339,4.0,6.3,44,0.00,,,0.00,VWS V14.01,2013-06-11 15:07:00,
2013-06-11 11:08:00,81.2,57.3,31.01,WSW,238,0.0,4.0,44,0.00,,,0.00,VWS V14.01,2013-06-11 15:08:00,
2013-06-11 11:09:00,81.6,55.6,31.01,WSW,238,0.0,0.0,41,0.00,,,0.00,VWS V14.01,2013-06-11 15:09:00,
2013-06-11 11:10:00,81.6,55.6,31.01,WSW,247,3.6,3.6,41,0.00,,,0.00,VWS V14.01,2013-06-11 15:10:00,
2013-06-11 11:11:00,81.6,55.6,31.01,North,357,2.2,3.6,41,0.00,,,0.00,VWS V14.01,2013-06-11 15:11:00,
2013-06-11 11:12:00,81.8,56.5,31.01,North,357,0.0,2.2,42,0.00,,,0.00,VWS V14.01,2013-06-11 15:12:00,
2013-06-11 11:13:00,82.0,56.0,31.01,SSW,211,4.0,4.0,41,0.00,,,0.00,VWS V14.01,2013-06-11 15:13:00,
2013-06-11 11:14:00,82.0,56.0,31.01,SSW,208,0.0,4.0,41,0.00,,,0.00,VWS V14.01,2013-06-11 15:14:00,
2013-06-11 11:15:00,82.1,55.5,31.01,SW,234,0.0,3.6,40,0.00,,,0.00,VWS V14.01,2013-06-11 15:15:00,
2013-06-11 11:16:00,82.1,55.5,31.01,SW,234,0.0,0.0,40,0.00,,,0.00,VWS V14.01,2013-06-11 15:16:00,
2013-06-11 11:17:00,82.1,55.5,31.01,SW,235,0.0,2.2,40,0.00,,,0.00,VWS V14.01,2013-06-11 15:17:00,
2013-06-11 11:18:00,82.1,55.5,31.01,WNW,292,0.0,0.0,40,0.00,,,0.00,VWS V14.01,2013-06-11 15:18:00,
2013-06-11 11:19:00,82.3,55.6,31.01,WNW,292,0.0,0.0,40,0.00,,,0.00,VWS V14.01,2013-06-11 15:19:00,
2013-06-11 11:20:00,82.3,54.9,31.01,WNW,288,0.0,0.0,39,0.00,,,0.00,VWS V14.01,2013-06-11 15:20:00,
2013-06-11 11:21:00,82.1,54.8,31.01,WNW,285,0.0,0.0,39,0.00,,,0.00,VWS V14.01,2013-06-11 15:21:00,
2013-06-11 11:22:00,82.1,54.8,31.01,WNW,285,0.0,0.0,39,0.00,,,0.00,VWS V14.01,2013-06-11 15:22:00,
2013-06-11 11:23:00,82.1,54.8,31.01,WNW,285,0.0,0.0,39,0.00,,,0.00,VWS V14.01,2013-06-11 15:23:00,
2013-06-11 11:24:00,81.8,55.1,31.01,SSW,192,0.0,0.0,40,0.00,,,0.00,VWS V14.01,2013-06-11 15:24:00,
2013-06-11 11:25:00,81.6,55.6,31.01,SSW,201,0.0,0.0,41,0.00,,,0.00,VWS V14.01,2013-06-11 15:25:00,
2013-06-11 11:26:00,81.6,55.6,31.01,SSW,201,0.0,0.0,41,0.00,,,0.00,VWS V14.01,2013-06-11 15:26:00,
2013-06-11 11:27:00,81.4,56.2,31.01,WNW,290,0.0,2.7,42,0.00,,,0.00,VWS V14.01,2013-06-11 15:27:00,
2013-06-11 11:28:00,81.4,56.2,31.01,WNW,295,0.0,0.0,42,0.00,,,0.00,VWS V14.01,2013-06-11 15:28:00,
2013-06-11 11:29:00,81.6,57.0,31.01,WNW,295,0.0,0.0,43,0.00,,,0.00,VWS V14.01,2013-06-11 15:29:00,
2013-06-11 11:30:00,81.6,57.0,31.01,NNW,341,0.0,0.0,43,0.00,,,0.00,VWS V14.01,2013-06-11 15:30:00,
2013-06-11 11:31:00,81.8,57.1,31.01,WNW,301,0.0,0.0,43,0.00,,,0.00,VWS V14.01,2013-06-11 15:31:00,
2013-06-11 11:32:00,81.8,57.1,31.01,SW,219,2.7,2.7,43,0.00,,,0.00,VWS V14.01,2013-06-11 15:32:00,
2013-06-11 11:33:00,81.8,57.1,31.01,SW,219,2.7,2.7,43,0.00,,,0.00,VWS V14.01,2013-06-11 15:33:00,
2013-06-11 11:34:00,82.0,56.0,31.01,NW,318,0.0,2.7,41,0.00,,,0.00,VWS V14.01,2013-06-11 15:34:00,
2013-06-11 11:35:00,82.0,56.0,31.01,West,274,0.0,0.0,41,0.00,,,0.00,VWS V14.01,2013-06-11 15:35:00,
2013-06-11 11:36:00,82.0,56.0,31.01,SW,234,0.0,0.0,41,0.00,,,0.00,VWS V14.01,2013-06-11 15:36:00,
2013-06-11 11:37:00,82.0,56.0,31.01,NW,307,3.6,3.6,41,0.00,,,0.00,VWS V14.01,2013-06-11 15:37:00,
2013-06-11 11:38:00,82.0,56.0,31.01,NNW,336,0.0,3.6,41,0.00,,,0.00,VWS V14.01,2013-06-11 15:38:00,
2013-06-11 11:39:00,82.5,55.1,31.01,NNW,336,0.0,0.0,39,0.00,,,0.00,VWS V14.01,2013-06-11 15:39:00,
2013-06-11 11:40:00,82.5,55.1,31.01,WSW,240,2.7,2.7,39,0.00,,,0.00,VWS V14.01,2013-06-11 15:40:00,
2013-06-11 11:41:00,82.3,55.6,31.01,NW,320,8.7,8.7,40,0.00,,,0.00,VWS V14.01,2013-06-11 15:41:00,
2013-06-11 11:42:00,82.1,54.8,31.01,West,264,0.0,8.7,39,0.00,,,0.00,VWS V14.01,2013-06-11 15:42:00,
2013-06-11 11:43:00,82.1,54.8,31.01,SSE,167,3.6,3.6,39,0.00,,,0.00,VWS V14.01,2013-06-11 15:43:00,
2013-06-11 11:44:00,82.1,54.8,31.01,NW,318,0.0,3.6,39,0.00,,,0.00,VWS V14.01,2013-06-11 15:44:00,
2013-06-11 11:45:00,81.6,53.6,31.01,WSW,245,0.0,0.0,38,0.00,,,0.00,VWS V14.01,2013-06-11 15:45:00,
2013-06-11 11:46:00,81.4,54.1,31.01,WSW,245,0.0,0.0,39,0.00,,,0.00,VWS V14.01,2013-06-11 15:46:00,
2013-06-11 11:47:00,81.4,54.1,31.01,WSW,247,3.6,3.6,39,0.00,,,0.00,VWS V14.01,2013-06-11 15:47:00,
2013-06-11 11:48:00,81.4,54.1,31.01,West,268,3.1,3.6,39,0.00,,,0.00,VWS V14.01,2013-06-11 15:48:00,
2013-06-11 11:49:00,81.6,55.0,31.01,NNW,346,2.7,3.1,40,0.00,,,0.00,VWS V14.01,2013-06-11 15:49:00,
2013-06-11 11:50:00,81.8,55.1,31.01,NNW,336,4.0,4.0,40,0.00,,,0.00,VWS V14.01,2013-06-11 15:50:00,
2013-06-11 11:51:00,81.8,55.1,31.01,North,9,0.0,4.0,40,0.00,,,0.00,VWS V14.01,2013-06-11 15:51:00,
2013-06-11 11:52:00,81.8,55.1,31.01,WSW,246,3.1,3.1,40,0.00,,,0.00,VWS V14.01,2013-06-11 15:52:00,
2013-06-11 11:53:00,81.8,55.1,31.01,East,97,0.0,3.1,40,0.00,,,0.00,VWS V14.01,2013-06-11 15:53:00,
2013-06-11 11:54:00,81.8,55.1,31.01,East,93,0.0,0.0,40,0.00,,,0.00,VWS V14.01,2013-06-11 15:54:00,
2013-06-11 11:55:00,81.8,55.1,31.01,SW,219,0.0,0.0,40,0.00,,,0.00,VWS V14.01,2013-06-11 15:55:00,
2013-06-11 11:56:00,81.8,55.1,31.01,WSW,247,0.0,0.0,40,0.00,,,0.00,VWS V14.01,2013-06-11 15:56:00,
2013-06-11 11:57:00,82.0,54.6,31.01,WSW,247,0.0,0.0,39,0.00,,,0.00,VWS V14.01,2013-06-11 15:57:00,
2013-06-11 11:58:00,82.0,54.6,31.01,SW,230,2.2,2.2,39,0.00,,,0.00,VWS V14.01,2013-06-11 15:58:00,
2013-06-11 11:59:00,82.0,54.6,31.01,SSW,199,0.0,2.2,39,0.00,,,0.00,VWS V14.01,2013-06-11 15:59:00,
2013-06-11 12:00:00,82.0,53.2,31.01,SSW,199,0.0,0.0,37,0.00,,,0.00,VWS V14.01,2013-06-11 16:00:00,
2013-06-11 12:01:00,82.0,53.2,31.01,SW,226,0.0,0.0,37,0.00,,,0.00,VWS V14.01,2013-06-11 16:01:00,
2013-06-11 12:02:00,81.8,53.7,31.01,North,0,5.4,5.4,38,0.00,,,0.00,VWS V14.01,2013-06-11 16:02:00,
2013-06-11 12:03:00,81.8,53.7,31.01,WSW,237,2.7,5.4,38,0.00,,,0.00,VWS V14.01,2013-06-11 16:03:00,
2013-06-11 12:04:00,81.8,53.7,31.01,WSW,237,2.7,2.7,38,0.00,,,0.00,VWS V14.01,2013-06-11 16:04:00,
2013-06-11 12:05:00,81.4,53.4,31.01,NW,314,0.0,2.7,38,0.00,,,0.00,VWS V14.01,2013-06-11 16:05:00,
2013-06-11 12:06:00,81.2,54.0,31.01,WNW,303,4.9,4.9,39,0.00,,,0.00,VWS V14.01,2013-06-11 16:06:00,
2013-06-11 12:07:00,81.2,54.0,31.01,WNW,292,2.7,4.9,39,0.00,,,0.00,VWS V14.01,2013-06-11 16:07:00,
2013-06-11 12:08:00,81.2,54.0,31.01,WNW,303,0.0,2.7,39,0.00,,,0.00,VWS V14.01,2013-06-11 16:08:00,
2013-06-11 12:09:00,81.2,54.0,31.01,SSE,159,3.6,3.6,39,0.00,,,0.00,VWS V14.01,2013-06-11 16:09:00,
2013-06-11 12:10:00,81.2,54.0,31.01,West,260,2.2,3.6,39,0.00,,,0.00,VWS V14.01,2013-06-11 16:10:00,
2013-06-11 12:11:00,81.6,54.3,31.01,West,260,2.2,2.2,39,0.00,,,0.00,VWS V14.01,2013-06-11 16:11:00,
2013-06-11 12:12:00,81.6,54.3,31.01,NW,315,0.0,2.2,39,0.00,,,0.00,VWS V14.01,2013-06-11 16:12:00,
2013-06-11 12:13:00,81.8,54.4,31.01,NW,323,0.0,0.0,39,0.00,,,0.00,VWS V14.01,2013-06-11 16:13:00,
2013-06-11 12:14:00,81.8,54.4,31.01,North,353,0.0,0.0,39,0.00,,,0.00,VWS V14.01,2013-06-11 16:14:00,
2013-06-11 12:15:00,81.8,53.7,31.01,North,353,0.0,0.0,38,0.00,,,0.00,VWS V14.01,2013-06-11 16:15:00,
2013-06-11 12:16:00,82.0,54.6,31.01,West,269,0.0,3.1,39,0.00,,,0.00,VWS V14.01,2013-06-11 16:16:00,
2013-06-11 12:17:00,82.0,54.6,31.01,WNW,298,0.0,0.0,39,0.00,,,0.00,VWS V14.01,2013-06-11 16:17:00,
2013-06-11 12:18:00,82.0,54.6,31.01,South,191,0.0,0.0,39,0.00,,,0.00,VWS V14.01,2013-06-11 16:18:00,
2013-06-11 12:19:00,82.5,54.4,31.01,SW,235,2.2,2.2,38,0.00,,,0.00,VWS V14.01,2013-06-11 16:19:00,
2013-06-11 12:20:00,82.5,54.4,31.01,NW,324,3.1,3.1,38,0.00,,,0.00,VWS V14.01,2013-06-11 16:20:00,
2013-06-11 12:21:00,82.7,53.8,31.01,SW,217,4.0,4.0,37,0.00,,,0.00,VWS V14.01,2013-06-11 16:21:00,
2013-06-11 12:22:00,82.7,53.8,31.01,SW,217,4.0,4.0,37,0.00,,,0.00,VWS V14.01,2013-06-11 16:22:00,
2013-06-11 12:23:00,83.0,54.1,31.01,SSW,202,3.1,4.0,37,0.00,,,0.00,VWS V14.01,2013-06-11 16:23:00,
2013-06-11 12:24:00,83.0,54.1,31.01,WNW,283,0.0,3.6,37,0.00,,,0.00,VWS V14.01,2013-06-11 16:24:00,
2013-06-11 12:25:00,83.0,54.1,31.01,WNW,283,0.0,0.0,37,0.00,,,0.00,VWS V14.01,2013-06-11 16:25:00,
2013-06-11 12:26:00,83.4,53.7,31.01,NNW,336,0.0,0.0,36,0.00,,,0.00,VWS V14.01,2013-06-11 16:26:00,
2013-06-11 12:27:00,83.6,53.1,31.01,SW,229,4.0,4.0,35,0.00,,,0.00,VWS V14.01,2013-06-11 16:27:00,
2013-06-11 12:28:00,83.6,53.1,31.01,SW,229,4.0,4.0,35,0.00,,,0.00,VWS V14.01,2013-06-11 16:28:00,
2013-06-11 12:29:00,83.8,53.2,31.01,SW,233,5.4,5.4,35,0.00,,,0.00,VWS V14.01,2013-06-11 16:29:00,
2013-06-11 12:30:00,83.8,53.2,31.01,SE,125,0.0,5.4,35,0.00,,,0.00,VWS V14.01,2013-06-11 16:30:00,
2013-06-11 12:31:00,84.1,53.5,31.01,WSW,244,2.2,2.2,35,0.00,,,0.00,VWS V14.01,2013-06-11 16:31:00,
2013-06-11 12:32:00,84.1,53.5,31.01,WSW,245,0.0,2.2,35,0.00,,,0.00,VWS V14.01,2013-06-11 16:32:00,
2013-06-11 12:33:00,84.1,53.5,31.01,WSW,245,0.0,0.0,35,0.00,,,0.00,VWS V14.01,2013-06-11 16:33:00,
2013-06-11 12:34:00,84.1,53.5,31.01,SSE,154,2.7,2.7,35,0.00,,,0.00,VWS V14.01,2013-06-11 16:34:00,
2013-06-11 12:35:00,84.8,54.2,31.01,SSE,154,2.7,2.7,35,0.00,,,0.00,VWS V14.01,2013-06-11 16:35:00,
2013-06-11 12:36:00,84.8,54.2,31.01,WNW,303,4.0,4.0,35,0.00,,,0.00,VWS V14.01,2013-06-11 16:36:00,
2013-06-11 12:37:00,84.7,54.0,31.01,WSW,240,0.0,4.0,35,0.00,,,0.00,VWS V14.01,2013-06-11 16:37:00,
2013-06-11 12:38:00,84.5,53.8,31.01,SW,228,0.0,0.0,35,0.00,,,0.00,VWS V14.01,2013-06-11 16:38:00,
2013-06-11 12:39:00,84.5,53.8,31.01,West,278,2.7,2.7,35,0.00,,,0.00,VWS V14.01,2013-06-11 16:39:00,
2013-06-11 12:40:00,83.9,53.4,31.01,West,278,2.7,2.7,35,0.00,,,0.00,VWS V14.01,2013-06-11 16:40:00,
2013-06-11 12:41:00,83.9,53.4,31.01,South,190,2.2,5.4,35,0.00,,,0.00,VWS V14.01,2013-06-11 16:41:00,
2013-06-11 12:42:00,83.8,53.2,31.01,South,190,2.2,2.2,35,0.00,,,0.00,VWS V14.01,2013-06-11 16:42:00,
2013-06-11 12:43:00,83.6,52.3,31.01,WSW,243,4.9,4.9,34,0.00,,,0.00,VWS V14.01,2013-06-11 16:43:00,
2013-06-11 12:44:00,83.6,52.3,31.01,SW,216,3.6,4.9,34,0.00,,,0.00,VWS V14.01,2013-06-11 16:44:00,
2013-06-11 12:45:00,83.6,52.3,31.01,SW,235,2.7,3.6,34,0.00,,,0.00,VWS V14.01,2013-06-11 16:45:00,
2013-06-11 12:46:00,83.6,52.3,31.01,SW,235,2.7,2.7,34,0.00,,,0.00,VWS V14.01,2013-06-11 16:46:00,
2013-06-11 12:47:00,83.4,52.9,31.01,SW,218,0.0,2.7,35,0.00,,,0.00,VWS V14.01,2013-06-11 16:47:00,
2013-06-11 12:48:00,83.4,52.9,31.01,South,188,2.7,2.7,35,0.00,,,0.00,VWS V14.01,2013-06-11 16:48:00,
2013-06-11 12:49:00,83.4,52.9,31.01,WSW,256,0.0,2.7,35,0.00,,,0.00,VWS V14.01,2013-06-11 16:49:00,
2013-06-11 12:50:00,83.4,52.9,31.01,WSW,243,0.0,0.0,35,0.00,,,0.00,VWS V14.01,2013-06-11 16:50:00,
2013-06-11 12:51:00,83.4,52.9,31.01,SE,138,3.1,3.1,35,0.00,,,0.00,VWS V14.01,2013-06-11 16:51:00,
2013-06-11 12:52:00,83.4,52.9,31.01,WSW,247,3.6,3.6,35,0.00,,,0.00,VWS V14.01,2013-06-11 16:52:00,
2013-06-11 12:53:00,83.4,52.9,31.01,WSW,244,3.1,3.6,35,0.00,,,0.00,VWS V14.01,2013-06-11 16:53:00,
2013-06-11 12:54:00,83.4,52.9,31.01,South,187,2.2,3.1,35,0.00,,,0.00,VWS V14.01,2013-06-11 16:54:00,
2013-06-11 12:55:00,83.4,52.9,31.01,NNE,20,0.0,3.6,35,0.00,,,0.00,VWS V14.01,2013-06-11 16:55:00,
2013-06-11 12:56:00,83.6,53.1,31.01,NNE,20,0.0,0.0,35,0.00,,,0.00,VWS V14.01,2013-06-11 16:56:00,
2013-06-11 12:57:00,83.4,52.9,31.01,NNE,20,0.0,0.0,35,0.00,,,0.00,VWS V14.01,2013-06-11 16:57:00,
2013-06-11 12:58:00,83.4,52.9,31.01,WSW,237,4.0,4.0,35,0.00,,,0.00,VWS V14.01,2013-06-11 16:58:00,
2013-06-11 12:59:00,83.4,52.9,31.01,SW,217,3.1,4.0,35,0.00,,,0.00,VWS V14.01,2013-06-11 16:59:00,
2013-06-11 13:00:00,83.4,52.1,31.01,SSE,168,2.7,3.1,34,0.00,,,0.00,VWS V14.01,2013-06-11 17:00:00,
2013-06-11 13:01:00,83.4,52.1,31.01,SSE,168,2.7,2.7,34,0.00,,,0.00,VWS V14.01,2013-06-11 17:01:00,
2013-06-11 13:02:00,83.4,52.1,31.01,WSW,249,2.7,2.7,34,0.00,,,0.00,VWS V14.01,2013-06-11 17:02:00,
2013-06-11 13:03:00,83.4,52.9,31.01,WSW,249,2.7,2.7,35,0.00,,,0.00,VWS V14.01,2013-06-11 17:03:00,
2013-06-11 13:04:00,83.4,52.9,31.01,WSW,249,2.7,2.7,35,0.00,,,0.00,VWS V14.01,2013-06-11 17:04:00,
2013-06-11 13:05:00,83.4,52.9,31.01,SW,230,3.1,3.6,35,0.00,,,0.00,VWS V14.01,2013-06-11 17:05:00,
2013-06-11 13:06:00,83.4,52.9,31.01,WSW,242,0.0,0.0,35,0.00,,,0.00,VWS V14.01,2013-06-11 17:06:00,
2013-06-11 13:07:00,83.4,52.9,31.01,NW,307,3.1,3.1,35,0.00,,,0.00,VWS V14.01,2013-06-11 17:07:00,
2013-06-11 13:08:00,83.9,53.4,31.01,NW,307,3.1,3.1,35,0.00,,,0.00,VWS V14.01,2013-06-11 17:08:00,
2013-06-11 13:09:00,84.1,53.5,31.01,NW,308,0.0,3.6,35,0.00,,,0.00,VWS V14.01,2013-06-11 17:09:00,
2013-06-11 13:10:00,84.1,53.5,31.01,NW,314,0.0,0.0,35,0.00,,,0.00,VWS V14.01,2013-06-11 17:10:00,
2013-06-11 13:11:00,84.1,53.5,31.01,WNW,289,2.7,2.7,35,0.00,,,0.00,VWS V14.01,2013-06-11 17:11:00,
2013-06-11 13:12:00,83.8,53.2,31.01,NNE,28,2.7,2.7,35,0.00,,,0.00,VWS V14.01,2013-06-11 17:12:00,
2013-06-11 13:13:00,83.8,53.2,31.01,East,101,0.0,2.7,35,0.00,,,0.00,VWS V14.01,2013-06-11 17:13:00,
2013-06-11 13:14:00,83.6,53.1,31.01,ESE,116,2.7,2.7,35,0.00,,,0.00,VWS V14.01,2013-06-11 17:14:00,
2013-06-11 13:15:00,83.6,53.1,31.01,ESE,116,2.7,2.7,35,0.00,,,0.00,VWS V14.01,2013-06-11 17:15:00,
2013-06-11 13:16:00,83.6,53.1,31.01,WSW,258,0.0,0.0,35,0.00,,,0.00,VWS V14.01,2013-06-11 17:16:00,
2013-06-11 13:17:00,83.6,53.1,31.01,WNW,297,4.0,4.0,35,0.00,,,0.00,VWS V14.01,2013-06-11 17:17:00,
2013-06-11 13:18:00,83.6,53.1,31.01,WNW,297,4.0,4.0,35,0.00,,,0.00,VWS V14.01,2013-06-11 17:18:00,
2013-06-11 13:19:00,83.6,53.1,31.01,SSW,206,3.1,4.9,35,0.00,,,0.00,VWS V14.01,2013-06-11 17:19:00,
2013-06-11 13:20:00,83.8,52.4,31.01,NW,324,0.0,4.0,34,0.00,,,0.00,VWS V14.01,2013-06-11 17:20:00,
2013-06-11 13:21:00,83.8,52.4,31.01,West,276,3.6,3.6,34,0.00,,,0.00,VWS V14.01,2013-06-11 17:21:00,
2013-06-11 13:22:00,83.8,52.4,31.01,West,276,3.6,3.6,34,0.00,,,0.00,VWS V14.01,2013-06-11 17:22:00,
2013-06-11 13:23:00,83.8,53.2,31.01,WNW,285,3.1,3.6,35,0.00,,,0.00,VWS V14.01,2013-06-11 17:23:00,
2013-06-11 13:24:00,83.8,53.2,31.01,NW,317,3.1,3.1,35,0.00,,,0.00,VWS V14.01,2013-06-11 17:24:00,
2013-06-11 13:25:00,83.6,53.1,31.01,North,353,0.0,3.1,35,0.00,,,0.00,VWS V14.01,2013-06-11 17:25:00,
2013-06-11 13:26:00,83.6,53.1,31.01,NNW,335,2.7,2.7,35,0.00,,,0.00,VWS V14.01,2013-06-11 17:26:00,
2013-06-11 13:27:00,83.6,53.1,31.01,SSW,197,2.7,2.7,35,0.00,,,0.00,VWS V14.01,2013-06-11 17:27:00,
2013-06-11 13:28:00,83.6,53.1,31.01,NNW,339,0.0,5.4,35,0.00,,,0.00,VWS V14.01,2013-06-11 17:28:00,
2013-06-11 13:29:00,83.2,52.8,31.01,NNW,339,0.0,0.0,35,0.00,,,0.00,VWS V14.01,2013-06-11 17:29:00,
2013-06-11 13:30:00,83.2,52.8,31.01,NNE,25,5.4,5.4,35,0.00,,,0.00,VWS V14.01,2013-06-11 17:30:00,
2013-06-11 13:31:00,83.2,52.8,31.01,WNW,284,0.0,5.4,35,0.00,,,0.00,VWS V14.01,2013-06-11 17:31:00,
2013-06-11 13:32:00,83.2,52.0,31.01,WNW,284,0.0,0.0,34,0.00,,,0.00,VWS V14.01,2013-06-11 17:32:00,
2013-06-11 13:33:00,83.2,52.8,31.01,ESE,116,2.7,4.0,35,0.00,,,0.00,VWS V14.01,2013-06-11 17:33:00,
2013-06-11 13:34:00,83.2,52.8,31.01,SW,224,3.1,3.1,35,0.00,,,0.00,VWS V14.01,2013-06-11 17:34:00,
2013-06-11 13:35:00,83.2,52.8,31.01,SW,224,0.0,3.1,35,0.00,,,0.00,VWS V14.01,2013-06-11 17:35:00,
2013-06-11 13:36:00,83.2,52.8,31.01,NE,41,5.4,5.4,35,0.00,,,0.00,VWS V14.01,2013-06-11 17:36:00,
2013-06-11 13:37:00,83.2,52.8,31.01,SW,216,5.8,5.8,35,0.00,,,0.00,VWS V14.01,2013-06-11 17:37:00,
2013-06-11 13:38:00,84.3,52.9,31.01,SW,216,5.8,5.8,34,0.00,,,0.00,VWS V14.01,2013-06-11 17:38:00,
2013-06-11 13:39:00,84.3,52.9,31.01,NW,316,4.0,5.8,34,0.00,,,0.00,VWS V14.01,2013-06-11 17:39:00,
2013-06-11 13:40:00,84.5,53.1,31.01,SSW,198,0.0,4.0,34,0.00,,,0.00,VWS V14.01,2013-06-11 17:40:00,
2013-06-11 13:41:00,84.5,53.1,31.01,SSW,198,0.0,0.0,34,0.00,,,0.00,VWS V14.01,2013-06-11 17:41:00,
2013-06-11 13:42:00,84.5,53.1,31.01,WNW,299,3.6,3.6,34,0.00,,,0.00,VWS V14.01,2013-06-11 17:42:00,
2013-06-11 13:43:00,84.5,53.1,31.01,South,180,3.1,3.6,34,0.00,,,0.00,VWS V14.01,2013-06-11 17:43:00,
2013-06-11 13:44:00,84.7,53.2,31.01,WSW,239,0.0,3.1,34,0.00,,,0.00,VWS V14.01,2013-06-11 17:44:00,
2013-06-11 13:45:00,84.7,53.2,31.01,ESE,107,0.0,0.0,34,0.00,,,0.00,VWS V14.01,2013-06-11 17:45:00,
2013-06-11 13:46:00,84.7,54.0,31.01,SW,219,5.4,5.4,35,0.00,,,0.00,VWS V14.01,2013-06-11 17:46:00,
2013-06-11 13:47:00,84.8,54.2,31.01,SW,233,4.0,5.4,35,0.00,,,0.00,VWS V14.01,2013-06-11 17:47:00,
2013-06-11 13:48:00,85.0,53.5,31.01,SW,229,2.7,4.0,34,0.00,,,0.00,VWS V14.01,2013-06-11 17:48:00,
2013-06-11 13:49:00,85.2,52.9,31.01,SW,229,2.7,2.7,33,0.00,,,0.00,VWS V14.01,2013-06-11 17:49:00,
2013-06-11 13:50:00,85.2,52.9,31.01,South,172,2.7,4.0,33,0.00,,,0.00,VWS V14.01,2013-06-11 17:50:00,
2013-06-11 13:51:00,85.2,52.9,31.01,West,260,4.0,4.0,33,0.00,,,0.00,VWS V14.01,2013-06-11 17:51:00,
2013-06-11 13:52:00,85.2,52.9,31.01,SW,214,0.0,0.0,33,0.00,,,0.00,VWS V14.01,2013-06-11 17:52:00,
2013-06-11 13:53:00,85.2,52.9,31.01,SSW,207,4.0,5.4,33,0.00,,,0.00,VWS V14.01,2013-06-11 17:53:00,
2013-06-11 13:54:00,85.2,52.9,31.01,WSW,238,0.0,4.0,33,0.00,,,0.00,VWS V14.01,2013-06-11 17:54:00,
2013-06-11 13:55:00,85.2,52.9,31.01,WSW,239,0.0,0.0,33,0.00,,,0.00,VWS V14.01,2013-06-11 17:55:00,
2013-06-11 13:56:00,85.9,54.3,31.01,WSW,239,0.0,0.0,34,0.00,,,0.00,VWS V14.01,2013-06-11 17:56:00,
2013-06-11 13:57:00,86.1,53.7,31.01,WSW,257,4.0,4.0,33,0.00,,,0.00,VWS V14.01,2013-06-11 17:57:00,
2013-06-11 13:58:00,86.1,53.7,31.01,NW,314,4.0,4.0,33,0.00,,,0.00,VWS V14.01,2013-06-11 17:58:00,
2013-06-11 13:59:00,86.1,53.7,31.01,NW,314,4.0,4.0,33,0.00,,,0.00,VWS V14.01,2013-06-11 17:59:00,
2013-06-11 14:00:00,86.1,53.7,31.01,SW,236,5.8,5.8,33,0.00,,,0.00,VWS V14.01,2013-06-11 18:00:00,
2013-06-11 14:01:00,86.1,53.7,31.01,NW,322,3.1,5.8,33,0.00,,,0.00,VWS V14.01,2013-06-11 18:01:00,
2013-06-11 14:02:00,85.9,53.5,31.01,WSW,245,3.6,3.6,33,0.00,,,0.00,VWS V14.01,2013-06-11 18:02:00,
2013-06-11 14:03:00,85.9,53.5,31.01,WSW,245,3.6,3.6,33,0.00,,,0.00,VWS V14.01,2013-06-11 18:03:00,
2013-06-11 14:04:00,85.7,53.3,31.01,WSW,245,3.6,3.6,33,0.00,,,0.00,VWS V14.01,2013-06-11 18:04:00,
2013-06-11 14:05:00,85.7,53.3,31.01,North,1,0.0,3.6,33,0.00,,,0.00,VWS V14.01,2013-06-11 18:05:00,
2013-06-11 14:06:00,85.6,53.2,31.01,SW,225,3.6,3.6,33,0.00,,,0.00,VWS V14.01,2013-06-11 18:06:00,
2013-06-11 14:07:00,85.6,53.2,31.01,SW,231,4.0,4.0,33,0.00,,,0.00,VWS V14.01,2013-06-11 18:07:00,
2013-06-11 14:08:00,85.6,53.2,31.01,SW,231,4.0,4.0,33,0.00,,,0.00,VWS V14.01,2013-06-11 18:08:00,
2013-06-11 14:09:00,85.6,53.2,31.01,WNW,297,3.6,4.0,33,0.00,,,0.00,VWS V14.01,2013-06-11 18:09:00,
2013-06-11 14:10:00,85.2,52.9,31.01,WNW,297,3.6,3.6,33,0.00,,,0.00,VWS V14.01,2013-06-11 18:10:00,
2013-06-11 14:11:00,85.2,52.9,31.01,West,271,2.7,3.6,33,0.00,,,0.00,VWS V14.01,2013-06-11 18:11:00,
2013-06-11 14:12:00,85.2,52.9,31.01,NE,37,4.0,4.0,33,0.00,,,0.00,VWS V14.01,2013-06-11 18:12:00,
2013-06-11 14:13:00,85.2,52.9,31.01,NE,37,4.0,4.0,33,0.00,,,0.00,VWS V14.01,2013-06-11 18:13:00,
2013-06-11 14:14:00,85.2,52.9,31.01,NNW,338,6.3,6.3,33,0.00,,,0.00,VWS V14.01,2013-06-11 18:14:00,
2013-06-11 14:15:00,85.4,53.8,31.01,SW,222,4.0,6.3,34,0.00,,,0.00,VWS V14.01,2013-06-11 18:15:00,
2013-06-11 14:16:00,85.4,53.8,31.01,SW,226,3.1,4.0,34,0.00,,,0.00,VWS V14.01,2013-06-11 18:16:00,
2013-06-11 14:17:00,85.4,53.8,31.01,South,191,2.7,3.1,34,0.00,,,0.00,VWS V14.01,2013-06-11 18:17:00,
2013-06-11 14:18:00,85.7,53.3,31.01,South,191,2.7,3.1,33,0.00,,,0.00,VWS V14.01,2013-06-11 18:18:00,
2013-06-11 14:19:00,85.7,53.3,31.01,South,183,3.6,3.6,33,0.00,,,0.00,VWS V14.01,2013-06-11 18:19:00,
2013-06-11 14:20:00,85.7,53.3,31.01,SW,229,3.1,3.6,33,0.00,,,0.00,VWS V14.01,2013-06-11 18:20:00,
2013-06-11 14:21:00,85.7,53.3,31.01,SW,229,3.1,3.1,33,0.00,,,0.00,VWS V14.01,2013-06-11 18:21:00,
2013-06-11 14:22:00,86.3,54.6,31.01,WSW,240,0.0,2.7,34,0.00,,,0.00,VWS V14.01,2013-06-11 18:22:00,
2013-06-11 14:23:00,86.3,54.6,31.01,WSW,240,0.0,2.7,34,0.00,,,0.00,VWS V14.01,2013-06-11 18:23:00,
2013-06-11 14:24:00,86.3,54.6,31.01,South,191,0.0,0.0,34,0.00,,,0.00,VWS V14.01,2013-06-11 18:24:00,
2013-06-11 14:25:00,86.5,54.0,31.01,South,191,0.0,0.0,33,0.00,,,0.00,VWS V14.01,2013-06-11 18:25:00,
2013-06-11 14:26:00,86.5,54.0,31.01,WNW,290,3.1,3.1,33,0.00,,,0.00,VWS V14.01,2013-06-11 18:26:00,
2013-06-11 14:27:00,86.1,53.7,31.01,NW,321,6.7,6.7,33,0.00,,,0.00,VWS V14.01,2013-06-11 18:27:00,
2013-06-11 14:28:00,86.1,53.7,31.01,WNW,286,0.0,6.7,33,0.00,,,0.00,VWS V14.01,2013-06-11 18:28:00,
2013-06-11 14:29:00,86.1,53.7,31.01,WSW,244,4.0,4.0,33,0.00,,,0.00,VWS V14.01,2013-06-11 18:29:00,
2013-06-11 14:30:00,85.2,52.9,31.01,NW,316,0.0,4.0,33,0.00,,,0.00,VWS V14.01,2013-06-11 18:30:00,
2013-06-11 14:31:00,85.2,52.9,31.01,South,180,0.0,0.0,33,0.00,,,0.00,VWS V14.01,2013-06-11 18:31:00,
2013-06-11 14:32:00,84.7,53.2,31.01,South,180,0.0,0.0,34,0.00,,,0.00,VWS V14.01,2013-06-11 18:32:00,
2013-06-11 14:33:00,84.7,53.2,31.01,South,181,0.0,0.0,34,0.00,,,0.00,VWS V14.01,2013-06-11 18:33:00,
2013-06-11 14:34:00,84.7,53.2,31.01,North,0,2.2,2.2,34,0.00,,,0.00,VWS V14.01,2013-06-11 18:34:00,
2013-06-11 14:35:00,84.5,53.1,31.01,SSW,203,3.6,3.6,34,0.00,,,0.00,VWS V14.01,2013-06-11 18:35:00,
2013-06-11 14:36:00,84.5,53.1,31.01,SSW,203,3.6,3.6,34,0.00,,,0.00,VWS V14.01,2013-06-11 18:36:00,
2013-06-11 14:37:00,84.5,53.1,31.01,WSW,241,3.1,3.6,34,0.00,,,0.00,VWS V14.01,2013-06-11 18:37:00,
2013-06-11 14:38:00,84.5,53.1,31.01,SW,220,3.1,3.1,34,0.00,,,0.00,VWS V14.01,2013-06-11 18:38:00,
2013-06-11 14:39:00,84.5,53.1,31.01,East,97,3.6,3.6,34,0.00,,,0.00,VWS V14.01,2013-06-11 18:39:00,
2013-06-11 14:40:00,84.5,53.1,31.01,NNW,337,2.7,3.6,34,0.00,,,0.00,VWS V14.01,2013-06-11 18:40:00,
2013-06-11 14:41:00,84.7,53.2,31.01,NNW,337,2.7,2.7,34,0.00,,,0.00,VWS V14.01,2013-06-11 18:41:00,
2013-06-11 14:42:00,84.7,53.2,31.01,NNW,338,6.3,6.3,34,0.00,,,0.00,VWS V14.01,2013-06-11 18:42:00,
2013-06-11 14:43:00,84.7,53.2,31.01,NNW,338,6.3,6.3,34,0.00,,,0.00,VWS V14.01,2013-06-11 18:43:00,
2013-06-11 14:44:00,84.7,53.2,31.01,SW,218,4.5,4.5,34,0.00,,,0.00,VWS V14.01,2013-06-11 18:44:00,
2013-06-11 14:45:00,84.7,53.2,31.01,SE,142,0.0,4.5,34,0.00,,,0.00,VWS V14.01,2013-06-11 18:45:00,
2013-06-11 14:46:00,84.7,53.2,31.01,NW,308,2.2,2.2,34,0.00,,,0.00,VWS V14.01,2013-06-11 18:46:00,
2013-06-11 14:47:00,85.2,52.9,31.01,West,265,2.7,4.0,33,0.00,,,0.00,VWS V14.01,2013-06-11 18:47:00,
2013-06-11 14:48:00,85.2,52.9,31.01,West,265,2.7,2.7,33,0.00,,,0.00,VWS V14.01,2013-06-11 18:48:00,
2013-06-11 14:49:00,85.2,52.9,31.01,SW,218,6.7,6.7,33,0.00,,,0.00,VWS V14.01,2013-06-11 18:49:00,
2013-06-11 14:50:00,85.2,52.9,31.01,SW,218,6.7,6.7,33,0.00,,,0.00,VWS V14.01,2013-06-11 18:50:00,
2013-06-11 14:51:00,84.8,52.6,31.01,West,260,3.6,6.7,33,0.00,,,0.00,VWS V14.01,2013-06-11 18:51:00,
2013-06-11 14:52:00,84.8,52.6,31.01,SW,225,0.0,3.6,33,0.00,,,0.00,VWS V14.01,2013-06-11 18:52:00,
2013-06-11 14:53:00,84.8,52.6,31.01,SW,225,0.0,0.0,33,0.00,,,0.00,VWS V14.01,2013-06-11 18:53:00,
2013-06-11 14:54:00,84.8,52.6,31.01,NNW,337,0.0,0.0,33,0.00,,,0.00,VWS V14.01,2013-06-11 18:54:00,
2013-06-11 14:55:00,84.8,52.6,31.01,NNW,337,0.0,0.0,33,0.00,,,0.00,VWS V14.01,2013-06-11 18:55:00,
2013-06-11 14:56:00,84.1,51.9,31.01,North,2,2.7,2.7,33,0.00,,,0.00,VWS V14.01,2013-06-11 18:56:00,
2013-06-11 14:57:00,84.1,51.9,31.01,NNW,330,2.7,2.7,33,0.00,,,0.00,VWS V14.01,2013-06-11 18:57:00,
2013-06-11 14:58:00,83.8,51.6,31.01,WNW,285,2.2,4.9,33,0.00,,,0.00,VWS V14.01,2013-06-11 18:58:00,
2013-06-11 14:59:00,83.8,51.6,31.01,NNW,338,2.7,2.7,33,0.00,,,0.00,VWS V14.01,2013-06-11 18:59:00,
2013-06-11 15:00:00,83.2,52.0,31.01,WNW,287,3.6,3.6,34,0.00,,,0.00,VWS V14.01,2013-06-11 19:00:00,
2013-06-11 15:01:00,83.2,52.0,31.01,North,353,2.7,3.6,34,0.00,,,0.00,VWS V14.01,2013-06-11 19:01:00,
2013-06-11 15:02:00,83.2,52.0,31.01,North,353,2.7,2.7,34,0.00,,,0.00,VWS V14.01,2013-06-11 19:02:00,
2013-06-11 15:03:00,83.0,51.8,31.01,North,353,2.7,2.7,34,0.00,,,0.00,VWS V14.01,2013-06-11 19:03:00,
2013-06-11 15:04:00,83.0,51.8,31.01,NW,312,3.1,3.1,34,0.00,,,0.00,VWS V14.01,2013-06-11 19:04:00,
2013-06-11 15:05:00,83.0,51.8,31.01,NW,314,3.1,3.1,34,0.00,,,0.00,VWS V14.01,2013-06-11 19:05:00,
2013-06-11 15:06:00,83.0,51.8,31.01,West,263,3.6,3.6,34,0.00,,,0.00,VWS V14.01,2013-06-11 19:06:00,
2013-06-11 15:07:00,82.9,52.4,31.01,NNW,333,0.0,3.6,35,0.00,,,0.00,VWS V14.01,2013-06-11 19:07:00,
2013-06-11 15:08:00,82.9,52.4,31.01,WNW,288,0.0,0.0,35,0.00,,,0.00,VWS V14.01,2013-06-11 19:08:00,
2013-06-11 15:09:00,82.9,52.4,31.01,WNW,288,0.0,0.0,35,0.00,,,0.00,VWS V14.01,2013-06-11 19:09:00,
2013-06-11 15:10:00,82.9,52.4,31.01,North,11,3.1,3.1,35,0.00,,,0.00,VWS V14.01,2013-06-11 19:10:00,
2013-06-11 15:11:00,82.9,52.4,31.01,West,266,0.0,3.1,35,0.00,,,0.00,VWS V14.01,2013-06-11 19:11:00,
2013-06-11 15:12:00,82.9,52.4,31.01,West,269,3.6,3.6,35,0.00,,,0.00,VWS V14.01,2013-06-11 19:12:00,
2013-06-11 15:13:00,82.7,52.3,31.01,WNW,295,3.1,3.1,35,0.00,,,0.00,VWS V14.01,2013-06-11 19:13:00,
2013-06-11 15:14:00,82.7,52.3,31.01,WNW,295,3.1,3.1,35,0.00,,,0.00,VWS V14.01,2013-06-11 19:14:00,
2013-06-11 15:15:00,82.7,52.3,31.01,North,4,0.0,3.6,35,0.00,,,0.00,VWS V14.01,2013-06-11 19:15:00,
2013-06-11 15:16:00,82.7,52.3,31.01,North,4,0.0,0.0,35,0.00,,,0.00,VWS V14.01,2013-06-11 19:16:00,
2013-06-11 15:17:00,82.1,51.8,31.01,North,4,0.0,0.0,35,0.00,,,0.00,VWS V14.01,2013-06-11 19:17:00,
2013-06-11 15:18:00,82.1,51.8,31.01,WNW,287,0.0,0.0,35,0.00,,,0.00,VWS V14.01,2013-06-11 19:18:00,
2013-06-11 15:19:00,82.1,51.8,31.01,WNW,287,0.0,0.0,35,0.00,,,0.00,VWS V14.01,2013-06-11 19:19:00,
2013-06-11 15:20:00,81.8,52.2,31.01,WNW,291,0.0,0.0,36,0.00,,,0.00,VWS V14.01,2013-06-11 19:20:00,
2013-06-11 15:21:00,81.6,52.1,31.01,WNW,291,0.0,0.0,36,0.00,,,0.00,VWS V14.01,2013-06-11 19:21:00,
2013-06-11 15:22:00,81.6,52.1,31.01,West,278,2.7,2.7,36,0.00,,,0.00,VWS V14.01,2013-06-11 19:22:00,
2013-06-11 15:23:00,81.6,52.1,31.01,NW,316,5.4,5.4,36,0.00,,,0.00,VWS V14.01,2013-06-11 19:23:00,
2013-06-11 15:24:00,81.4,51.9,31.01,NW,316,5.4,5.4,36,0.00,,,0.00,VWS V14.01,2013-06-11 19:24:00,
2013-06-11 15:25:00,81.2,51.8,31.01,NNE,30,0.0,5.4,36,0.00,,,0.00,VWS V14.01,2013-06-11 19:25:00,
2013-06-11 15:26:00,81.2,51.8,31.01,North,357,0.0,0.0,36,0.00,,,0.00,VWS V14.01,2013-06-11 19:26:00,
2013-06-11 15:27:00,81.2,51.8,31.01,North,357,0.0,0.0,36,0.00,,,0.00,VWS V14.01,2013-06-11 19:27:00,
2013-06-11 15:28:00,81.1,52.4,31.01,North,357,0.0,0.0,37,0.00,,,0.00,VWS V14.01,2013-06-11 19:28:00,
2013-06-11 15:29:00,81.1,52.3,31.01,SW,233,3.6,3.6,37,0.00,,,0.00,VWS V14.01,2013-06-11 19:29:00,
2013-06-11 15:30:00,81.1,52.3,31.01,North,0,0.0,3.6,37,0.00,,,0.00,VWS V14.01,2013-06-11 19:30:00,
2013-06-11 15:31:00,81.1,52.3,31.01,NNW,344,0.0,0.0,37,0.00,,,0.00,VWS V14.01,2013-06-11 19:31:00,
2013-06-11 15:32:00,81.2,52.5,31.01,WSW,255,3.6,3.6,37,0.00,,,0.00,VWS V14.01,2013-06-11 19:32:00,
2013-06-11 15:33:00,81.4,52.7,31.01,West,271,0.0,0.0,37,0.00,,,0.00,VWS V14.01,2013-06-11 19:33:00,
2013-06-11 15:34:00,81.4,52.7,31.01,West,271,0.0,0.0,37,0.00,,,0.00,VWS V14.01,2013-06-11 19:34:00,
2013-06-11 15:35:00,81.4,52.7,31.01,West,271,0.0,0.0,37,0.00,,,0.00,VWS V14.01,2013-06-11 19:35:00,
2013-06-11 15:36:00,81.4,52.7,31.01,WSW,258,3.1,4.0,37,0.00,,,0.00,VWS V14.01,2013-06-11 19:36:00,
2013-06-11 15:37:00,81.4,52.7,31.01,WSW,258,3.1,3.1,37,0.00,,,0.00,VWS V14.01,2013-06-11 19:37:00,
2013-06-11 15:38:00,81.4,52.7,31.01,SSW,210,3.1,3.1,37,0.00,,,0.00,VWS V14.01,2013-06-11 19:38:00,
2013-06-11 15:39:00,82.3,52.7,31.01,West,276,2.2,3.1,36,0.00,,,0.00,VWS V14.01,2013-06-11 19:39:00,
2013-06-11 15:40:00,82.5,52.9,31.01,SW,230,3.6,4.5,36,0.00,,,0.00,VWS V14.01,2013-06-11 19:40:00,
2013-06-11 15:41:00,82.5,52.9,31.01,SW,230,3.6,3.6,36,0.00,,,0.00,VWS V14.01,2013-06-11 19:41:00,
2013-06-11 15:42:00,82.5,52.9,31.01,SW,230,3.6,3.6,36,0.00,,,0.00,VWS V14.01,2013-06-11 19:42:00,
2013-06-11 15:43:00,83.2,52.8,31.01,SSW,202,3.6,3.6,35,0.00,,,0.00,VWS V14.01,2013-06-11 19:43:00,
2013-06-11 15:44:00,83.2,52.8,31.01,SW,228,6.3,6.3,35,0.00,,,0.00,VWS V14.01,2013-06-11 19:44:00,
2013-06-11 15:45:00,83.2,52.8,31.01,SSE,163,4.9,6.3,35,0.00,,,0.00,VWS V14.01,2013-06-11 19:45:00,
2013-06-11 15:46:00,83.2,52.8,31.01,WSW,240,0.0,4.9,35,0.00,,,0.00,VWS V14.01,2013-06-11 19:46:00,
2013-06-11 15:47:00,83.2,52.8,31.01,SSE,148,3.1,3.1,35,0.00,,,0.00,VWS V14.01,2013-06-11 19:47:00,
2013-06-11 15:48:00,83.8,52.4,31.01,West,266,5.8,5.8,34,0.00,,,0.00,VWS V14.01,2013-06-11 19:48:00,
2013-06-11 15:49:00,83.8,52.4,31.01,West,266,5.8,5.8,34,0.00,,,0.00,VWS V14.01,2013-06-11 19:49:00,
2013-06-11 15:50:00,83.8,52.4,31.01,West,266,5.8,5.8,34,0.00,,,0.00,VWS V14.01,2013-06-11 19:50:00,
2013-06-11 15:51:00,83.8,52.4,31.01,South,182,6.3,6.3,34,0.00,,,0.00,VWS V14.01,2013-06-11 19:51:00,
2013-06-11 15:52:00,83.8,52.4,31.01,South,182,6.3,6.3,34,0.00,,,0.00,VWS V14.01,2013-06-11 19:52:00,
2013-06-11 15:53:00,83.9,52.6,31.01,SW,232,5.4,5.4,34,0.00,,,0.00,VWS V14.01,2013-06-11 19:53:00,
2013-06-11 15:54:00,83.9,52.6,31.01,SW,232,5.4,5.4,34,0.00,,,0.00,VWS V14.01,2013-06-11 19:54:00,
2013-06-11 15:55:00,83.9,52.6,31.01,NW,307,2.2,5.4,34,0.00,,,0.00,VWS V14.01,2013-06-11 19:55:00,
2013-06-11 15:56:00,83.9,52.6,31.01,WSW,237,2.7,2.7,34,0.00,,,0.00,VWS V14.01,2013-06-11 19:56:00,
2013-06-11 15:57:00,84.1,52.8,31.01,West,260,2.7,2.7,34,0.00,,,0.00,VWS V14.01,2013-06-11 19:57:00,
2013-06-11 15:58:00,84.1,52.8,31.01,SSE,168,6.3,6.3,34,0.00,,,0.00,VWS V14.01,2013-06-11 19:58:00,
2013-06-11 15:59:00,84.1,52.8,31.01,SSE,168,6.3,6.3,34,0.00,,,0.00,VWS V14.01,2013-06-11 19:59:00,
2013-06-11 16:00:00,84.1,52.8,31.01,WSW,244,0.0,6.3,34,0.00,,,0.00,VWS V14.01,2013-06-11 20:00:00,
2013-06-11 16:01:00,84.1,52.8,31.01,SW,225,5.4,5.4,34,0.00,,,0.00,VWS V14.01,2013-06-11 20:01:00,
2013-06-11 16:02:00,84.3,52.9,31.01,NNW,346,4.9,6.3,34,0.00,,,0.00,VWS V14.01,2013-06-11 20:02:00,
2013-06-11 16:03:00,84.3,52.9,31.01,NNW,346,4.9,4.9,34,0.00,,,0.00,VWS V14.01,2013-06-11 20:03:00,
2013-06-11 16:04:00,84.3,52.9,31.01,WSW,237,4.0,4.9,34,0.00,,,0.00,VWS V14.01,2013-06-11 20:04:00,
2013-06-11 16:05:00,84.3,52.9,31.01,SSW,208,3.6,3.6,34,0.00,,,0.00,VWS V14.01,2013-06-11 20:05:00,
2013-06-11 16:06:00,84.5,53.1,31.01,West,259,4.9,4.9,34,0.00,,,0.00,VWS V14.01,2013-06-11 20:06:00,
2013-06-11 16:07:00,84.5,53.1,31.01,SW,226,3.1,4.9,34,0.00,,,0.00,VWS V14.01,2013-06-11 20:07:00,
2013-06-11 16:08:00,84.5,53.1,31.01,WNW,295,2.7,3.1,34,0.00,,,0.00,VWS V14.01,2013-06-11 20:08:00,
2013-06-11 16:09:00,84.5,52.2,31.01,WNW,295,2.7,2.7,33,0.00,,,0.00,VWS V14.01,2013-06-11 20:09:00,
2013-06-11 16:10:00,84.5,52.2,31.01,SSW,205,5.4,5.4,33,0.00,,,0.00,VWS V14.01,2013-06-11 20:10:00,
2013-06-11 16:11:00,84.5,52.2,31.01,North,0,0.0,5.4,33,0.00,,,0.00,VWS V14.01,2013-06-11 20:11:00,
2013-06-11 16:12:00,84.5,52.2,31.01,North,0,0.0,0.0,33,0.00,,,0.00,VWS V14.01,2013-06-11 20:12:00,
2013-06-11 16:13:00,84.5,52.2,31.01,ENE,78,2.7,4.9,33,0.00,,,0.00,VWS V14.01,2013-06-11 20:13:00,
2013-06-11 16:14:00,84.1,51.9,31.01,ENE,78,2.7,2.7,33,0.00,,,0.00,VWS V14.01,2013-06-11 20:14:00,
2013-06-11 16:15:00,84.1,51.9,31.01,SW,232,3.6,4.0,33,0.00,,,0.00,VWS V14.01,2013-06-11 20:15:00,
2013-06-11 16:16:00,83.9,51.8,31.01,SW,232,3.6,3.6,33,0.00,,,0.00,VWS V14.01,2013-06-11 20:16:00,
2013-06-11 16:17:00,83.8,52.4,31.01,West,270,2.7,3.6,34,0.00,,,0.00,VWS V14.01,2013-06-11 20:17:00,
2013-06-11 16:18:00,83.8,52.4,31.01,SSW,203,3.1,3.1,34,0.00,,,0.00,VWS V14.01,2013-06-11 20:18:00,
2013-06-11 16:19:00,83.8,52.4,31.01,WNW,282,3.6,3.6,34,0.00,,,0.00,VWS V14.01,2013-06-11 20:19:00,
2013-06-11 16:20:00,83.8,52.4,31.01,NW,317,5.4,5.4,34,0.00,,,0.00,VWS V14.01,2013-06-11 20:20:00,
2013-06-11 16:21:00,83.8,52.4,31.01,NNW,342,3.1,5.4,34,0.00,,,0.00,VWS V14.01,2013-06-11 20:21:00,
2013-06-11 16:22:00,83.8,52.4,31.01,SE,138,3.6,3.6,34,0.00,,,0.00,VWS V14.01,2013-06-11 20:22:00,
2013-06-11 16:23:00,83.6,52.3,31.01,North,0,6.3,6.3,34,0.00,,,0.00,VWS V14.01,2013-06-11 20:23:00,
2013-06-11 16:24:00,83.4,52.1,31.01,East,93,3.1,6.3,34,0.00,,,0.00,VWS V14.01,2013-06-11 20:24:00,
2013-06-11 16:25:00,83.4,52.1,31.01,East,93,3.1,3.1,34,0.00,,,0.00,VWS V14.01,2013-06-11 20:25:00,
2013-06-11 16:26:00,83.2,52.0,31.01,West,267,4.0,4.0,34,0.00,,,0.00,VWS V14.01,2013-06-11 20:26:00,
2013-06-11 16:27:00,83.2,52.0,31.01,North,2,6.3,6.3,34,0.00,,,0.00,VWS V14.01,2013-06-11 20:27:00,
2013-06-11 16:28:00,83.2,52.0,31.01,ENE,71,4.0,6.3,34,0.00,,,0.00,VWS V14.01,2013-06-11 20:28:00,
2013-06-11 16:29:00,83.2,52.0,31.01,SE,125,3.6,4.0,34,0.00,,,0.00,VWS V14.01,2013-06-11 20:29:00,
2013-06-11 16:30:00,83.2,52.0,31.01,SE,125,3.6,4.0,34,0.00,,,0.00,VWS V14.01,2013-06-11 20:30:00,
2013-06-11 16:31:00,82.1,51.8,31.01,NNE,14,4.0,5.4,35,0.00,,,0.00,VWS V14.01,2013-06-11 20:31:00,
2013-06-11 16:32:00,82.1,51.0,31.01,SSW,202,2.7,4.0,34,0.00,,,0.00,VWS V14.01,2013-06-11 20:32:00,
2013-06-11 16:33:00,82.1,51.0,31.01,SSW,202,0.0,2.7,34,0.00,,,0.00,VWS V14.01,2013-06-11 20:33:00,
2013-06-11 16:34:00,82.1,51.0,31.01,SSW,202,0.0,0.0,34,0.00,,,0.00,VWS V14.01,2013-06-11 20:34:00,
2013-06-11 16:35:00,81.8,51.5,31.01,SSW,202,0.0,0.0,35,0.00,,,0.00,VWS V14.01,2013-06-11 20:35:00,
2013-06-11 16:36:00,81.8,51.5,31.01,South,170,0.0,0.0,35,0.00,,,0.00,VWS V14.01,2013-06-11 20:36:00,
2013-06-11 16:37:00,81.8,51.5,31.01,WSW,239,3.1,3.1,35,0.00,,,0.00,VWS V14.01,2013-06-11 20:37:00,
2013-06-11 16:38:00,81.6,51.3,31.01,WSW,239,3.1,3.1,35,0.00,,,0.00,VWS V14.01,2013-06-11 20:38:00,
2013-06-11 16:39:00,81.6,52.1,31.01,South,185,2.7,3.1,36,0.00,,,0.00,VWS V14.01,2013-06-11 20:39:00,
2013-06-11 16:40:00,81.6,52.1,31.01,SE,137,3.6,3.6,36,0.00,,,0.00,VWS V14.01,2013-06-11 20:40:00,
2013-06-11 16:41:00,81.6,52.1,31.01,South,190,5.8,5.8,36,0.00,,,0.00,VWS V14.01,2013-06-11 20:41:00,
2013-06-11 16:42:00,81.6,52.1,31.01,SW,226,4.9,5.8,36,0.00,,,0.00,VWS V14.01,2013-06-11 20:42:00,
2013-06-11 16:43:00,81.6,52.1,31.01,SW,217,3.6,4.9,36,0.00,,,0.00,VWS V14.01,2013-06-11 20:43:00,
2013-06-11 16:44:00,81.6,52.1,31.01,NW,309,4.0,4.0,36,0.00,,,0.00,VWS V14.01,2013-06-11 20:44:00,
2013-06-11 16:45:00,81.4,52.7,31.01,NW,309,4.0,4.0,37,0.00,,,0.00,VWS V14.01,2013-06-11 20:45:00,
2013-06-11 16:46:00,81.4,52.7,31.01,SW,236,3.1,4.9,37,0.00,,,0.00,VWS V14.01,2013-06-11 20:46:00,
2013-06-11 16:47:00,81.4,52.7,31.01,SW,236,3.1,3.1,37,0.00,,,0.00,VWS V14.01,2013-06-11 20:47:00,
2013-06-11 16:48:00,81.4,52.7,31.01,NW,313,4.0,4.0,37,0.00,,,0.00,VWS V14.01,2013-06-11 20:48:00,
2013-06-11 16:49:00,81.4,52.7,31.01,NNW,328,5.8,5.8,37,0.00,,,0.00,VWS V14.01,2013-06-11 20:49:00,
2013-06-11 16:50:00,81.1,52.3,31.01,WSW,252,2.7,5.8,37,0.00,,,0.00,VWS V14.01,2013-06-11 20:50:00,
2013-06-11 16:51:00,81.1,52.3,31.01,WSW,252,2.7,2.7,37,0.00,,,0.00,VWS V14.01,2013-06-11 20:51:00,
2013-06-11 16:52:00,81.1,52.3,31.01,WSW,252,2.7,2.7,37,0.00,,,0.00,VWS V14.01,2013-06-11 20:52:00,
2013-06-11 16:53:00,80.7,52.8,31.01,SSW,204,3.1,3.1,38,0.00,,,0.00,VWS V14.01,2013-06-11 20:53:00,
2013-06-11 16:54:00,80.7,52.8,31.01,SSW,204,3.1,3.1,38,0.00,,,0.00,VWS V14.01,2013-06-11 20:54:00,
2013-06-11 16:55:00,80.7,52.8,31.01,SSW,204,3.1,3.1,38,0.00,,,0.00,VWS V14.01,2013-06-11 20:55:00,
2013-06-11 16:56:00,80.7,52.8,31.01,SSW,204,3.1,3.1,38,0.00,,,0.00,VWS V14.01,2013-06-11 20:56:00,
2013-06-11 16:57:00,80.5,53.3,31.01,SW,216,2.7,4.0,39,0.00,,,0.00,VWS V14.01,2013-06-11 20:57:00,
2013-06-11 16:58:00,80.5,53.3,31.01,NNE,20,0.0,2.7,39,0.00,,,0.00,VWS V14.01,2013-06-11 20:58:00,
2013-06-11 16:59:00,80.5,53.3,31.01,NNW,341,3.6,3.6,39,0.00,,,0.00,VWS V14.01,2013-06-11 20:59:00,
2013-06-11 17:00:00,80.5,53.3,31.01,SW,235,4.9,4.9,39,0.00,,,0.00,VWS V14.01,2013-06-11 21:00:00,
2013-06-11 17:01:00,80.2,53.0,31.01,SW,235,4.9,4.9,39,0.00,,,0.00,VWS V14.01,2013-06-11 21:01:00,
2013-06-11 17:02:00,80.2,53.0,31.01,SSE,157,4.0,4.9,39,0.00,,,0.00,VWS V14.01,2013-06-11 21:02:00,
2013-06-11 17:03:00,80.2,53.0,31.01,SW,231,2.7,4.0,39,0.00,,,0.00,VWS V14.01,2013-06-11 21:03:00,
2013-06-11 17:04:00,80.0,52.8,31.01,NW,314,0.0,3.6,39,0.00,,,0.00,VWS V14.01,2013-06-11 21:04:00,
2013-06-11 17:05:00,80.0,52.8,31.01,NW,314,0.0,3.6,39,0.00,,,0.00,VWS V14.01,2013-06-11 21:05:00,
2013-06-11 17:06:00,80.0,53.5,31.01,NW,314,0.0,0.0,40,0.00,,,0.00,VWS V14.01,2013-06-11 21:06:00,
2013-06-11 17:07:00,80.2,53.7,31.01,SSW,210,0.0,0.0,40,0.00,,,0.00,VWS V14.01,2013-06-11 21:07:00,
2013-06-11 17:08:00,80.2,53.7,31.01,WSW,240,0.0,0.0,40,0.00,,,0.00,VWS V14.01,2013-06-11 21:08:00,
2013-06-11 17:09:00,80.2,53.7,31.01,NNW,334,2.2,2.2,40,0.00,,,0.00,VWS V14.01,2013-06-11 21:09:00,
2013-06-11 17:10:00,80.2,53.7,31.01,NNW,334,2.2,2.2,40,0.00,,,0.00,VWS V14.01,2013-06-11 21:10:00,
2013-06-11 17:11:00,80.3,54.5,31.01,East,97,0.0,2.2,41,0.00,,,0.00,VWS V14.01,2013-06-11 21:11:00,
2013-06-11 17:12:00,80.5,54.7,31.01,East,97,0.0,0.0,41,0.00,,,0.00,VWS V14.01,2013-06-11 21:12:00,
2013-06-11 17:13:00,80.5,54.7,31.01,NNW,327,0.0,0.0,41,0.00,,,0.00,VWS V14.01,2013-06-11 21:13:00,
2013-06-11 17:14:00,80.5,54.7,31.01,WSW,240,2.2,2.2,41,0.00,,,0.00,VWS V14.01,2013-06-11 21:14:00,
2013-06-11 17:15:00,80.5,54.7,31.01,WSW,240,2.2,2.2,41,0.00,,,0.00,VWS V14.01,2013-06-11 21:15:00,
2013-06-11 17:16:00,81.1,54.5,31.01,WSW,240,2.2,2.2,40,0.00,,,0.00,VWS V14.01,2013-06-11 21:16:00,
2013-06-11 17:17:00,81.1,54.5,31.01,East,98,0.0,2.2,40,0.00,,,0.00,VWS V14.01,2013-06-11 21:17:00,
2013-06-11 17:18:00,81.1,54.5,31.01,WSW,247,0.0,0.0,40,0.00,,,0.00,VWS V14.01,2013-06-11 21:18:00,
2013-06-11 17:19:00,81.4,54.1,31.01,WNW,303,0.0,0.0,39,0.00,,,0.00,VWS V14.01,2013-06-11 21:19:00,
2013-06-11 17:20:00,81.4,54.1,31.01,WNW,303,0.0,0.0,39,0.00,,,0.00,VWS V14.01,2013-06-11 21:20:00,
2013-06-11 17:21:00,81.4,54.1,31.01,ESE,121,3.6,3.6,39,0.00,,,0.00,VWS V14.01,2013-06-11 21:21:00,
2013-06-11 17:22:00,81.4,54.1,31.01,ESE,121,3.6,3.6,39,0.00,,,0.00,VWS V14.01,2013-06-11 21:22:00,
2013-06-11 17:23:00,81.8,53.7,31.01,SW,220,5.4,5.4,38,0.00,,,0.00,VWS V14.01,2013-06-11 21:23:00,
2013-06-11 17:24:00,81.8,53.7,31.01,SSE,159,2.7,5.4,38,0.00,,,0.00,VWS V14.01,2013-06-11 21:24:00,
2013-06-11 17:25:00,81.8,53.7,31.01,SSE,159,2.7,2.7,38,0.00,,,0.00,VWS V14.01,2013-06-11 21:25:00,
2013-06-11 17:26:00,81.8,53.7,31.01,North,357,0.0,0.0,38,0.00,,,0.00,VWS V14.01,2013-06-11 21:26:00,
2013-06-11 17:27:00,82.0,53.9,31.01,North,357,0.0,0.0,38,0.00,,,0.00,VWS V14.01,2013-06-11 21:27:00,
2013-06-11 17:28:00,82.0,53.9,31.01,WNW,287,0.0,0.0,38,0.00,,,0.00,VWS V14.01,2013-06-11 21:28:00,
2013-06-11 17:29:00,82.0,53.9,31.01,WSW,246,3.6,3.6,38,0.00,,,0.00,VWS V14.01,2013-06-11 21:29:00,
2013-06-11 17:30:00,82.0,53.2,31.01,WSW,246,3.6,3.6,37,0.00,,,0.00,VWS V14.01,2013-06-11 21:30:00,
2013-06-11 17:31:00,82.0,53.9,31.01,West,264,0.0,3.6,38,0.00,,,0.00,VWS V14.01,2013-06-11 21:31:00,
2013-06-11 17:32:00,82.0,53.9,31.01,South,175,3.6,3.6,38,0.00,,,0.00,VWS V14.01,2013-06-11 21:32:00,
2013-06-11 17:33:00,81.8,53.7,31.01,ESE,121,2.7,3.6,38,0.00,,,0.00,VWS V14.01,2013-06-11 21:33:00,
2013-06-11 17:34:00,81.8,53.7,31.01,ESE,121,2.7,2.7,38,0.00,,,0.00,VWS V14.01,2013-06-11 21:34:00,
2013-06-11 17:35:00,81.8,53.7,31.01,SW,226,3.1,4.9,38,0.00,,,0.00,VWS V14.01,2013-06-11 21:35:00,
2013-06-11 17:36:00,81.8,53.7,31.01,SW,226,0.0,3.1,38,0.00,,,0.00,VWS V14.01,2013-06-11 21:36:00,
2013-06-11 17:37:00,81.6,53.6,31.01,SW,226,0.0,0.0,38,0.00,,,0.00,VWS V14.01,2013-06-11 21:37:00,
2013-06-11 17:38:00,81.6,53.6,31.01,NNE,30,0.0,2.7,38,0.00,,,0.00,VWS V14.01,2013-06-11 21:38:00,
2013-06-11 17:39:00,81.6,53.6,31.01,WSW,237,3.1,3.1,38,0.00,,,0.00,VWS V14.01,2013-06-11 21:39:00,
2013-06-11 17:40:00,81.6,53.6,31.01,WSW,237,3.1,3.1,38,0.00,,,0.00,VWS V14.01,2013-06-11 21:40:00,
2013-06-11 17:41:00,81.6,53.6,31.01,West,262,0.0,3.1,38,0.00,,,0.00,VWS V14.01,2013-06-11 21:41:00,
2013-06-11 17:42:00,81.8,53.7,31.01,SW,230,0.0,0.0,38,0.00,,,0.00,VWS V14.01,2013-06-11 21:42:00,
2013-06-11 17:43:00,81.8,53.7,31.01,NNW,339,0.0,0.0,38,0.00,,,0.00,VWS V14.01,2013-06-11 21:43:00,
2013-06-11 17:44:00,81.8,53.7,31.01,NNW,339,0.0,0.0,38,0.00,,,0.00,VWS V14.01,2013-06-11 21:44:00,
2013-06-11 17:45:00,82.0,53.9,31.01,NNE,22,0.0,3.6,38,0.00,,,0.00,VWS V14.01,2013-06-11 21:45:00,
2013-06-11 17:46:00,82.0,53.9,31.01,WSW,257,3.1,3.1,38,0.00,,,0.00,VWS V14.01,2013-06-11 21:46:00,
2013-06-11 17:47:00,82.0,53.9,31.01,WSW,257,3.1,3.1,38,0.00,,,0.00,VWS V14.01,2013-06-11 21:47:00,
2013-06-11 17:48:00,82.0,53.9,31.01,WSW,257,3.1,3.1,38,0.00,,,0.00,VWS V14.01,2013-06-11 21:48:00,
2013-06-11 17:49:00,82.3,53.5,31.01,WSW,257,3.1,3.1,37,0.00,,,0.00,VWS V14.01,2013-06-11 21:49:00,
2013-06-11 17:50:00,82.5,52.9,31.01,SSW,199,3.6,3.6,36,0.00,,,0.00,VWS V14.01,2013-06-11 21:50:00,
2013-06-11 17:51:00,82.5,52.9,31.01,North,350,3.1,3.6,36,0.00,,,0.00,VWS V14.01,2013-06-11 21:51:00,
2013-06-11 17:52:00,82.5,52.9,31.01,South,190,3.1,3.1,36,0.00,,,0.00,VWS V14.01,2013-06-11 21:52:00,
2013-06-11 17:53:00,82.5,53.6,31.01,North,0,3.1,3.6,37,0.00,,,0.00,VWS V14.01,2013-06-11 21:53:00,
2013-06-11 17:54:00,82.5,53.6,31.01,West,267,4.9,4.9,37,0.00,,,0.00,VWS V14.01,2013-06-11 21:54:00,
2013-06-11 17:55:00,82.5,53.6,31.01,WNW,285,0.0,0.0,37,0.00,,,0.00,VWS V14.01,2013-06-11 21:55:00,
2013-06-11 17:56:00,82.5,53.6,31.01,SW,222,4.0,4.0,37,0.00,,,0.00,VWS V14.01,2013-06-11 21:56:00,
2013-06-11 17:57:00,81.8,53.0,31.01,SW,222,4.0,4.0,37,0.00,,,0.00,VWS V14.01,2013-06-11 21:57:00,
2013-06-11 17:58:00,81.8,53.0,31.01,SW,222,4.0,4.0,37,0.00,,,0.00,VWS V14.01,2013-06-11 21:58:00,
2013-06-11 17:59:00,81.6,52.8,31.01,NNW,348,5.4,5.4,37,0.00,,,0.00,VWS V14.01,2013-06-11 21:59:00,
2013-06-11 18:00:00,81.4,53.4,31.01,West,275,0.0,0.0,38,0.00,,,0.00,VWS V14.01,2013-06-11 22:00:00,
2013-06-11 18:01:00,81.4,53.4,31.01,West,275,0.0,0.0,38,0.00,,,0.00,VWS V14.01,2013-06-11 22:01:00,
2013-06-11 18:02:00,81.4,53.4,31.01,WSW,256,0.0,0.0,38,0.00,,,0.00,VWS V14.01,2013-06-11 22:02:00,
2013-06-11 18:03:00,81.1,53.1,31.01,SSW,200,0.0,0.0,38,0.00,,,0.00,VWS V14.01,2013-06-11 22:03:00,
2013-06-11 18:04:00,81.1,53.1,31.01,WSW,244,2.2,2.2,38,0.00,,,0.00,VWS V14.01,2013-06-11 22:04:00,
2013-06-11 18:05:00,81.1,53.1,31.01,WNW,303,3.6,3.6,38,0.00,,,0.00,VWS V14.01,2013-06-11 22:05:00,
2013-06-11 18:06:00,81.1,53.1,31.01,WNW,292,0.0,3.6,38,0.00,,,0.00,VWS V14.01,2013-06-11 22:06:00,
2013-06-11 18:07:00,81.1,53.1,31.01,WNW,292,0.0,0.0,38,0.00,,,0.00,VWS V14.01,2013-06-11 22:07:00,
2013-06-11 18:08:00,80.7,52.8,31.01,SW,233,3.1,3.1,38,0.00,,,0.00,VWS V14.01,2013-06-11 22:08:00,
2013-06-11 18:09:00,80.5,53.3,31.01,WSW,252,0.0,3.1,39,0.00,,,0.00,VWS V14.01,2013-06-11 22:09:00,
2013-06-11 18:10:00,80.5,53.3,31.01,SW,223,0.0,5.8,39,0.00,,,0.00,VWS V14.01,2013-06-11 22:10:00,
2013-06-11 18:11:00,80.5,53.3,31.01,NE,46,0.0,5.8,39,0.00,,,0.00,VWS V14.01,2013-06-11 22:11:00,
2013-06-11 18:12:00,80.5,53.3,31.01,NE,46,0.0,0.0,39,0.00,,,0.00,VWS V14.01,2013-06-11 22:12:00,
2013-06-11 18:13:00,80.5,53.3,31.01,WSW,251,2.7,2.7,39,0.00,,,0.00,VWS V14.01,2013-06-11 22:13:00,
2013-06-11 18:14:00,80.5,53.3,31.01,WSW,251,0.0,2.7,39,0.00,,,0.00,VWS V14.01,2013-06-11 22:14:00,
2013-06-11 18:15:00,80.3,53.2,31.01,ESE,123,0.0,2.7,39,0.00,,,0.00,VWS V14.01,2013-06-11 22:15:00,
2013-06-11 18:16:00,80.5,53.3,31.01,ESE,123,0.0,2.7,39,0.00,,,0.00,VWS V14.01,2013-06-11 22:16:00,
2013-06-11 18:17:00,80.5,53.3,31.01,East,84,0.0,0.0,39,0.00,,,0.00,VWS V14.01,2013-06-11 22:17:00,
2013-06-11 18:18:00,80.5,53.3,31.01,NW,313,0.0,0.0,39,0.00,,,0.00,VWS V14.01,2013-06-11 22:18:00,
2013-06-11 18:19:00,80.7,53.5,31.01,West,262,2.2,2.2,39,0.00,,,0.00,VWS V14.01,2013-06-11 22:19:00,
2013-06-11 18:20:00,80.7,53.5,31.01,SW,235,0.0,2.7,39,0.00,,,0.00,VWS V14.01,2013-06-11 22:20:00,
2013-06-11 18:21:00,80.7,53.5,31.01,SW,235,0.0,2.7,39,0.00,,,0.00,VWS V14.01,2013-06-11 22:21:00,
2013-06-11 18:22:00,80.9,53.6,31.01,SW,235,0.0,0.0,39,0.00,,,0.00,VWS V14.01,2013-06-11 22:22:00,
2013-06-11 18:23:00,81.1,53.8,31.01,ESE,115,0.0,0.0,39,0.00,,,0.00,VWS V14.01,2013-06-11 22:23:00,
2013-06-11 18:24:00,81.1,53.8,31.01,NW,323,3.1,3.1,39,0.00,,,0.00,VWS V14.01,2013-06-11 22:24:00,
2013-06-11 18:25:00,81.2,53.2,31.01,NW,323,3.1,3.1,38,0.00,,,0.00,VWS V14.01,2013-06-11 22:25:00,
2013-06-11 18:26:00,81.2,53.2,31.01,South,189,7.6,7.6,38,0.00,,,0.00,VWS V14.01,2013-06-11 22:26:00,
2013-06-11 18:27:00,81.4,53.4,31.01,WSW,249,0.0,7.6,38,0.00,,,0.00,VWS V14.01,2013-06-11 22:27:00,
2013-06-11 18:28:00,81.4,53.4,31.01,South,170,0.0,0.0,38,0.00,,,0.00,VWS V14.01,2013-06-11 22:28:00,
2013-06-11 18:29:00,81.4,53.4,31.01,NNW,333,4.0,4.0,38,0.00,,,0.00,VWS V14.01,2013-06-11 22:29:00,
2013-06-11 18:30:00,81.4,53.4,31.01,South,178,4.0,4.0,38,0.00,,,0.00,VWS V14.01,2013-06-11 22:30:00,
2013-06-11 18:31:00,81.4,53.4,31.01,NW,324,3.1,4.0,38,0.00,,,0.00,VWS V14.01,2013-06-11 22:31:00,
2013-06-11 18:32:00,81.4,53.4,31.01,NW,324,3.1,3.1,38,0.00,,,0.00,VWS V14.01,2013-06-11 22:32:00,
2013-06-11 18:33:00,81.4,53.4,31.01,SW,236,2.7,3.1,38,0.00,,,0.00,VWS V14.01,2013-06-11 22:33:00,
2013-06-11 18:34:00,81.1,53.1,31.01,SW,236,2.7,2.7,38,0.00,,,0.00,VWS V14.01,2013-06-11 22:34:00,
2013-06-11 18:35:00,81.1,53.1,31.01,WNW,297,0.0,2.7,38,0.00,,,0.00,VWS V14.01,2013-06-11 22:35:00,
2013-06-11 18:36:00,81.1,53.1,31.01,WNW,297,0.0,0.0,38,0.00,,,0.00,VWS V14.01,2013-06-11 22:36:00,
2013-06-11 18:37:00,80.7,53.5,31.01,ESE,119,0.0,0.0,39,0.00,,,0.00,VWS V14.01,2013-06-11 22:37:00,
2013-06-11 18:38:00,80.7,53.5,31.01,ESE,119,0.0,0.0,39,0.00,,,0.00,VWS V14.01,2013-06-11 22:38:00,
2013-06-11 18:39:00,80.7,53.5,31.01,SW,234,5.8,5.8,39,0.00,,,0.00,VWS V14.01,2013-06-11 22:39:00,
2013-06-11 18:40:00,80.7,53.5,31.01,South,172,4.0,5.8,39,0.00,,,0.00,VWS V14.01,2013-06-11 22:40:00,
2013-06-11 18:41:00,80.5,53.3,31.01,SSE,162,3.6,4.0,39,0.00,,,0.00,VWS V14.01,2013-06-11 22:41:00,
2013-06-11 18:42:00,80.5,53.3,31.01,SSE,162,0.0,3.6,39,0.00,,,0.00,VWS V14.01,2013-06-11 22:42:00,
2013-06-11 18:43:00,80.5,53.3,31.01,SSE,162,0.0,0.0,39,0.00,,,0.00,VWS V14.01,2013-06-11 22:43:00,
2013-06-11 18:44:00,80.2,53.0,31.01,WSW,241,0.0,0.0,39,0.00,,,0.00,VWS V14.01,2013-06-11 22:44:00,
2013-06-11 18:45:00,80.2,53.0,31.01,WSW,241,0.0,0.0,39,0.00,,,0.00,VWS V14.01,2013-06-11 22:45:00,
2013-06-11 18:46:00,80.2,53.0,31.01,NW,310,0.0,0.0,39,0.00,,,0.00,VWS V14.01,2013-06-11 22:46:00,
2013-06-11 18:47:00,80.2,53.0,31.01,NW,310,0.0,0.0,39,0.00,,,0.00,VWS V14.01,2013-06-11 22:47:00,
2013-06-11 18:48:00,80.0,52.8,31.01,North,10,3.6,3.6,39,0.00,,,0.00,VWS V14.01,2013-06-11 22:48:00,
2013-06-11 18:49:00,80.0,52.8,31.01,NW,319,4.0,4.0,39,0.00,,,0.00,VWS V14.01,2013-06-11 22:49:00,
2013-06-11 18:50:00,80.0,52.8,31.01,North,349,3.1,4.0,39,0.00,,,0.00,VWS V14.01,2013-06-11 22:50:00,
2013-06-11 18:51:00,79.8,52.7,31.01,North,349,0.0,0.0,39,0.00,,,0.00,VWS V14.01,2013-06-11 22:51:00,
2013-06-11 18:52:00,79.8,52.7,31.01,North,349,0.0,0.0,39,0.00,,,0.00,VWS V14.01,2013-06-11 22:52:00,
2013-06-11 18:53:00,79.8,52.7,31.01,NNW,327,0.0,0.0,39,0.00,,,0.00,VWS V14.01,2013-06-11 22:53:00,
2013-06-11 18:54:00,79.8,52.7,31.01,West,272,2.2,2.2,39,0.00,,,0.00,VWS V14.01,2013-06-11 22:54:00,
2013-06-11 18:55:00,79.8,52.7,31.01,West,272,2.2,2.2,39,0.00,,,0.00,VWS V14.01,2013-06-11 22:55:00,
2013-06-11 18:56:00,79.6,53.2,31.01,NW,325,0.0,0.0,40,0.00,,,0.00,VWS V14.01,2013-06-11 22:56:00,
2013-06-11 18:57:00,79.6,53.2,31.01,WSW,240,0.0,0.0,40,0.00,,,0.00,VWS V14.01,2013-06-11 22:57:00,
2013-06-11 18:58:00,79.6,53.2,31.01,WSW,240,0.0,0.0,40,0.00,,,0.00,VWS V14.01,2013-06-11 22:58:00,
2013-06-11 18:59:00,79.6,53.2,31.01,WNW,288,2.2,2.7,40,0.00,,,0.00,VWS V14.01,2013-06-11 22:59:00,
2013-06-11 19:00:00,79.6,53.9,31.01,WNW,288,2.2,2.2,41,0.00,,,0.00,VWS V14.01,2013-06-11 23:00:00,
2013-06-11 19:01:00,79.6,53.9,31.01,SW,235,0.0,0.0,41,0.00,,,0.00,VWS V14.01,2013-06-11 23:01:00,
2013-06-11 19:02:00,79.6,53.9,31.01,WSW,243,4.0,4.0,41,0.00,,,0.00,VWS V14.01,2013-06-11 23:02:00,
2013-06-11 19:03:00,79.6,53.9,31.01,SE,143,3.6,4.0,41,0.00,,,0.00,VWS V14.01,2013-06-11 23:03:00,
2013-06-11 19:04:00,79.6,53.9,31.01,WSW,240,0.0,3.6,41,0.00,,,0.00,VWS V14.01,2013-06-11 23:04:00,
2013-06-11 19:05:00,79.6,53.9,31.01,WSW,240,0.0,0.0,41,0.00,,,0.00,VWS V14.01,2013-06-11 23:05:00,
2013-06-11 19:06:00,79.8,53.4,31.01,WSW,248,0.0,0.0,40,0.00,,,0.00,VWS V14.01,2013-06-11 23:06:00,
2013-06-11 19:07:00,79.8,53.4,31.01,WSW,248,0.0,0.0,40,0.00,,,0.00,VWS V14.01,2013-06-11 23:07:00,
2013-06-11 19:08:00,79.8,53.4,31.01,ENE,73,0.0,0.0,40,0.00,,,0.00,VWS V14.01,2013-06-11 23:08:00,
2013-06-11 19:09:00,79.8,53.4,31.01,ENE,73,0.0,0.0,40,0.00,,,0.00,VWS V14.01,2013-06-11 23:09:00,
2013-06-11 19:10:00,80.0,53.5,31.01,WNW,301,2.7,2.7,40,0.00,,,0.00,VWS V14.01,2013-06-11 23:10:00,
2013-06-11 19:11:00,80.0,53.5,31.01,NNW,339,0.0,2.7,40,0.00,,,0.00,VWS V14.01,2013-06-11 23:11:00,
2013-06-11 19:12:00,80.0,53.5,31.01,NNW,339,0.0,0.0,40,0.00,,,0.00,VWS V14.01,2013-06-11 23:12:00,
2013-06-11 19:13:00,80.0,53.5,31.01,SW,217,0.0,0.0,40,0.00,,,0.00,VWS V14.01,2013-06-11 23:13:00,
2013-06-11 19:14:00,80.0,53.5,31.01,SW,217,0.0,0.0,40,0.00,,,0.00,VWS V14.01,2013-06-11 23:14:00,
2013-06-11 19:15:00,80.0,53.5,31.01,NNW,339,0.0,0.0,40,0.00,,,0.00,VWS V14.01,2013-06-11 23:15:00,
2013-06-11 19:16:00,80.0,53.5,31.01,WSW,247,0.0,0.0,40,0.00,,,0.00,VWS V14.01,2013-06-11 23:16:00,
2013-06-11 19:17:00,79.8,53.4,31.01,SW,216,0.0,0.0,40,0.00,,,0.00,VWS V14.01,2013-06-11 23:17:00,
2013-06-11 19:18:00,79.8,53.4,31.01,WSW,248,5.8,5.8,40,0.00,,,0.00,VWS V14.01,2013-06-11 23:18:00,
2013-06-11 19:19:00,79.8,53.4,31.01,West,267,0.0,5.8,40,0.00,,,0.00,VWS V14.01,2013-06-11 23:19:00,
2013-06-11 19:20:00,79.8,53.4,31.01,NNW,342,3.6,3.6,40,0.00,,,0.00,VWS V14.01,2013-06-11 23:20:00,
2013-06-11 19:21:00,79.6,53.2,31.01,NNW,342,3.6,3.6,40,0.00,,,0.00,VWS V14.01,2013-06-11 23:21:00,
2013-06-11 19:22:00,79.6,53.2,31.01,North,0,2.7,2.7,40,0.00,,,0.00,VWS V14.01,2013-06-11 23:22:00,
2013-06-11 19:23:00,79.6,53.2,31.01,North,0,2.7,2.7,40,0.00,,,0.00,VWS V14.01,2013-06-11 23:23:00,
2013-06-11 19:24:00,79.6,53.2,31.01,SSW,213,0.0,2.7,40,0.00,,,0.00,VWS V14.01,2013-06-11 23:24:00,
2013-06-11 19:25:00,79.6,53.2,31.01,West,260,0.0,0.0,40,0.00,,,0.00,VWS V14.01,2013-06-11 23:25:00,
2013-06-11 19:26:00,79.4,53.0,31.01,SW,221,2.7,2.7,40,0.00,,,0.00,VWS V14.01,2013-06-11 23:26:00,
2013-06-11 19:27:00,79.4,53.0,31.01,SE,128,2.7,4.0,40,0.00,,,0.00,VWS V14.01,2013-06-11 23:27:00,
2013-06-11 19:28:00,79.4,53.0,31.01,SE,128,2.7,4.0,40,0.00,,,0.00,VWS V14.01,2013-06-11 23:28:00,
2013-06-11 19:29:00,79.4,53.7,31.01,West,261,0.0,2.7,41,0.00,,,0.00,VWS V14.01,2013-06-11 23:29:00,
2013-06-11 19:30:00,79.4,53.7,31.01,SW,233,5.8,5.8,41,0.00,,,0.00,VWS V14.01,2013-06-11 23:30:00,
2013-06-11 19:31:00,79.3,52.9,31.01,NW,319,3.1,5.8,40,0.00,,,0.00,VWS V14.01,2013-06-11 23:31:00,
2013-06-11 19:32:00,79.3,52.9,31.01,North,4,3.6,3.6,40,0.00,,,0.00,VWS V14.01,2013-06-11 23:32:00,
2013-06-11 19:33:00,79.3,52.9,31.01,North,4,3.6,3.6,40,0.00,,,0.00,VWS V14.01,2013-06-11 23:33:00,
2013-06-11 19:34:00,79.3,52.9,31.01,NNE,20,4.0,4.9,40,0.00,,,0.00,VWS V14.01,2013-06-11 23:34:00,
2013-06-11 19:35:00,79.3,52.9,31.01,SW,225,4.0,4.0,40,0.00,,,0.00,VWS V14.01,2013-06-11 23:35:00,
2013-06-11 19:36:00,79.1,52.7,31.01,SW,225,4.0,4.0,40,0.00,,,0.00,VWS V14.01,2013-06-11 23:36:00,
2013-06-11 19:37:00,79.1,52.0,31.01,NW,310,2.7,3.1,39,0.00,,,0.00,VWS V14.01,2013-06-11 23:37:00,
2013-06-11 19:38:00,79.1,52.0,31.01,NW,310,2.7,3.1,39,0.00,,,0.00,VWS V14.01,2013-06-11 23:38:00,
2013-06-11 19:39:00,79.1,52.0,31.01,NW,310,2.7,2.7,39,0.00,,,0.00,VWS V14.01,2013-06-11 23:39:00,
2013-06-11 19:40:00,79.1,52.0,31.01,NW,310,2.7,2.7,39,0.00,,,0.00,VWS V14.01,2013-06-11 23:40:00,
2013-06-11 19:41:00,79.1,52.0,31.01,NNW,327,0.0,2.7,39,0.00,,,0.00,VWS V14.01,2013-06-11 23:41:00,
2013-06-11 19:42:00,79.1,52.0,31.01,NNW,345,0.0,0.0,39,0.00,,,0.00,VWS V14.01,2013-06-11 23:42:00,
2013-06-11 19:43:00,79.1,52.0,31.01,NNW,345,0.0,0.0,39,0.00,,,0.00,VWS V14.01,2013-06-11 23:43:00,
2013-06-11 19:44:00,79.1,52.0,31.01,NW,314,0.0,0.0,39,0.00,,,0.00,VWS V14.01,2013-06-11 23:44:00,
2013-06-11 19:45:00,79.1,52.0,31.01,SW,219,3.6,3.6,39,0.00,,,0.00,VWS V14.01,2013-06-11 23:45:00,
2013-06-11 19:46:00,79.1,52.0,31.01,NNW,335,3.1,3.6,39,0.00,,,0.00,VWS V14.01,2013-06-11 23:46:00,
2013-06-11 19:47:00,79.1,52.0,31.01,NNW,335,3.1,3.1,39,0.00,,,0.00,VWS V14.01,2013-06-11 23:47:00,
2013-06-11 19:48:00,79.1,52.0,31.01,NW,316,2.2,3.1,39,0.00,,,0.00,VWS V14.01,2013-06-11 23:48:00,
2013-06-11 19:49:00,79.1,52.0,31.01,NW,322,6.3,6.3,39,0.00,,,0.00,VWS V14.01,2013-06-11 23:49:00,
2013-06-11 19:50:00,79.1,52.0,31.01,NW,322,6.3,6.3,39,0.00,,,0.00,VWS V14.01,2013-06-11 23:50:00,
2013-06-11 19:51:00,79.1,51.3,31.01,NW,313,0.0,6.3,38,0.00,,,0.00,VWS V14.01,2013-06-11 23:51:00,
2013-06-11 19:52:00,79.1,51.3,31.01,NW,321,2.7,6.3,38,0.00,,,0.00,VWS V14.01,2013-06-11 23:52:00,
2013-06-11 19:53:00,79.1,51.3,31.01,WNW,293,2.2,2.7,38,0.00,,,0.00,VWS V14.01,2013-06-11 23:53:00,
2013-06-11 19:54:00,79.1,51.3,31.01,WNW,293,2.2,2.2,38,0.00,,,0.00,VWS V14.01,2013-06-11 23:54:00,
2013-06-11 19:55:00,78.9,51.2,31.01,NW,315,5.8,5.8,38,0.00,,,0.00,VWS V14.01,2013-06-11 23:55:00,
2013-06-11 19:56:00,78.9,51.2,31.01,West,276,0.0,5.8,38,0.00,,,0.00,VWS V14.01,2013-06-11 23:56:00,
2013-06-11 19:57:00,78.9,51.2,31.01,NW,326,4.0,4.0,38,0.00,,,0.00,VWS V14.01,2013-06-11 23:57:00,
2013-06-11 19:58:00,78.9,51.2,31.01,North,353,5.4,5.4,38,0.00,,,0.00,VWS V14.01,2013-06-11 23:58:00,
2013-06-11 19:59:00,78.9,51.2,31.01,NW,318,3.1,5.4,38,0.00,,,0.00,VWS V14.01,2013-06-11 23:59:00,
2013-06-11 20:00:00,78.9,51.2,31.01,NW,318,3.1,3.1,38,0.00,,,0.00,VWS V14.01,2013-06-12 00:00:00,
2013-06-11 20:01:00,78.7,51.0,31.01,NW,318,3.1,3.1,38,0.00,,,0.00,VWS V14.01,2013-06-12 00:01:00,
2013-06-11 20:02:00,78.7,51.0,31.01,NW,325,0.0,3.1,38,0.00,,,0.00,VWS V14.01,2013-06-12 00:02:00,
2013-06-11 20:03:00,78.7,51.0,31.01,NW,325,0.0,0.0,38,0.00,,,0.00,VWS V14.01,2013-06-12 00:03:00,
2013-06-11 20:04:00,78.7,51.0,31.01,NW,317,0.0,3.1,38,0.00,,,0.00,VWS V14.01,2013-06-12 00:04:00,
2013-06-11 20:05:00,78.7,51.0,31.01,WNW,291,0.0,0.0,38,0.00,,,0.00,VWS V14.01,2013-06-12 00:05:00,
2013-06-11 20:06:00,78.5,51.5,31.01,WNW,291,0.0,0.0,39,0.00,,,0.00,VWS V14.01,2013-06-12 00:06:00,
2013-06-11 20:07:00,78.5,51.5,31.01,WNW,291,0.0,0.0,39,0.00,,,0.00,VWS V14.01,2013-06-12 00:07:00,
2013-06-11 20:08:00,78.5,51.5,31.01,NW,317,0.0,0.0,39,0.00,,,0.00,VWS V14.01,2013-06-12 00:08:00,
2013-06-11 20:09:00,78.5,51.5,31.01,NW,317,0.0,0.0,39,0.00,,,0.00,VWS V14.01,2013-06-12 00:09:00,
2013-06-11 20:10:00,78.5,51.5,31.01,NW,310,0.0,0.0,39,0.00,,,0.00,VWS V14.01,2013-06-12 00:10:00,
2013-06-11 20:11:00,78.5,51.5,31.01,NW,310,0.0,0.0,39,0.00,,,0.00,VWS V14.01,2013-06-12 00:11:00,
2013-06-11 20:12:00,78.4,51.4,31.01,NW,316,0.0,0.0,39,0.00,,,0.00,VWS V14.01,2013-06-12 00:12:00,
2013-06-11 20:13:00,78.4,51.4,31.01,West,264,0.0,0.0,39,0.00,,,0.00,VWS V14.01,2013-06-12 00:13:00,
2013-06-11 20:14:00,78.4,51.4,31.01,NNW,341,0.0,0.0,39,0.00,,,0.00,VWS V14.01,2013-06-12 00:14:00,
2013-06-11 20:15:00,78.4,51.4,31.01,NW,306,3.1,3.1,39,0.00,,,0.00,VWS V14.01,2013-06-12 00:15:00,
2013-06-11 20:16:00,78.4,51.4,31.01,North,8,2.7,3.1,39,0.00,,,0.00,VWS V14.01,2013-06-12 00:16:00,
2013-06-11 20:17:00,78.2,51.9,31.01,West,272,2.7,2.7,40,0.00,,,0.00,VWS V14.01,2013-06-12 00:17:00,
2013-06-11 20:18:00,78.2,51.9,31.01,WNW,293,2.2,2.7,40,0.00,,,0.00,VWS V14.01,2013-06-12 00:18:00,
2013-06-11 20:19:00,78.2,51.9,31.01,NNW,328,0.0,2.7,40,0.00,,,0.00,VWS V14.01,2013-06-12 00:19:00,
2013-06-11 20:20:00,78.2,51.9,31.01,NNW,328,0.0,0.0,40,0.00,,,0.00,VWS V14.01,2013-06-12 00:20:00,
2013-06-11 20:21:00,78.2,51.9,31.01,NW,322,0.0,0.0,40,0.00,,,0.00,VWS V14.01,2013-06-12 00:21:00,
2013-06-11 20:22:00,78.2,51.9,31.01,NW,322,0.0,0.0,40,0.00,,,0.00,VWS V14.01,2013-06-12 00:22:00,
2013-06-11 20:23:00,78.0,51.8,31.01,West,260,0.0,0.0,40,0.00,,,0.00,VWS V14.01,2013-06-12 00:23:00,
2013-06-11 20:24:00,78.0,51.8,31.01,West,260,0.0,0.0,40,0.00,,,0.00,VWS V14.01,2013-06-12 00:24:00,
2013-06-11 20:25:00,78.0,51.8,31.01,NW,310,0.0,0.0,40,0.00,,,0.00,VWS V14.01,2013-06-12 00:25:00,
2013-06-11 20:26:00,78.0,51.8,31.01,North,9,0.0,0.0,40,0.00,,,0.00,VWS V14.01,2013-06-12 00:26:00,
2013-06-11 20:27:00,78.0,51.8,31.01,North,9,0.0,0.0,40,0.00,,,0.00,VWS V14.01,2013-06-12 00:27:00,
2013-06-11 20:28:00,77.8,51.6,31.01,NW,324,0.0,0.0,40,0.00,,,0.00,VWS V14.01,2013-06-12 00:28:00,
2013-06-11 20:29:00,77.8,51.6,31.01,South,178,3.1,3.1,40,0.00,,,0.00,VWS V14.01,2013-06-12 00:29:00,
2013-06-11 20:30:00,77.8,51.6,31.01,ESE,108,3.6,5.4,40,0.00,,,0.00,VWS V14.01,2013-06-12 00:30:00,
2013-06-11 20:31:00,77.8,51.6,31.01,ESE,108,3.6,3.6,40,0.00,,,0.00,VWS V14.01,2013-06-12 00:31:00,
2013-06-11 20:32:00,77.8,51.6,31.01,West,275,6.3,6.3,40,0.00,,,0.00,VWS V14.01,2013-06-12 00:32:00,
2013-06-11 20:33:00,77.6,50.7,31.01,NNW,331,0.0,6.3,39,0.00,,,0.00,VWS V14.01,2013-06-12 00:33:00,
2013-06-11 20:34:00,77.6,50.7,31.01,NNW,331,0.0,6.3,39,0.00,,,0.00,VWS V14.01,2013-06-12 00:34:00,
2013-06-11 20:35:00,77.6,51.4,31.01,NNW,331,0.0,0.0,40,0.00,,,0.00,VWS V14.01,2013-06-12 00:35:00,
2013-06-11 20:36:00,77.6,50.7,31.01,NNW,330,4.9,5.8,39,0.00,,,0.00,VWS V14.01,2013-06-12 00:36:00,
2013-06-11 20:37:00,77.6,50.7,31.01,NNW,330,4.9,4.9,39,0.00,,,0.00,VWS V14.01,2013-06-12 00:37:00,
2013-06-11 20:38:00,77.6,50.7,31.01,SSE,161,3.6,3.6,39,0.00,,,0.00,VWS V14.01,2013-06-12 00:38:00,
2013-06-11 20:39:00,77.6,50.7,31.01,NNW,335,0.0,3.6,39,0.00,,,0.00,VWS V14.01,2013-06-12 00:39:00,
2013-06-11 20:40:00,77.6,50.7,31.01,WNW,294,3.1,3.1,39,0.00,,,0.00,VWS V14.01,2013-06-12 00:40:00,
2013-06-11 20:41:00,77.6,50.7,31.01,North,353,0.0,3.1,39,0.00,,,0.00,VWS V14.01,2013-06-12 00:41:00,
2013-06-11 20:42:00,77.6,50.7,31.01,NW,326,0.0,0.0,39,0.00,,,0.00,VWS V14.01,2013-06-12 00:42:00,
2013-06-11 20:43:00,77.5,50.6,31.01,SSW,206,3.1,3.1,39,0.00,,,0.00,VWS V14.01,2013-06-12 00:43:00,
2013-06-11 20:44:00,77.5,50.6,31.01,SW,233,0.0,3.1,39,0.00,,,0.00,VWS V14.01,2013-06-12 00:44:00,
2013-06-11 20:45:00,77.5,50.6,31.01,SW,233,0.0,0.0,39,0.00,,,0.00,VWS V14.01,2013-06-12 00:45:00,
2013-06-11 20:46:00,77.5,50.6,31.01,WNW,288,2.7,2.7,39,0.00,,,0.00,VWS V14.01,2013-06-12 00:46:00,
2013-06-11 20:47:00,77.5,50.6,31.01,NNW,346,3.6,3.6,39,0.00,,,0.00,VWS V14.01,2013-06-12 00:47:00,
2013-06-11 20:48:00,77.5,51.3,31.01,WNW,294,2.7,2.7,40,0.00,,,0.00,VWS V14.01,2013-06-12 00:48:00,
2013-06-11 20:49:00,77.5,51.3,31.01,WNW,298,2.7,2.7,40,0.00,,,0.00,VWS V14.01,2013-06-12 00:49:00,
2013-06-11 20:50:00,77.3,50.4,31.01,WNW,298,2.7,2.7,39,0.00,,,0.00,VWS V14.01,2013-06-12 00:50:00,
2013-06-11 20:51:00,77.3,50.4,31.01,WNW,283,0.0,2.7,39,0.00,,,0.00,VWS V14.01,2013-06-12 00:51:00,
2013-06-11 20:52:00,77.3,50.4,31.01,WNW,283,0.0,0.0,39,0.00,,,0.00,VWS V14.01,2013-06-12 00:52:00,
2013-06-11 20:53:00,77.3,51.1,31.01,NW,304,0.0,0.0,40,0.00,,,0.00,VWS V14.01,2013-06-12 00:53:00,
2013-06-11 20:54:00,77.3,51.1,31.01,NW,304,0.0,0.0,40,0.00,,,0.00,VWS V14.01,2013-06-12 00:54:00,
2013-06-11 20:55:00,77.3,51.1,31.01,NNW,329,3.1,4.0,40,0.00,,,0.00,VWS V14.01,2013-06-12 00:55:00,
2013-06-11 20:56:00,77.3,51.1,31.01,NNW,338,3.1,3.1,40,0.00,,,0.00,VWS V14.01,2013-06-12 00:56:00,
2013-06-11 20:57:00,77.1,50.9,31.01,NW,325,4.9,4.9,40,0.00,,,0.00,VWS V14.01,2013-06-12 00:57:00,
2013-06-11 20:58:00,77.1,50.3,31.01,WNW,293,2.2,3.1,39,0.00,,,0.00,VWS V14.01,2013-06-12 00:58:00,
2013-06-11 20:59:00,77.1,50.3,31.01,WNW,293,2.2,3.1,39,0.00,,,0.00,VWS V14.01,2013-06-12 00:59:00,
2013-06-11 21:00:00,77.1,50.3,31.01,North,353,0.0,2.2,39,0.00,,,0.00,VWS V14.01,2013-06-12 01:00:00,
2013-06-11 21:01:00,77.1,50.9,31.01,SSW,209,0.0,0.0,40,0.00,,,0.00,VWS V14.01,2013-06-12 01:01:00,
2013-06-11 21:02:00,77.1,50.9,31.01,NNE,32,0.0,0.0,40,0.00,,,0.00,VWS V14.01,2013-06-12 01:02:00,
2013-06-11 21:03:00,77.1,50.9,31.01,NW,304,4.9,4.9,40,0.00,,,0.00,VWS V14.01,2013-06-12 01:03:00,
2013-06-11 21:04:00,76.9,50.8,31.01,NW,304,4.9,4.9,40,0.00,,,0.00,VWS V14.01,2013-06-12 01:04:00,
2013-06-11 21:05:00,76.9,50.8,31.01,NW,304,4.9,4.9,40,0.00,,,0.00,VWS V14.01,2013-06-12 01:05:00,
2013-06-11 21:06:00,76.9,50.8,31.01,North,0,0.0,4.9,40,0.00,,,0.00,VWS V14.01,2013-06-12 01:06:00,
2013-06-11 21:07:00,76.9,50.8,31.01,North,0,0.0,0.0,40,0.00,,,0.00,VWS V14.01,2013-06-12 01:07:00,
2013-06-11 21:08:00,76.7,50.6,31.01,WNW,287,2.7,5.4,40,0.00,,,0.00,VWS V14.01,2013-06-12 01:08:00,
2013-06-11 21:09:00,76.7,50.6,31.01,WNW,302,0.0,5.4,40,0.00,,,0.00,VWS V14.01,2013-06-12 01:09:00,
2013-06-11 21:10:00,76.7,50.6,31.01,NW,317,0.0,0.0,40,0.00,,,0.00,VWS V14.01,2013-06-12 01:10:00,
2013-06-11 21:11:00,76.7,50.6,31.01,NW,317,0.0,0.0,40,0.00,,,0.00,VWS V14.01,2013-06-12 01:11:00,
2013-06-11 21:12:00,76.6,50.5,31.01,NW,322,3.1,3.1,40,0.00,,,0.00,VWS V14.01,2013-06-12 01:12:00,
2013-06-11 21:13:00,76.6,50.5,31.01,NW,322,0.0,3.1,40,0.00,,,0.00,VWS V14.01,2013-06-12 01:13:00,
2013-06-11 21:14:00,76.6,50.5,31.01,NW,322,0.0,3.1,40,0.00,,,0.00,VWS V14.01,2013-06-12 01:14:00,
2013-06-11 21:15:00,76.6,50.5,31.01,NW,322,0.0,0.0,40,0.00,,,0.00,VWS V14.01,2013-06-12 01:15:00,
2013-06-11 21:16:00,76.6,50.5,31.01,West,272,0.0,0.0,40,0.00,,,0.00,VWS V14.01,2013-06-12 01:16:00,
2013-06-11 21:17:00,76.6,50.5,31.01,NW,323,0.0,0.0,40,0.00,,,0.00,VWS V14.01,2013-06-12 01:17:00,
2013-06-11 21:18:00,76.6,50.5,31.01,NW,320,0.0,0.0,40,0.00,,,0.00,VWS V14.01,2013-06-12 01:18:00,
2013-06-11 21:19:00,76.6,50.5,31.01,NW,320,0.0,0.0,40,0.00,,,0.00,VWS V14.01,2013-06-12 01:19:00,
2013-06-11 21:20:00,76.4,51.0,31.01,NW,320,0.0,0.0,41,0.00,,,0.00,VWS V14.01,2013-06-12 01:20:00,
2013-06-11 21:21:00,76.4,51.0,31.01,West,271,0.0,0.0,41,0.00,,,0.00,VWS V14.01,2013-06-12 01:21:00,
2013-06-11 21:22:00,76.2,50.8,31.01,NW,314,3.6,5.4,41,0.00,,,0.00,VWS V14.01,2013-06-12 01:22:00,
2013-06-11 21:23:00,76.2,50.8,31.01,NW,325,0.0,3.6,41,0.00,,,0.00,VWS V14.01,2013-06-12 01:23:00,
2013-06-11 21:24:00,76.2,50.8,31.01,NW,325,0.0,3.6,41,0.00,,,0.00,VWS V14.01,2013-06-12 01:24:00,
2013-06-11 21:25:00,76.2,50.8,31.01,NW,325,0.0,0.0,41,0.00,,,0.00,VWS V14.01,2013-06-12 01:25:00,
2013-06-11 21:26:00,76.2,50.8,31.01,West,264,3.6,3.6,41,0.00,,,0.00,VWS V14.01,2013-06-12 01:26:00,
2013-06-11 21:27:00,76.2,50.8,31.01,NW,318,4.9,4.9,41,0.00,,,0.00,VWS V14.01,2013-06-12 01:27:00,
2013-06-11 21:28:00,76.2,50.8,31.01,West,265,3.6,4.9,41,0.00,,,0.00,VWS V14.01,2013-06-12 01:28:00,
2013-06-11 21:29:00,76.2,50.8,31.01,West,265,3.6,3.6,41,0.00,,,0.00,VWS V14.01,2013-06-12 01:29:00,
2013-06-11 21:30:00,76.0,50.6,31.01,NNW,331,6.3,6.3,41,0.00,,,0.00,VWS V14.01,2013-06-12 01:30:00,
2013-06-11 21:31:00,76.0,50.0,31.01,NW,324,7.6,7.6,40,0.00,,,0.00,VWS V14.01,2013-06-12 01:31:00,
2013-06-11 21:32:00,76.0,50.0,31.01,NW,324,7.6,7.6,40,0.00,,,0.00,VWS V14.01,2013-06-12 01:32:00,
2013-06-11 21:33:00,76.0,50.0,31.01,NNW,331,2.7,7.6,40,0.00,,,0.00,VWS V14.01,2013-06-12 01:33:00,
2013-06-11 21:34:00,76.0,50.0,31.01,NNW,331,2.7,2.7,40,0.00,,,0.00,VWS V14.01,2013-06-12 01:34:00,
2013-06-11 21:35:00,76.0,50.0,31.01,NNW,331,2.7,2.7,40,0.00,,,0.00,VWS V14.01,2013-06-12 01:35:00,
2013-06-11 21:36:00,76.0,50.0,31.01,North,353,6.3,6.3,40,0.00,,,0.00,VWS V14.01,2013-06-12 01:36:00,
2013-06-11 21:37:00,76.0,50.0,31.01,NW,321,3.6,6.3,40,0.00,,,0.00,VWS V14.01,2013-06-12 01:37:00,
2013-06-11 21:38:00,76.0,50.0,31.01,ESE,114,2.7,3.6,40,0.00,,,0.00,VWS V14.01,2013-06-12 01:38:00,
2013-06-11 21:39:00,76.0,50.0,31.01,North,0,4.0,4.0,40,0.00,,,0.00,VWS V14.01,2013-06-12 01:39:00,
2013-06-11 21:40:00,76.0,50.0,31.01,SSE,155,2.7,4.0,40,0.00,,,0.00,VWS V14.01,2013-06-12 01:40:00,
2013-06-11 21:41:00,76.0,50.0,31.01,SSE,155,2.7,2.7,40,0.00,,,0.00,VWS V14.01,2013-06-12 01:41:00,
2013-06-11 21:42:00,76.0,50.0,31.01,NNW,337,2.7,2.7,40,0.00,,,0.00,VWS V14.01,2013-06-12 01:42:00,
2013-06-11 21:43:00,76.0,50.0,31.01,SSE,168,4.0,4.0,40,0.00,,,0.00,VWS V14.01,2013-06-12 01:43:00,
2013-06-11 21:44:00,76.0,50.0,31.01,South,169,2.7,4.0,40,0.00,,,0.00,VWS V14.01,2013-06-12 01:44:00,
2013-06-11 21:45:00,75.8,49.8,31.01,South,169,2.7,2.7,40,0.00,,,0.00,VWS V14.01,2013-06-12 01:45:00,
2013-06-11 21:46:00,75.8,49.8,31.01,ENE,60,0.0,2.7,40,0.00,,,0.00,VWS V14.01,2013-06-12 01:46:00,
2013-06-11 21:47:00,75.8,49.8,31.01,NW,304,4.9,6.3,40,0.00,,,0.00,VWS V14.01,2013-06-12 01:47:00,
2013-06-11 21:48:00,75.8,49.8,31.01,NNW,338,0.0,4.9,40,0.00,,,0.00,VWS V14.01,2013-06-12 01:48:00,
2013-06-11 21:49:00,75.7,49.7,31.01,NNW,338,0.0,0.0,40,0.00,,,0.00,VWS V14.01,2013-06-12 01:49:00,
2013-06-11 21:50:00,75.7,49.7,31.01,East,96,0.0,0.0,40,0.00,,,0.00,VWS V14.01,2013-06-12 01:50:00,
2013-06-11 21:51:00,75.7,49.7,31.01,NNW,337,0.0,0.0,40,0.00,,,0.00,VWS V14.01,2013-06-12 01:51:00,
2013-06-11 21:52:00,75.5,49.5,31.01,WNW,300,3.1,3.1,40,0.00,,,0.00,VWS V14.01,2013-06-12 01:52:00,
2013-06-11 21:53:00,75.5,49.5,31.01,WNW,282,0.0,3.1,40,0.00,,,0.00,VWS V14.01,2013-06-12 01:53:00,
2013-06-11 21:54:00,75.5,49.5,31.01,WSW,258,3.1,3.1,40,0.00,,,0.00,VWS V14.01,2013-06-12 01:54:00,
2013-06-11 21:55:00,75.5,49.5,31.01,NW,325,0.0,3.1,40,0.00,,,0.00,VWS V14.01,2013-06-12 01:55:00,
2013-06-11 21:56:00,75.3,50.0,31.01,NW,325,0.0,0.0,41,0.00,,,0.00,VWS V14.01,2013-06-12 01:56:00,
2013-06-11 21:57:00,75.3,50.0,31.01,SSE,164,2.7,2.7,41,0.00,,,0.00,VWS V14.01,2013-06-12 01:57:00,
2013-06-11 21:58:00,75.3,50.0,31.01,SSE,164,2.7,2.7,41,0.00,,,0.00,VWS V14.01,2013-06-12 01:58:00,
2013-06-11 21:59:00,75.3,50.0,31.01,NW,325,0.0,0.0,41,0.00,,,0.00,VWS V14.01,2013-06-12 01:59:00,
2013-06-11 22:00:00,75.1,49.8,31.01,ENE,66,0.0,0.0,41,0.00,,,0.00,VWS V14.01,2013-06-12 02:00:00,
2013-06-11 22:01:00,75.1,49.8,31.01,NNW,340,2.2,2.2,41,0.00,,,0.00,VWS V14.01,2013-06-12 02:01:00,
2013-06-11 22:02:00,75.1,49.8,31.01,NW,325,3.1,3.1,41,0.00,,,0.00,VWS V14.01,2013-06-12 02:02:00,
2013-06-11 22:03:00,75.1,49.8,31.01,NW,325,3.1,3.1,41,0.00,,,0.00,VWS V14.01,2013-06-12 02:03:00,
2013-06-11 22:04:00,74.9,50.3,31.01,NNW,329,0.0,0.0,42,0.00,,,0.00,VWS V14.01,2013-06-12 02:04:00,
2013-06-11 22:05:00,74.9,50.3,31.01,NNW,329,0.0,0.0,42,0.00,,,0.00,VWS V14.01,2013-06-12 02:05:00,
2013-06-11 22:06:00,74.9,50.3,31.01,NNW,329,0.0,0.0,42,0.00,,,0.00,VWS V14.01,2013-06-12 02:06:00,
2013-06-11 22:07:00,74.9,50.3,31.01,NNW,329,0.0,0.0,42,0.00,,,0.00,VWS V14.01,2013-06-12 02:07:00,
2013-06-11 22:08:00,74.8,50.2,31.01,NNW,329,0.0,0.0,42,0.00,,,0.00,VWS V14.01,2013-06-12 02:08:00,
2013-06-11 22:09:00,74.8,50.2,31.01,WNW,286,0.0,0.0,42,0.00,,,0.00,VWS V14.01,2013-06-12 02:09:00,
2013-06-11 22:10:00,74.8,50.2,31.01,WNW,286,0.0,0.0,42,0.00,,,0.00,VWS V14.01,2013-06-12 02:10:00,
2013-06-11 22:11:00,74.8,50.2,31.01,WNW,303,5.4,5.4,42,0.00,,,0.00,VWS V14.01,2013-06-12 02:11:00,
2013-06-11 22:12:00,74.8,50.2,31.01,NNW,333,3.6,5.4,42,0.00,,,0.00,VWS V14.01,2013-06-12 02:12:00,
2013-06-11 22:13:00,74.8,50.2,31.01,North,353,4.0,4.0,42,0.00,,,0.00,VWS V14.01,2013-06-12 02:13:00,
2013-06-11 22:14:00,74.8,50.2,31.01,NNW,337,2.7,3.1,42,0.00,,,0.00,VWS V14.01,2013-06-12 02:14:00,
2013-06-11 22:15:00,74.8,50.2,31.01,NNW,342,2.7,3.1,42,0.00,,,0.00,VWS V14.01,2013-06-12 02:15:00,
2013-06-11 22:16:00,74.8,50.2,31.01,NNW,342,2.7,2.7,42,0.00,,,0.00,VWS V14.01,2013-06-12 02:16:00,
2013-06-11 22:17:00,74.8,50.2,31.01,NNW,341,0.0,2.7,42,0.00,,,0.00,VWS V14.01,2013-06-12 02:17:00,
2013-06-11 22:18:00,74.8,50.2,31.01,NNW,330,0.0,2.7,42,0.00,,,0.00,VWS V14.01,2013-06-12 02:18:00,
2013-06-11 22:19:00,74.6,50.0,31.01,NNW,331,4.9,4.9,42,0.00,,,0.00,VWS V14.01,2013-06-12 02:19:00,
2013-06-11 22:20:00,74.6,50.0,31.01,NNW,331,4.9,4.9,42,0.00,,,0.00,VWS V14.01,2013-06-12 02:20:00,
2013-06-11 22:21:00,74.6,50.0,31.01,NW,312,2.7,4.9,42,0.00,,,0.00,VWS V14.01,2013-06-12 02:21:00,
2013-06-11 22:22:00,74.6,50.0,31.01,North,9,2.2,2.7,42,0.00,,,0.00,VWS V14.01,2013-06-12 02:22:00,
2013-06-11 22:23:00,74.6,50.0,31.01,North,9,2.2,2.2,42,0.00,,,0.00,VWS V14.01,2013-06-12 02:23:00,
2013-06-11 22:24:00,74.6,50.0,31.01,WNW,285,0.0,0.0,42,0.00,,,0.00,VWS V14.01,2013-06-12 02:24:00,
2013-06-11 22:25:00,74.6,50.0,31.01,NE,38,3.6,3.6,42,0.00,,,0.00,VWS V14.01,2013-06-12 02:25:00,
2013-06-11 22:26:00,74.6,50.0,31.01,NW,314,3.1,3.6,42,0.00,,,0.00,VWS V14.01,2013-06-12 02:26:00,
2013-06-11 22:27:00,74.4,49.8,31.01,NW,314,2.7,3.1,42,0.00,,,0.00,VWS V14.01,2013-06-12 02:27:00,
2013-06-11 22:28:00,74.4,49.8,31.01,NNW,328,2.7,2.7,42,0.00,,,0.00,VWS V14.01,2013-06-12 02:28:00,
2013-06-11 22:29:00,74.4,49.8,31.01,NW,312,0.0,2.7,42,0.00,,,0.00,VWS V14.01,2013-06-12 02:29:00,
2013-06-11 22:30:00,74.4,49.8,31.01,WNW,302,0.0,2.7,42,0.00,,,0.00,VWS V14.01,2013-06-12 02:30:00,
2013-06-11 22:31:00,74.4,49.8,31.01,WNW,302,0.0,0.0,42,0.00,,,0.00,VWS V14.01,2013-06-12 02:31:00,
2013-06-11 22:32:00,74.4,50.5,31.01,NNW,327,0.0,0.0,43,0.00,,,0.00,VWS V14.01,2013-06-12 02:32:00,
2013-06-11 22:33:00,74.4,50.5,31.01,NNW,327,0.0,0.0,43,0.00,,,0.00,VWS V14.01,2013-06-12 02:33:00,
2013-06-11 22:34:00,74.2,50.3,31.01,WNW,287,0.0,0.0,43,0.00,,,0.00,VWS V14.01,2013-06-12 02:34:00,
2013-06-11 22:35:00,74.2,50.3,31.01,WNW,287,0.0,0.0,43,0.00,,,0.00,VWS V14.01,2013-06-12 02:35:00,
2013-06-11 22:36:00,74.2,50.3,31.01,ESE,123,0.0,0.0,43,0.00,,,0.00,VWS V14.01,2013-06-12 02:36:00,
2013-06-11 22:37:00,74.2,50.3,31.01,ESE,107,0.0,0.0,43,0.00,,,0.00,VWS V14.01,2013-06-12 02:37:00,
2013-06-11 22:38:00,74.2,50.3,31.01,ESE,107,0.0,0.0,43,0.00,,,0.00,VWS V14.01,2013-06-12 02:38:00,
2013-06-11 22:39:00,74.2,50.3,31.01,North,353,2.2,2.7,43,0.00,,,0.00,VWS V14.01,2013-06-12 02:39:00,
2013-06-11 22:40:00,74.2,50.3,31.01,North,353,2.2,2.7,43,0.00,,,0.00,VWS V14.01,2013-06-12 02:40:00,
2013-06-11 22:41:00,74.0,50.2,31.01,West,279,0.0,2.7,43,0.00,,,0.00,VWS V14.01,2013-06-12 02:41:00,
2013-06-11 22:42:00,74.0,50.2,31.01,West,279,0.0,0.0,43,0.00,,,0.00,VWS V14.01,2013-06-12 02:42:00,
2013-06-11 22:43:00,74.0,50.2,31.01,West,265,3.6,3.6,43,0.00,,,0.00,VWS V14.01,2013-06-12 02:43:00,
2013-06-11 22:44:00,74.0,50.2,31.01,West,265,3.6,3.6,43,0.00,,,0.00,VWS V14.01,2013-06-12 02:44:00,
2013-06-11 22:45:00,74.0,50.2,31.01,NW,320,0.0,3.6,43,0.00,,,0.00,VWS V14.01,2013-06-12 02:45:00,
2013-06-11 22:46:00,74.0,50.2,31.01,NW,320,0.0,0.0,43,0.00,,,0.00,VWS V14.01,2013-06-12 02:46:00,
2013-06-11 22:47:00,74.0,50.2,31.01,WNW,303,2.2,2.7,43,0.00,,,0.00,VWS V14.01,2013-06-12 02:47:00,
2013-06-11 22:48:00,73.9,50.0,31.01,NNW,333,4.0,4.0,43,0.00,,,0.00,VWS V14.01,2013-06-12 02:48:00,
2013-06-11 22:49:00,73.9,50.6,31.01,NNW,333,4.0,4.0,44,0.00,,,0.00,VWS V14.01,2013-06-12 02:49:00,
2013-06-11 22:50:00,73.9,50.6,31.01,WNW,296,0.0,4.0,44,0.00,,,0.00,VWS V14.01,2013-06-12 02:50:00,
2013-06-11 22:51:00,73.9,50.6,31.01,WNW,296,0.0,0.0,44,0.00,,,0.00,VWS V14.01,2013-06-12 02:51:00,
2013-06-11 22:52:00,73.9,50.6,31.01,East,85,0.0,0.0,44,0.00,,,0.00,VWS V14.01,2013-06-12 02:52:00,
2013-06-11 22:53:00,73.9,50.6,31.01,East,85,0.0,0.0,44,0.00,,,0.00,VWS V14.01,2013-06-12 02:53:00,
2013-06-11 22:54:00,73.9,50.6,31.01,East,85,0.0,0.0,44,0.00,,,0.00,VWS V14.01,2013-06-12 02:54:00,
2013-06-11 22:55:00,73.9,50.6,31.01,East,85,0.0,0.0,44,0.00,,,0.00,VWS V14.01,2013-06-12 02:55:00,
2013-06-11 22:56:00,73.7,50.4,31.01,SW,227,3.1,3.1,44,0.00,,,0.00,VWS V14.01,2013-06-12 02:56:00,
2013-06-11 22:57:00,73.7,50.4,31.01,West,279,0.0,3.1,44,0.00,,,0.00,VWS V14.01,2013-06-12 02:57:00,
2013-06-11 22:58:00,73.7,50.4,31.01,West,279,0.0,0.0,44,0.00,,,0.00,VWS V14.01,2013-06-12 02:58:00,
2013-06-11 22:59:00,73.7,50.4,31.01,West,279,0.0,0.0,44,0.00,,,0.00,VWS V14.01,2013-06-12 02:59:00,
2013-06-11 23:00:00,73.5,50.3,31.01,West,279,0.0,0.0,44,0.00,,,0.00,VWS V14.01,2013-06-12 03:00:00,
2013-06-11 23:01:00,73.5,50.3,31.01,North,353,2.7,4.9,44,0.00,,,0.00,VWS V14.01,2013-06-12 03:01:00,
2013-06-11 23:02:00,73.5,50.3,31.01,NW,322,4.0,4.0,44,0.00,,,0.00,VWS V14.01,2013-06-12 03:02:00,
2013-06-11 23:03:00,73.5,50.3,31.01,NW,322,4.0,4.0,44,0.00,,,0.00,VWS V14.01,2013-06-12 03:03:00,
2013-06-11 23:04:00,73.5,50.3,31.01,NW,322,4.0,4.0,44,0.00,,,0.00,VWS V14.01,2013-06-12 03:04:00,
2013-06-11 23:05:00,73.5,50.3,31.01,NW,320,0.0,4.0,44,0.00,,,0.00,VWS V14.01,2013-06-12 03:05:00,
2013-06-11 23:06:00,73.5,50.9,31.01,NW,320,0.0,0.0,45,0.00,,,0.00,VWS V14.01,2013-06-12 03:06:00,
2013-06-11 23:07:00,73.5,50.9,31.01,NW,312,0.0,0.0,45,0.00,,,0.00,VWS V14.01,2013-06-12 03:07:00,
2013-06-11 23:08:00,73.5,50.9,31.01,North,353,0.0,0.0,45,0.00,,,0.00,VWS V14.01,2013-06-12 03:08:00,
2013-06-11 23:09:00,73.5,50.9,31.01,North,353,0.0,0.0,45,0.00,,,0.00,VWS V14.01,2013-06-12 03:09:00,
2013-06-11 23:10:00,73.3,50.7,31.01,North,353,0.0,0.0,45,0.00,,,0.00,VWS V14.01,2013-06-12 03:10:00,
2013-06-11 23:11:00,73.3,50.7,31.01,North,353,0.0,0.0,45,0.00,,,0.00,VWS V14.01,2013-06-12 03:11:00,
2013-06-11 23:12:00,73.3,50.7,31.01,North,353,0.0,0.0,45,0.00,,,0.00,VWS V14.01,2013-06-12 03:12:00,
2013-06-11 23:13:00,73.3,50.7,31.01,North,353,0.0,0.0,45,0.00,,,0.00,VWS V14.01,2013-06-12 03:13:00,
2013-06-11 23:14:00,73.1,50.6,31.01,WNW,300,0.0,0.0,45,0.00,,,0.00,VWS V14.01,2013-06-12 03:14:00,
2013-06-11 23:15:00,73.1,50.6,31.01,WNW,293,2.7,2.7,45,0.00,,,0.00,VWS V14.01,2013-06-12 03:15:00,
2013-06-11 23:16:00,73.1,50.6,31.01,WNW,293,0.0,2.7,45,0.00,,,0.00,VWS V14.01,2013-06-12 03:16:00,
2013-06-11 23:17:00,73.1,50.6,31.01,WNW,293,0.0,0.0,45,0.00,,,0.00,VWS V14.01,2013-06-12 03:17:00,
2013-06-11 23:18:00,73.1,50.6,31.01,WNW,293,0.0,0.0,45,0.00,,,0.00,VWS V14.01,2013-06-12 03:18:00,
2013-06-11 23:19:00,73.1,50.6,31.01,WNW,293,0.0,0.0,45,0.00,,,0.00,VWS V14.01,2013-06-12 03:19:00,
2013-06-11 23:20:00,73.1,50.6,31.01,WNW,293,0.0,0.0,45,0.00,,,0.00,VWS V14.01,2013-06-12 03:20:00,
2013-06-11 23:21:00,73.1,50.6,31.01,WNW,293,0.0,0.0,45,0.00,,,0.00,VWS V14.01,2013-06-12 03:21:00,
2013-06-11 23:22:00,73.1,50.6,31.01,WNW,293,0.0,0.0,45,0.00,,,0.00,VWS V14.01,2013-06-12 03:22:00,
2013-06-11 23:23:00,73.1,50.6,31.01,NNW,333,0.0,0.0,45,0.00,,,0.00,VWS V14.01,2013-06-12 03:23:00,
2013-06-11 23:24:00,73.0,50.4,31.01,NNW,333,0.0,0.0,45,0.00,,,0.00,VWS V14.01,2013-06-12 03:24:00,
2013-06-11 23:25:00,73.0,50.4,31.01,NW,309,2.7,2.7,45,0.00,,,0.00,VWS V14.01,2013-06-12 03:25:00,
2013-06-11 23:26:00,73.0,50.4,31.01,NW,309,2.7,2.7,45,0.00,,,0.00,VWS V14.01,2013-06-12 03:26:00,
2013-06-11 23:27:00,73.0,50.4,31.01,NW,309,2.2,2.7,45,0.00,,,0.00,VWS V14.01,2013-06-12 03:27:00,
2013-06-11 23:28:00,73.0,50.4,31.01,NW,309,2.2,2.2,45,0.00,,,0.00,VWS V14.01,2013-06-12 03:28:00,
2013-06-11 23:29:00,72.8,50.2,31.01,NNW,344,0.0,2.2,45,0.00,,,0.00,VWS V14.01,2013-06-12 03:29:00,
2013-06-11 23:30:00,72.8,50.2,31.01,NNW,344,0.0,0.0,45,0.00,,,0.00,VWS V14.01,2013-06-12 03:30:00,
2013-06-11 23:31:00,72.8,50.8,31.01,NNW,344,0.0,0.0,46,0.00,,,0.00,VWS V14.01,2013-06-12 03:31:00,
2013-06-11 23:32:00,72.8,50.8,31.01,NNW,344,0.0,0.0,46,0.00,,,0.00,VWS V14.01,2013-06-12 03:32:00,
2013-06-11 23:33:00,72.8,50.8,31.01,NE,44,0.0,0.0,46,0.00,,,0.00,VWS V14.01,2013-06-12 03:33:00,
2013-06-11 23:34:00,72.6,50.7,31.01,WNW,290,0.0,0.0,46,0.00,,,0.00,VWS V14.01,2013-06-12 03:34:00,
2013-06-11 23:35:00,72.6,50.7,31.01,NNW,338,2.7,2.7,46,0.00,,,0.00,VWS V14.01,2013-06-12 03:35:00,
2013-06-11 23:36:00,72.6,50.7,31.01,NNW,341,0.0,2.7,46,0.00,,,0.00,VWS V14.01,2013-06-12 03:36:00,
2013-06-11 23:37:00,72.6,50.7,31.01,NNW,327,3.6,3.6,46,0.00,,,0.00,VWS V14.01,2013-06-12 03:37:00,
2013-06-11 23:38:00,72.6,50.7,31.01,NNW,327,3.6,3.6,46,0.00,,,0.00,VWS V14.01,2013-06-12 03:38:00,
2013-06-11 23:39:00,72.6,50.7,31.01,North,349,0.0,3.6,46,0.00,,,0.00,VWS V14.01,2013-06-12 03:39:00,
2013-06-11 23:40:00,72.6,50.7,31.01,West,280,0.0,0.0,46,0.00,,,0.00,VWS V14.01,2013-06-12 03:40:00,
2013-06-11 23:41:00,72.6,50.7,31.01,West,280,0.0,0.0,46,0.00,,,0.00,VWS V14.01,2013-06-12 03:41:00,
2013-06-11 23:42:00,72.6,50.7,31.01,NNW,330,2.2,2.2,46,0.00,,,0.00,VWS V14.01,2013-06-12 03:42:00,
2013-06-11 23:43:00,72.6,50.7,31.01,NNW,330,2.2,2.2,46,0.00,,,0.00,VWS V14.01,2013-06-12 03:43:00,
2013-06-11 23:44:00,72.6,50.7,31.01,NW,320,2.7,2.7,46,0.00,,,0.00,VWS V14.01,2013-06-12 03:44:00,
2013-06-11 23:45:00,72.6,50.7,31.01,NNE,30,0.0,0.0,46,0.00,,,0.00,VWS V14.01,2013-06-12 03:45:00,
2013-06-11 23:46:00,72.6,50.7,31.01,NNE,30,0.0,0.0,46,0.00,,,0.00,VWS V14.01,2013-06-12 03:46:00,
2013-06-11 23:47:00,72.6,50.7,31.01,NNW,339,0.0,0.0,46,0.00,,,0.00,VWS V14.01,2013-06-12 03:47:00,
2013-06-11 23:48:00,72.6,50.7,31.01,NNW,339,0.0,0.0,46,0.00,,,0.00,VWS V14.01,2013-06-12 03:48:00,
2013-06-11 23:49:00,72.6,50.7,31.01,NNW,339,0.0,0.0,46,0.00,,,0.00,VWS V14.01,2013-06-12 03:49:00,
2013-06-11 23:50:00,72.6,50.1,31.01,NW,310,0.0,0.0,45,0.00,,,0.00,VWS V14.01,2013-06-12 03:50:00,
2013-06-11 23:51:00,72.6,50.1,31.01,NW,310,0.0,0.0,45,0.00,,,0.00,VWS V14.01,2013-06-12 03:51:00,
2013-06-11 23:52:00,72.6,50.1,31.01,NW,310,0.0,0.0,45,0.00,,,0.00,VWS V14.01,2013-06-12 03:52:00,
2013-06-11 23:53:00,72.6,50.1,31.01,NW,322,0.0,0.0,45,0.00,,,0.00,VWS V14.01,2013-06-12 03:53:00,
2013-06-11 23:54:00,72.6,50.1,31.01,NW,322,0.0,0.0,45,0.00,,,0.00,VWS V14.01,2013-06-12 03:54:00,
2013-06-11 23:55:00,72.6,50.7,31.01,NW,322,0.0,0.0,46,0.00,,,0.00,VWS V14.01,2013-06-12 03:55:00,